<?xml version="1.0" encoding="UTF-8" standalone="no" ?>
<gpx xmlns="http://www.topografix.com/GPX/1/1" xmlns:xsi="http://www.w3.org/2001/XMLSchema-instance" xsi:schemaLocation="http://www.topografix.com/GPX/1/1 http://www.topografix.com/GPX/1/1/gpx.xsd" version="1.1" creator="VisuGPX - https://www.visugpx.com">
  <metadata>
    <name>Les Avals de Châteaudouble</name>
    <desc><![CDATA[Excellente balade dans un endroit extraordinaire sans difficultés particulières à part le passage de l'eau au km 7.5 où il faut chercher le meilleur passage si on ne veut pas se mouiller les pieds !]]></desc>
  </metadata>
  <trk>
    <name><![CDATA[2018-09-23 11:07:46 Day]]></name>
    <trkseg>
      <trkpt lat="43.58259" lon="6.42577">
        <ele>292.86</ele>
        <time>2018-09-23T09:07:46Z</time>
      </trkpt>
      <trkpt lat="43.58259" lon="6.42577">
        <ele>292.86</ele>
        <time>2018-09-23T09:07:47Z</time>
      </trkpt>
      <trkpt lat="43.58259" lon="6.42578">
        <ele>292.86</ele>
        <time>2018-09-23T09:07:48Z</time>
      </trkpt>
      <trkpt lat="43.58255" lon="6.4258">
        <ele>292.86</ele>
        <time>2018-09-23T09:08:14Z</time>
      </trkpt>
      <trkpt lat="43.58256" lon="6.42578">
        <ele>293.34</ele>
        <time>2018-09-23T09:08:27Z</time>
      </trkpt>
      <trkpt lat="43.58264" lon="6.42579">
        <ele>293.34</ele>
        <time>2018-09-23T09:08:51Z</time>
      </trkpt>
      <trkpt lat="43.58263" lon="6.42584">
        <ele>293.34</ele>
        <time>2018-09-23T09:09:12Z</time>
      </trkpt>
      <trkpt lat="43.58262" lon="6.42584">
        <ele>293.82</ele>
        <time>2018-09-23T09:09:33Z</time>
      </trkpt>
      <trkpt lat="43.58258" lon="6.42592">
        <ele>293.34</ele>
        <time>2018-09-23T09:09:57Z</time>
      </trkpt>
      <trkpt lat="43.58255" lon="6.42596">
        <ele>293.34</ele>
        <time>2018-09-23T09:10:25Z</time>
      </trkpt>
      <trkpt lat="43.58256" lon="6.42591">
        <ele>293.34</ele>
        <time>2018-09-23T09:10:44Z</time>
      </trkpt>
      <trkpt lat="43.58259" lon="6.42588">
        <ele>293.34</ele>
        <time>2018-09-23T09:10:56Z</time>
      </trkpt>
      <trkpt lat="43.58268" lon="6.4259">
        <ele>293.82</ele>
        <time>2018-09-23T09:11:12Z</time>
      </trkpt>
      <trkpt lat="43.58273" lon="6.42589">
        <ele>293.82</ele>
        <time>2018-09-23T09:11:27Z</time>
      </trkpt>
      <trkpt lat="43.58278" lon="6.42592">
        <ele>294.3</ele>
        <time>2018-09-23T09:11:41Z</time>
      </trkpt>
      <trkpt lat="43.58277" lon="6.42588">
        <ele>293.82</ele>
        <time>2018-09-23T09:11:57Z</time>
      </trkpt>
      <trkpt lat="43.58284" lon="6.42592">
        <ele>294.3</ele>
        <time>2018-09-23T09:12:15Z</time>
      </trkpt>
      <trkpt lat="43.58285" lon="6.42587">
        <ele>294.3</ele>
        <time>2018-09-23T09:12:33Z</time>
      </trkpt>
      <trkpt lat="43.58282" lon="6.42587">
        <ele>292.86</ele>
        <time>2018-09-23T09:12:42Z</time>
      </trkpt>
      <trkpt lat="43.58266" lon="6.42581">
        <ele>293.34</ele>
        <time>2018-09-23T09:12:56Z</time>
      </trkpt>
      <trkpt lat="43.58263" lon="6.42579">
        <ele>293.82</ele>
        <time>2018-09-23T09:13:11Z</time>
      </trkpt>
      <trkpt lat="43.58263" lon="6.42571">
        <ele>291.9</ele>
        <time>2018-09-23T09:13:28Z</time>
      </trkpt>
      <trkpt lat="43.58273" lon="6.42575">
        <ele>290.94</ele>
        <time>2018-09-23T09:13:41Z</time>
      </trkpt>
      <trkpt lat="43.58285" lon="6.42587">
        <ele>293.34</ele>
        <time>2018-09-23T09:13:55Z</time>
      </trkpt>
      <trkpt lat="43.58289" lon="6.42595">
        <ele>293.82</ele>
        <time>2018-09-23T09:14:09Z</time>
      </trkpt>
      <trkpt lat="43.58289" lon="6.4259">
        <ele>294.3</ele>
        <time>2018-09-23T09:14:35Z</time>
      </trkpt>
      <trkpt lat="43.58286" lon="6.42588">
        <ele>294.3</ele>
        <time>2018-09-23T09:15:07Z</time>
      </trkpt>
      <trkpt lat="43.58284" lon="6.42591">
        <ele>294.3</ele>
        <time>2018-09-23T09:15:41Z</time>
      </trkpt>
      <trkpt lat="43.58284" lon="6.42596">
        <ele>294.3</ele>
        <time>2018-09-23T09:16:04Z</time>
      </trkpt>
      <trkpt lat="43.58279" lon="6.42585">
        <ele>294.78</ele>
        <time>2018-09-23T09:16:30Z</time>
      </trkpt>
      <trkpt lat="43.58284" lon="6.42586">
        <ele>293.82</ele>
        <time>2018-09-23T09:16:50Z</time>
      </trkpt>
      <trkpt lat="43.583" lon="6.42581">
        <ele>294.3</ele>
        <time>2018-09-23T09:17:06Z</time>
      </trkpt>
      <trkpt lat="43.58306" lon="6.42579">
        <ele>294.3</ele>
        <time>2018-09-23T09:17:12Z</time>
      </trkpt>
      <trkpt lat="43.58309" lon="6.42575">
        <ele>293.82</ele>
        <time>2018-09-23T09:17:28Z</time>
      </trkpt>
      <trkpt lat="43.58315" lon="6.42575">
        <ele>294.3</ele>
        <time>2018-09-23T09:17:45Z</time>
      </trkpt>
      <trkpt lat="43.58331" lon="6.42578">
        <ele>294.78</ele>
        <time>2018-09-23T09:17:59Z</time>
      </trkpt>
      <trkpt lat="43.5835" lon="6.4258">
        <ele>295.26</ele>
        <time>2018-09-23T09:18:14Z</time>
      </trkpt>
      <trkpt lat="43.58362" lon="6.4258">
        <ele>295.26</ele>
        <time>2018-09-23T09:18:28Z</time>
      </trkpt>
      <trkpt lat="43.58365" lon="6.42583">
        <ele>295.74</ele>
        <time>2018-09-23T09:18:39Z</time>
      </trkpt>
      <trkpt lat="43.58379" lon="6.42594">
        <ele>295.74</ele>
        <time>2018-09-23T09:18:52Z</time>
      </trkpt>
      <trkpt lat="43.58397" lon="6.42599">
        <ele>296.22</ele>
        <time>2018-09-23T09:19:07Z</time>
      </trkpt>
      <trkpt lat="43.58411" lon="6.42597">
        <ele>296.7</ele>
        <time>2018-09-23T09:19:18Z</time>
      </trkpt>
      <trkpt lat="43.5843" lon="6.42583">
        <ele>297.67</ele>
        <time>2018-09-23T09:19:37Z</time>
      </trkpt>
      <trkpt lat="43.58448" lon="6.42573">
        <ele>299.11</ele>
        <time>2018-09-23T09:19:53Z</time>
      </trkpt>
      <trkpt lat="43.58464" lon="6.42563">
        <ele>300.07</ele>
        <time>2018-09-23T09:20:11Z</time>
      </trkpt>
      <trkpt lat="43.5846" lon="6.42562">
        <ele>300.07</ele>
        <time>2018-09-23T09:20:23Z</time>
      </trkpt>
      <trkpt lat="43.5847" lon="6.42556">
        <ele>300.55</ele>
        <time>2018-09-23T09:20:39Z</time>
      </trkpt>
      <trkpt lat="43.58477" lon="6.42541">
        <ele>301.51</ele>
        <time>2018-09-23T09:20:53Z</time>
      </trkpt>
      <trkpt lat="43.58479" lon="6.4254">
        <ele>302.47</ele>
        <time>2018-09-23T09:20:55Z</time>
      </trkpt>
      <trkpt lat="43.58489" lon="6.42535">
        <ele>302.95</ele>
        <time>2018-09-23T09:21:10Z</time>
      </trkpt>
      <trkpt lat="43.58484" lon="6.42541">
        <ele>301.99</ele>
        <time>2018-09-23T09:21:24Z</time>
      </trkpt>
      <trkpt lat="43.58482" lon="6.42541">
        <ele>302.47</ele>
        <time>2018-09-23T09:21:38Z</time>
      </trkpt>
      <trkpt lat="43.5849" lon="6.42533">
        <ele>302.47</ele>
        <time>2018-09-23T09:21:54Z</time>
      </trkpt>
      <trkpt lat="43.58493" lon="6.42528">
        <ele>302.95</ele>
        <time>2018-09-23T09:22:06Z</time>
      </trkpt>
      <trkpt lat="43.58503" lon="6.42518">
        <ele>303.43</ele>
        <time>2018-09-23T09:22:20Z</time>
      </trkpt>
      <trkpt lat="43.58513" lon="6.42509">
        <ele>303.91</ele>
        <time>2018-09-23T09:22:33Z</time>
      </trkpt>
      <trkpt lat="43.58527" lon="6.42497">
        <ele>305.36</ele>
        <time>2018-09-23T09:22:50Z</time>
      </trkpt>
      <trkpt lat="43.58536" lon="6.42495">
        <ele>305.84</ele>
        <time>2018-09-23T09:22:59Z</time>
      </trkpt>
      <trkpt lat="43.58549" lon="6.42482">
        <ele>306.32</ele>
        <time>2018-09-23T09:23:13Z</time>
      </trkpt>
      <trkpt lat="43.5855" lon="6.42481">
        <ele>306.32</ele>
        <time>2018-09-23T09:23:14Z</time>
      </trkpt>
      <trkpt lat="43.58561" lon="6.4247">
        <ele>306.8</ele>
        <time>2018-09-23T09:23:28Z</time>
      </trkpt>
      <trkpt lat="43.58576" lon="6.42459">
        <ele>308.24</ele>
        <time>2018-09-23T09:23:42Z</time>
      </trkpt>
      <trkpt lat="43.58596" lon="6.42448">
        <ele>309.68</ele>
        <time>2018-09-23T09:24:01Z</time>
      </trkpt>
      <trkpt lat="43.58605" lon="6.42445">
        <ele>311.12</ele>
        <time>2018-09-23T09:24:15Z</time>
      </trkpt>
      <trkpt lat="43.58609" lon="6.4245">
        <ele>311.6</ele>
        <time>2018-09-23T09:24:28Z</time>
      </trkpt>
      <trkpt lat="43.58605" lon="6.4245">
        <ele>311.12</ele>
        <time>2018-09-23T09:24:44Z</time>
      </trkpt>
      <trkpt lat="43.58599" lon="6.42452">
        <ele>311.12</ele>
        <time>2018-09-23T09:24:59Z</time>
      </trkpt>
      <trkpt lat="43.586" lon="6.42449">
        <ele>310.16</ele>
        <time>2018-09-23T09:25:12Z</time>
      </trkpt>
      <trkpt lat="43.58604" lon="6.42451">
        <ele>310.64</ele>
        <time>2018-09-23T09:25:26Z</time>
      </trkpt>
      <trkpt lat="43.58607" lon="6.4245">
        <ele>311.12</ele>
        <time>2018-09-23T09:25:42Z</time>
      </trkpt>
      <trkpt lat="43.58609" lon="6.42451">
        <ele>309.2</ele>
        <time>2018-09-23T09:26:00Z</time>
      </trkpt>
      <trkpt lat="43.58609" lon="6.42451">
        <ele>314.49</ele>
        <time>2018-09-23T09:26:01Z</time>
      </trkpt>
      <trkpt lat="43.58611" lon="6.4245">
        <ele>310.64</ele>
        <time>2018-09-23T09:26:03Z</time>
      </trkpt>
      <trkpt lat="43.58609" lon="6.42449">
        <ele>311.6</ele>
        <time>2018-09-23T09:26:21Z</time>
      </trkpt>
      <trkpt lat="43.58609" lon="6.42448">
        <ele>311.6</ele>
        <time>2018-09-23T09:26:38Z</time>
      </trkpt>
      <trkpt lat="43.58611" lon="6.42451">
        <ele>312.57</ele>
        <time>2018-09-23T09:26:53Z</time>
      </trkpt>
      <trkpt lat="43.58609" lon="6.42449">
        <ele>311.6</ele>
        <time>2018-09-23T09:27:05Z</time>
      </trkpt>
      <trkpt lat="43.58614" lon="6.42455">
        <ele>312.09</ele>
        <time>2018-09-23T09:27:30Z</time>
      </trkpt>
      <trkpt lat="43.5861" lon="6.42448">
        <ele>312.09</ele>
        <time>2018-09-23T09:27:49Z</time>
      </trkpt>
      <trkpt lat="43.58613" lon="6.42452">
        <ele>312.57</ele>
        <time>2018-09-23T09:28:20Z</time>
      </trkpt>
      <trkpt lat="43.58609" lon="6.42448">
        <ele>312.57</ele>
        <time>2018-09-23T09:28:44Z</time>
      </trkpt>
      <trkpt lat="43.58601" lon="6.42447">
        <ele>312.57</ele>
        <time>2018-09-23T09:28:58Z</time>
      </trkpt>
      <trkpt lat="43.586" lon="6.42447">
        <ele>311.6</ele>
        <time>2018-09-23T09:29:17Z</time>
      </trkpt>
      <trkpt lat="43.58599" lon="6.42448">
        <ele>311.6</ele>
        <time>2018-09-23T09:29:37Z</time>
      </trkpt>
      <trkpt lat="43.58607" lon="6.42448">
        <ele>312.57</ele>
        <time>2018-09-23T09:29:51Z</time>
      </trkpt>
      <trkpt lat="43.58612" lon="6.42452">
        <ele>312.57</ele>
        <time>2018-09-23T09:30:10Z</time>
      </trkpt>
      <trkpt lat="43.58608" lon="6.42446">
        <ele>312.09</ele>
        <time>2018-09-23T09:30:30Z</time>
      </trkpt>
      <trkpt lat="43.58609" lon="6.42446">
        <ele>313.05</ele>
        <time>2018-09-23T09:30:49Z</time>
      </trkpt>
      <trkpt lat="43.58608" lon="6.42446">
        <ele>312.57</ele>
        <time>2018-09-23T09:31:10Z</time>
      </trkpt>
      <trkpt lat="43.58608" lon="6.42447">
        <ele>312.57</ele>
        <time>2018-09-23T09:31:30Z</time>
      </trkpt>
      <trkpt lat="43.58609" lon="6.42446">
        <ele>312.57</ele>
        <time>2018-09-23T09:31:45Z</time>
      </trkpt>
      <trkpt lat="43.58604" lon="6.42442">
        <ele>312.57</ele>
        <time>2018-09-23T09:32:01Z</time>
      </trkpt>
      <trkpt lat="43.58606" lon="6.42442">
        <ele>312.57</ele>
        <time>2018-09-23T09:32:24Z</time>
      </trkpt>
      <trkpt lat="43.58603" lon="6.42443">
        <ele>313.53</ele>
        <time>2018-09-23T09:32:44Z</time>
      </trkpt>
      <trkpt lat="43.58602" lon="6.4244">
        <ele>313.53</ele>
        <time>2018-09-23T09:33:06Z</time>
      </trkpt>
      <trkpt lat="43.58601" lon="6.42443">
        <ele>314.49</ele>
        <time>2018-09-23T09:33:26Z</time>
      </trkpt>
      <trkpt lat="43.58611" lon="6.42447">
        <ele>314.49</ele>
        <time>2018-09-23T09:33:51Z</time>
      </trkpt>
      <trkpt lat="43.58604" lon="6.42453">
        <ele>314.49</ele>
        <time>2018-09-23T09:34:20Z</time>
      </trkpt>
      <trkpt lat="43.58603" lon="6.42451">
        <ele>314.01</ele>
        <time>2018-09-23T09:34:37Z</time>
      </trkpt>
      <trkpt lat="43.58601" lon="6.42448">
        <ele>314.01</ele>
        <time>2018-09-23T09:34:52Z</time>
      </trkpt>
      <trkpt lat="43.58599" lon="6.42452">
        <ele>314.01</ele>
        <time>2018-09-23T09:35:11Z</time>
      </trkpt>
      <trkpt lat="43.58601" lon="6.42451">
        <ele>314.01</ele>
        <time>2018-09-23T09:35:29Z</time>
      </trkpt>
      <trkpt lat="43.586" lon="6.42446">
        <ele>314.49</ele>
        <time>2018-09-23T09:35:59Z</time>
      </trkpt>
      <trkpt lat="43.58609" lon="6.42446">
        <ele>314.49</ele>
        <time>2018-09-23T09:36:23Z</time>
      </trkpt>
      <trkpt lat="43.58601" lon="6.42446">
        <ele>315.45</ele>
        <time>2018-09-23T09:36:48Z</time>
      </trkpt>
      <trkpt lat="43.58598" lon="6.42446">
        <ele>314.49</ele>
        <time>2018-09-23T09:37:04Z</time>
      </trkpt>
      <trkpt lat="43.5861" lon="6.42447">
        <ele>314.97</ele>
        <time>2018-09-23T09:37:30Z</time>
      </trkpt>
      <trkpt lat="43.58608" lon="6.42452">
        <ele>314.97</ele>
        <time>2018-09-23T09:37:56Z</time>
      </trkpt>
      <trkpt lat="43.58608" lon="6.42455">
        <ele>315.45</ele>
        <time>2018-09-23T09:38:29Z</time>
      </trkpt>
      <trkpt lat="43.5861" lon="6.42454">
        <ele>315.93</ele>
        <time>2018-09-23T09:39:00Z</time>
      </trkpt>
      <trkpt lat="43.5861" lon="6.42457">
        <ele>314.97</ele>
        <time>2018-09-23T09:39:35Z</time>
      </trkpt>
      <trkpt lat="43.5861" lon="6.42449">
        <ele>315.45</ele>
        <time>2018-09-23T09:39:56Z</time>
      </trkpt>
      <trkpt lat="43.58609" lon="6.42443">
        <ele>315.93</ele>
        <time>2018-09-23T09:40:19Z</time>
      </trkpt>
      <trkpt lat="43.58607" lon="6.42442">
        <ele>315.45</ele>
        <time>2018-09-23T09:40:39Z</time>
      </trkpt>
      <trkpt lat="43.58609" lon="6.42448">
        <ele>315.93</ele>
        <time>2018-09-23T09:40:55Z</time>
      </trkpt>
      <trkpt lat="43.58608" lon="6.4245">
        <ele>315.93</ele>
        <time>2018-09-23T09:41:24Z</time>
      </trkpt>
      <trkpt lat="43.58607" lon="6.42449">
        <ele>315.93</ele>
        <time>2018-09-23T09:41:45Z</time>
      </trkpt>
      <trkpt lat="43.58606" lon="6.42453">
        <ele>315.93</ele>
        <time>2018-09-23T09:42:11Z</time>
      </trkpt>
      <trkpt lat="43.58605" lon="6.42454">
        <ele>315.45</ele>
        <time>2018-09-23T09:42:29Z</time>
      </trkpt>
      <trkpt lat="43.58607" lon="6.42452">
        <ele>315.93</ele>
        <time>2018-09-23T09:42:43Z</time>
      </trkpt>
      <trkpt lat="43.58605" lon="6.4245">
        <ele>316.41</ele>
        <time>2018-09-23T09:43:03Z</time>
      </trkpt>
      <trkpt lat="43.58612" lon="6.42448">
        <ele>315.93</ele>
        <time>2018-09-23T09:43:19Z</time>
      </trkpt>
      <trkpt lat="43.58611" lon="6.42453">
        <ele>316.41</ele>
        <time>2018-09-23T09:43:35Z</time>
      </trkpt>
      <trkpt lat="43.58607" lon="6.42453">
        <ele>315.93</ele>
        <time>2018-09-23T09:43:51Z</time>
      </trkpt>
      <trkpt lat="43.58606" lon="6.4245">
        <ele>316.41</ele>
        <time>2018-09-23T09:44:13Z</time>
      </trkpt>
      <trkpt lat="43.58609" lon="6.42448">
        <ele>316.41</ele>
        <time>2018-09-23T09:44:31Z</time>
      </trkpt>
      <trkpt lat="43.58608" lon="6.42449">
        <ele>316.41</ele>
        <time>2018-09-23T09:44:52Z</time>
      </trkpt>
      <trkpt lat="43.58606" lon="6.42449">
        <ele>315.93</ele>
        <time>2018-09-23T09:45:09Z</time>
      </trkpt>
      <trkpt lat="43.58608" lon="6.42452">
        <ele>316.41</ele>
        <time>2018-09-23T09:45:25Z</time>
      </trkpt>
      <trkpt lat="43.58607" lon="6.4245">
        <ele>317.37</ele>
        <time>2018-09-23T09:45:50Z</time>
      </trkpt>
      <trkpt lat="43.58607" lon="6.42446">
        <ele>316.89</ele>
        <time>2018-09-23T09:46:23Z</time>
      </trkpt>
      <trkpt lat="43.58608" lon="6.42443">
        <ele>316.89</ele>
        <time>2018-09-23T09:46:40Z</time>
      </trkpt>
      <trkpt lat="43.58607" lon="6.42446">
        <ele>317.85</ele>
        <time>2018-09-23T09:47:05Z</time>
      </trkpt>
      <trkpt lat="43.58613" lon="6.42454">
        <ele>316.89</ele>
        <time>2018-09-23T09:47:28Z</time>
      </trkpt>
      <trkpt lat="43.58606" lon="6.42454">
        <ele>315.93</ele>
        <time>2018-09-23T09:47:43Z</time>
      </trkpt>
      <trkpt lat="43.58605" lon="6.42451">
        <ele>316.41</ele>
        <time>2018-09-23T09:48:04Z</time>
      </trkpt>
      <trkpt lat="43.58612" lon="6.42451">
        <ele>316.89</ele>
        <time>2018-09-23T09:48:36Z</time>
      </trkpt>
      <trkpt lat="43.58606" lon="6.42449">
        <ele>316.89</ele>
        <time>2018-09-23T09:49:00Z</time>
      </trkpt>
      <trkpt lat="43.58605" lon="6.4245">
        <ele>316.89</ele>
        <time>2018-09-23T09:49:16Z</time>
      </trkpt>
      <trkpt lat="43.58607" lon="6.42453">
        <ele>316.89</ele>
        <time>2018-09-23T09:49:41Z</time>
      </trkpt>
      <trkpt lat="43.58609" lon="6.42452">
        <ele>317.85</ele>
        <time>2018-09-23T09:50:09Z</time>
      </trkpt>
      <trkpt lat="43.5861" lon="6.42452">
        <ele>317.85</ele>
        <time>2018-09-23T09:50:36Z</time>
      </trkpt>
      <trkpt lat="43.58609" lon="6.42451">
        <ele>317.85</ele>
        <time>2018-09-23T09:50:59Z</time>
      </trkpt>
      <trkpt lat="43.58607" lon="6.42452">
        <ele>317.37</ele>
        <time>2018-09-23T09:51:27Z</time>
      </trkpt>
      <trkpt lat="43.58608" lon="6.42451">
        <ele>317.85</ele>
        <time>2018-09-23T09:51:49Z</time>
      </trkpt>
      <trkpt lat="43.58611" lon="6.42453">
        <ele>317.85</ele>
        <time>2018-09-23T09:52:09Z</time>
      </trkpt>
      <trkpt lat="43.58612" lon="6.42454">
        <ele>317.85</ele>
        <time>2018-09-23T09:52:24Z</time>
      </trkpt>
      <trkpt lat="43.58612" lon="6.42454">
        <ele>317.85</ele>
        <time>2018-09-23T09:52:37Z</time>
      </trkpt>
      <trkpt lat="43.58613" lon="6.42455">
        <ele>317.85</ele>
        <time>2018-09-23T09:52:59Z</time>
      </trkpt>
      <trkpt lat="43.58612" lon="6.42449">
        <ele>317.85</ele>
        <time>2018-09-23T09:53:22Z</time>
      </trkpt>
      <trkpt lat="43.58605" lon="6.42447">
        <ele>317.85</ele>
        <time>2018-09-23T09:53:38Z</time>
      </trkpt>
      <trkpt lat="43.586" lon="6.42447">
        <ele>317.37</ele>
        <time>2018-09-23T09:53:55Z</time>
      </trkpt>
      <trkpt lat="43.58599" lon="6.42447">
        <ele>317.37</ele>
        <time>2018-09-23T09:54:24Z</time>
      </trkpt>
      <trkpt lat="43.58602" lon="6.42446">
        <ele>317.37</ele>
        <time>2018-09-23T09:54:53Z</time>
      </trkpt>
      <trkpt lat="43.58607" lon="6.42445">
        <ele>318.33</ele>
        <time>2018-09-23T09:55:06Z</time>
      </trkpt>
      <trkpt lat="43.5861" lon="6.42446">
        <ele>317.85</ele>
        <time>2018-09-23T09:55:21Z</time>
      </trkpt>
      <trkpt lat="43.58615" lon="6.42444">
        <ele>318.33</ele>
        <time>2018-09-23T09:55:37Z</time>
      </trkpt>
      <trkpt lat="43.58621" lon="6.42444">
        <ele>318.81</ele>
        <time>2018-09-23T09:56:00Z</time>
      </trkpt>
      <trkpt lat="43.58634" lon="6.42448">
        <ele>319.3</ele>
        <time>2018-09-23T09:56:11Z</time>
      </trkpt>
      <trkpt lat="43.5865" lon="6.4245">
        <ele>320.26</ele>
        <time>2018-09-23T09:56:25Z</time>
      </trkpt>
      <trkpt lat="43.58664" lon="6.42453">
        <ele>321.22</ele>
        <time>2018-09-23T09:56:39Z</time>
      </trkpt>
      <trkpt lat="43.58679" lon="6.42453">
        <ele>322.18</ele>
        <time>2018-09-23T09:56:54Z</time>
      </trkpt>
      <trkpt lat="43.58692" lon="6.42453">
        <ele>323.14</ele>
        <time>2018-09-23T09:57:07Z</time>
      </trkpt>
      <trkpt lat="43.58706" lon="6.42453">
        <ele>324.1</ele>
        <time>2018-09-23T09:57:21Z</time>
      </trkpt>
      <trkpt lat="43.58723" lon="6.42455">
        <ele>325.06</ele>
        <time>2018-09-23T09:57:35Z</time>
      </trkpt>
      <trkpt lat="43.58735" lon="6.42453">
        <ele>325.54</ele>
        <time>2018-09-23T09:57:47Z</time>
      </trkpt>
      <trkpt lat="43.58749" lon="6.42449">
        <ele>326.5</ele>
        <time>2018-09-23T09:58:00Z</time>
      </trkpt>
      <trkpt lat="43.58763" lon="6.42453">
        <ele>327.47</ele>
        <time>2018-09-23T09:58:13Z</time>
      </trkpt>
      <trkpt lat="43.58765" lon="6.42444">
        <ele>326.99</ele>
        <time>2018-09-23T09:58:29Z</time>
      </trkpt>
      <trkpt lat="43.5877" lon="6.42448">
        <ele>327.95</ele>
        <time>2018-09-23T09:58:47Z</time>
      </trkpt>
      <trkpt lat="43.58776" lon="6.42451">
        <ele>326.99</ele>
        <time>2018-09-23T09:59:05Z</time>
      </trkpt>
      <trkpt lat="43.58774" lon="6.42455">
        <ele>327.47</ele>
        <time>2018-09-23T09:59:23Z</time>
      </trkpt>
      <trkpt lat="43.58773" lon="6.42453">
        <ele>327.95</ele>
        <time>2018-09-23T09:59:39Z</time>
      </trkpt>
      <trkpt lat="43.58775" lon="6.42458">
        <ele>327.47</ele>
        <time>2018-09-23T09:59:58Z</time>
      </trkpt>
      <trkpt lat="43.58773" lon="6.42449">
        <ele>327.47</ele>
        <time>2018-09-23T10:00:18Z</time>
      </trkpt>
      <trkpt lat="43.58773" lon="6.42447">
        <ele>327.95</ele>
        <time>2018-09-23T10:00:36Z</time>
      </trkpt>
      <trkpt lat="43.58774" lon="6.42455">
        <ele>327.95</ele>
        <time>2018-09-23T10:00:50Z</time>
      </trkpt>
      <trkpt lat="43.58776" lon="6.42451">
        <ele>327.47</ele>
        <time>2018-09-23T10:01:11Z</time>
      </trkpt>
      <trkpt lat="43.58776" lon="6.42451">
        <ele>327.47</ele>
        <time>2018-09-23T10:01:34Z</time>
      </trkpt>
      <trkpt lat="43.58779" lon="6.4245">
        <ele>327.95</ele>
        <time>2018-09-23T10:01:52Z</time>
      </trkpt>
      <trkpt lat="43.58776" lon="6.42452">
        <ele>326.99</ele>
        <time>2018-09-23T10:02:28Z</time>
      </trkpt>
      <trkpt lat="43.58773" lon="6.42448">
        <ele>327.47</ele>
        <time>2018-09-23T10:03:00Z</time>
      </trkpt>
      <trkpt lat="43.58773" lon="6.42448">
        <ele>326.99</ele>
        <time>2018-09-23T10:03:26Z</time>
      </trkpt>
      <trkpt lat="43.58773" lon="6.42448">
        <ele>326.99</ele>
        <time>2018-09-23T10:03:45Z</time>
      </trkpt>
      <trkpt lat="43.58777" lon="6.42448">
        <ele>327.47</ele>
        <time>2018-09-23T10:04:04Z</time>
      </trkpt>
      <trkpt lat="43.58775" lon="6.42457">
        <ele>326.5</ele>
        <time>2018-09-23T10:04:22Z</time>
      </trkpt>
      <trkpt lat="43.58775" lon="6.4246">
        <ele>326.5</ele>
        <time>2018-09-23T10:04:24Z</time>
      </trkpt>
      <trkpt lat="43.58781" lon="6.42481">
        <ele>327.47</ele>
        <time>2018-09-23T10:04:39Z</time>
      </trkpt>
      <trkpt lat="43.58782" lon="6.42484">
        <ele>327.47</ele>
        <time>2018-09-23T10:04:41Z</time>
      </trkpt>
      <trkpt lat="43.58784" lon="6.42485">
        <ele>327.47</ele>
        <time>2018-09-23T10:04:56Z</time>
      </trkpt>
      <trkpt lat="43.58785" lon="6.42488">
        <ele>327.95</ele>
        <time>2018-09-23T10:04:58Z</time>
      </trkpt>
      <trkpt lat="43.588" lon="6.42512">
        <ele>326.99</ele>
        <time>2018-09-23T10:05:17Z</time>
      </trkpt>
      <trkpt lat="43.58804" lon="6.42518">
        <ele>326.99</ele>
        <time>2018-09-23T10:05:22Z</time>
      </trkpt>
      <trkpt lat="43.58817" lon="6.42537">
        <ele>327.95</ele>
        <time>2018-09-23T10:05:40Z</time>
      </trkpt>
      <trkpt lat="43.58819" lon="6.42541">
        <ele>327.95</ele>
        <time>2018-09-23T10:05:44Z</time>
      </trkpt>
      <trkpt lat="43.58821" lon="6.42543">
        <ele>327.47</ele>
        <time>2018-09-23T10:05:46Z</time>
      </trkpt>
      <trkpt lat="43.58831" lon="6.42555">
        <ele>327.95</ele>
        <time>2018-09-23T10:05:59Z</time>
      </trkpt>
      <trkpt lat="43.58834" lon="6.4256">
        <ele>328.43</ele>
        <time>2018-09-23T10:06:03Z</time>
      </trkpt>
      <trkpt lat="43.58836" lon="6.42563">
        <ele>328.43</ele>
        <time>2018-09-23T10:06:06Z</time>
      </trkpt>
      <trkpt lat="43.58837" lon="6.42566">
        <ele>327.95</ele>
        <time>2018-09-23T10:06:08Z</time>
      </trkpt>
      <trkpt lat="43.58842" lon="6.42589">
        <ele>328.91</ele>
        <time>2018-09-23T10:06:23Z</time>
      </trkpt>
      <trkpt lat="43.58845" lon="6.4261">
        <ele>329.39</ele>
        <time>2018-09-23T10:06:36Z</time>
      </trkpt>
      <trkpt lat="43.5885" lon="6.42634">
        <ele>330.35</ele>
        <time>2018-09-23T10:06:53Z</time>
      </trkpt>
      <trkpt lat="43.58861" lon="6.42651">
        <ele>330.83</ele>
        <time>2018-09-23T10:07:08Z</time>
      </trkpt>
      <trkpt lat="43.5887" lon="6.42657">
        <ele>330.83</ele>
        <time>2018-09-23T10:07:21Z</time>
      </trkpt>
      <trkpt lat="43.58869" lon="6.42663">
        <ele>330.83</ele>
        <time>2018-09-23T10:07:40Z</time>
      </trkpt>
      <trkpt lat="43.58873" lon="6.42661">
        <ele>330.83</ele>
        <time>2018-09-23T10:07:55Z</time>
      </trkpt>
      <trkpt lat="43.58872" lon="6.42663">
        <ele>330.83</ele>
        <time>2018-09-23T10:08:15Z</time>
      </trkpt>
      <trkpt lat="43.58875" lon="6.42664">
        <ele>330.83</ele>
        <time>2018-09-23T10:08:35Z</time>
      </trkpt>
      <trkpt lat="43.58874" lon="6.42668">
        <ele>330.83</ele>
        <time>2018-09-23T10:08:52Z</time>
      </trkpt>
      <trkpt lat="43.58875" lon="6.4267">
        <ele>331.31</ele>
        <time>2018-09-23T10:09:04Z</time>
      </trkpt>
      <trkpt lat="43.58873" lon="6.42669">
        <ele>331.79</ele>
        <time>2018-09-23T10:09:27Z</time>
      </trkpt>
      <trkpt lat="43.58875" lon="6.4267">
        <ele>331.79</ele>
        <time>2018-09-23T10:09:56Z</time>
      </trkpt>
      <trkpt lat="43.58876" lon="6.42669">
        <ele>331.79</ele>
        <time>2018-09-23T10:10:13Z</time>
      </trkpt>
      <trkpt lat="43.58873" lon="6.42671">
        <ele>331.31</ele>
        <time>2018-09-23T10:10:44Z</time>
      </trkpt>
      <trkpt lat="43.58869" lon="6.4267">
        <ele>331.31</ele>
        <time>2018-09-23T10:11:01Z</time>
      </trkpt>
      <trkpt lat="43.5887" lon="6.42671">
        <ele>331.31</ele>
        <time>2018-09-23T10:11:22Z</time>
      </trkpt>
      <trkpt lat="43.5887" lon="6.4267">
        <ele>331.31</ele>
        <time>2018-09-23T10:11:39Z</time>
      </trkpt>
      <trkpt lat="43.58871" lon="6.42667">
        <ele>331.31</ele>
        <time>2018-09-23T10:11:59Z</time>
      </trkpt>
      <trkpt lat="43.58877" lon="6.42664">
        <ele>331.31</ele>
        <time>2018-09-23T10:12:17Z</time>
      </trkpt>
      <trkpt lat="43.58873" lon="6.42665">
        <ele>331.31</ele>
        <time>2018-09-23T10:12:32Z</time>
      </trkpt>
      <trkpt lat="43.58868" lon="6.42669">
        <ele>331.79</ele>
        <time>2018-09-23T10:12:54Z</time>
      </trkpt>
      <trkpt lat="43.58875" lon="6.42667">
        <ele>331.31</ele>
        <time>2018-09-23T10:13:16Z</time>
      </trkpt>
      <trkpt lat="43.58875" lon="6.42667">
        <ele>330.83</ele>
        <time>2018-09-23T10:13:33Z</time>
      </trkpt>
      <trkpt lat="43.58872" lon="6.42673">
        <ele>331.31</ele>
        <time>2018-09-23T10:14:02Z</time>
      </trkpt>
      <trkpt lat="43.58874" lon="6.42667">
        <ele>331.31</ele>
        <time>2018-09-23T10:14:28Z</time>
      </trkpt>
      <trkpt lat="43.58871" lon="6.42669">
        <ele>330.83</ele>
        <time>2018-09-23T10:15:03Z</time>
      </trkpt>
      <trkpt lat="43.58872" lon="6.42668">
        <ele>329.87</ele>
        <time>2018-09-23T10:15:22Z</time>
      </trkpt>
      <trkpt lat="43.58875" lon="6.42664">
        <ele>329.87</ele>
        <time>2018-09-23T10:15:41Z</time>
      </trkpt>
      <trkpt lat="43.58877" lon="6.42664">
        <ele>330.83</ele>
        <time>2018-09-23T10:15:57Z</time>
      </trkpt>
      <trkpt lat="43.58873" lon="6.42668">
        <ele>330.35</ele>
        <time>2018-09-23T10:16:15Z</time>
      </trkpt>
      <trkpt lat="43.58876" lon="6.42669">
        <ele>330.83</ele>
        <time>2018-09-23T10:16:21Z</time>
      </trkpt>
      <trkpt lat="43.58883" lon="6.42675">
        <ele>330.83</ele>
        <time>2018-09-23T10:16:38Z</time>
      </trkpt>
      <trkpt lat="43.58889" lon="6.42686">
        <ele>331.31</ele>
        <time>2018-09-23T10:16:54Z</time>
      </trkpt>
      <trkpt lat="43.58897" lon="6.42699">
        <ele>332.75</ele>
        <time>2018-09-23T10:17:15Z</time>
      </trkpt>
      <trkpt lat="43.58906" lon="6.42719">
        <ele>333.23</ele>
        <time>2018-09-23T10:17:31Z</time>
      </trkpt>
      <trkpt lat="43.58916" lon="6.42734">
        <ele>333.71</ele>
        <time>2018-09-23T10:17:46Z</time>
      </trkpt>
      <trkpt lat="43.58921" lon="6.42741">
        <ele>334.2</ele>
        <time>2018-09-23T10:17:52Z</time>
      </trkpt>
      <trkpt lat="43.58933" lon="6.42768">
        <ele>334.68</ele>
        <time>2018-09-23T10:18:12Z</time>
      </trkpt>
      <trkpt lat="43.58939" lon="6.42787">
        <ele>335.64</ele>
        <time>2018-09-23T10:18:25Z</time>
      </trkpt>
      <trkpt lat="43.58939" lon="6.42811">
        <ele>336.6</ele>
        <time>2018-09-23T10:18:40Z</time>
      </trkpt>
      <trkpt lat="43.58939" lon="6.42815">
        <ele>336.6</ele>
        <time>2018-09-23T10:18:42Z</time>
      </trkpt>
      <trkpt lat="43.58943" lon="6.42827">
        <ele>336.6</ele>
        <time>2018-09-23T10:18:51Z</time>
      </trkpt>
      <trkpt lat="43.58959" lon="6.42838">
        <ele>337.08</ele>
        <time>2018-09-23T10:19:07Z</time>
      </trkpt>
      <trkpt lat="43.58978" lon="6.42856">
        <ele>339</ele>
        <time>2018-09-23T10:19:25Z</time>
      </trkpt>
      <trkpt lat="43.58985" lon="6.42871">
        <ele>339</ele>
        <time>2018-09-23T10:19:41Z</time>
      </trkpt>
      <trkpt lat="43.58979" lon="6.42863">
        <ele>339</ele>
        <time>2018-09-23T10:19:56Z</time>
      </trkpt>
      <trkpt lat="43.58978" lon="6.42863">
        <ele>339</ele>
        <time>2018-09-23T10:20:18Z</time>
      </trkpt>
      <trkpt lat="43.58981" lon="6.42862">
        <ele>339</ele>
        <time>2018-09-23T10:20:35Z</time>
      </trkpt>
      <trkpt lat="43.58982" lon="6.42861">
        <ele>336.12</ele>
        <time>2018-09-23T10:20:39Z</time>
      </trkpt>
      <trkpt lat="43.58982" lon="6.42861">
        <ele>341.41</ele>
        <time>2018-09-23T10:20:40Z</time>
      </trkpt>
      <trkpt lat="43.58983" lon="6.42859">
        <ele>338.04</ele>
        <time>2018-09-23T10:20:45Z</time>
      </trkpt>
      <trkpt lat="43.58983" lon="6.42859">
        <ele>338.52</ele>
        <time>2018-09-23T10:21:02Z</time>
      </trkpt>
      <trkpt lat="43.5898" lon="6.42863">
        <ele>339</ele>
        <time>2018-09-23T10:21:29Z</time>
      </trkpt>
      <trkpt lat="43.58981" lon="6.42861">
        <ele>338.52</ele>
        <time>2018-09-23T10:21:51Z</time>
      </trkpt>
      <trkpt lat="43.58981" lon="6.4286">
        <ele>337.08</ele>
        <time>2018-09-23T10:21:53Z</time>
      </trkpt>
      <trkpt lat="43.58981" lon="6.4286">
        <ele>340.44</ele>
        <time>2018-09-23T10:21:54Z</time>
      </trkpt>
      <trkpt lat="43.58981" lon="6.4286">
        <ele>340.44</ele>
        <time>2018-09-23T10:21:55Z</time>
      </trkpt>
      <trkpt lat="43.58981" lon="6.42861">
        <ele>338.04</ele>
        <time>2018-09-23T10:22:01Z</time>
      </trkpt>
      <trkpt lat="43.58979" lon="6.42863">
        <ele>339</ele>
        <time>2018-09-23T10:22:28Z</time>
      </trkpt>
      <trkpt lat="43.58974" lon="6.42864">
        <ele>338.52</ele>
        <time>2018-09-23T10:22:56Z</time>
      </trkpt>
      <trkpt lat="43.58979" lon="6.42862">
        <ele>339.48</ele>
        <time>2018-09-23T10:23:24Z</time>
      </trkpt>
      <trkpt lat="43.5898" lon="6.42866">
        <ele>338.52</ele>
        <time>2018-09-23T10:23:53Z</time>
      </trkpt>
      <trkpt lat="43.58992" lon="6.42868">
        <ele>339.48</ele>
        <time>2018-09-23T10:24:08Z</time>
      </trkpt>
      <trkpt lat="43.58996" lon="6.42873">
        <ele>339.96</ele>
        <time>2018-09-23T10:24:23Z</time>
      </trkpt>
      <trkpt lat="43.58994" lon="6.42872">
        <ele>339.96</ele>
        <time>2018-09-23T10:24:39Z</time>
      </trkpt>
      <trkpt lat="43.58996" lon="6.42873">
        <ele>339</ele>
        <time>2018-09-23T10:25:05Z</time>
      </trkpt>
      <trkpt lat="43.59001" lon="6.42875">
        <ele>338.52</ele>
        <time>2018-09-23T10:25:22Z</time>
      </trkpt>
      <trkpt lat="43.59001" lon="6.42878">
        <ele>338.52</ele>
        <time>2018-09-23T10:25:24Z</time>
      </trkpt>
      <trkpt lat="43.58999" lon="6.42901">
        <ele>337.08</ele>
        <time>2018-09-23T10:25:41Z</time>
      </trkpt>
      <trkpt lat="43.59005" lon="6.42918">
        <ele>335.64</ele>
        <time>2018-09-23T10:25:57Z</time>
      </trkpt>
      <trkpt lat="43.59007" lon="6.42925">
        <ele>334.68</ele>
        <time>2018-09-23T10:26:03Z</time>
      </trkpt>
      <trkpt lat="43.59009" lon="6.42929">
        <ele>334.2</ele>
        <time>2018-09-23T10:26:06Z</time>
      </trkpt>
      <trkpt lat="43.59015" lon="6.42948">
        <ele>332.75</ele>
        <time>2018-09-23T10:26:22Z</time>
      </trkpt>
      <trkpt lat="43.59017" lon="6.42957">
        <ele>333.23</ele>
        <time>2018-09-23T10:26:29Z</time>
      </trkpt>
      <trkpt lat="43.59018" lon="6.42977">
        <ele>331.31</ele>
        <time>2018-09-23T10:26:44Z</time>
      </trkpt>
      <trkpt lat="43.59019" lon="6.42993">
        <ele>330.35</ele>
        <time>2018-09-23T10:26:56Z</time>
      </trkpt>
      <trkpt lat="43.59023" lon="6.4301">
        <ele>329.39</ele>
        <time>2018-09-23T10:27:08Z</time>
      </trkpt>
      <trkpt lat="43.59026" lon="6.43024">
        <ele>327.47</ele>
        <time>2018-09-23T10:27:20Z</time>
      </trkpt>
      <trkpt lat="43.59028" lon="6.4303">
        <ele>327.47</ele>
        <time>2018-09-23T10:27:25Z</time>
      </trkpt>
      <trkpt lat="43.59033" lon="6.43047">
        <ele>325.54</ele>
        <time>2018-09-23T10:27:38Z</time>
      </trkpt>
      <trkpt lat="43.59035" lon="6.43064">
        <ele>324.58</ele>
        <time>2018-09-23T10:27:52Z</time>
      </trkpt>
      <trkpt lat="43.59038" lon="6.43072">
        <ele>324.58</ele>
        <time>2018-09-23T10:28:03Z</time>
      </trkpt>
      <trkpt lat="43.59043" lon="6.43094">
        <ele>323.14</ele>
        <time>2018-09-23T10:28:20Z</time>
      </trkpt>
      <trkpt lat="43.59046" lon="6.43105">
        <ele>324.1</ele>
        <time>2018-09-23T10:28:40Z</time>
      </trkpt>
      <trkpt lat="43.59048" lon="6.43113">
        <ele>322.18</ele>
        <time>2018-09-23T10:29:04Z</time>
      </trkpt>
      <trkpt lat="43.59046" lon="6.43107">
        <ele>323.14</ele>
        <time>2018-09-23T10:29:23Z</time>
      </trkpt>
      <trkpt lat="43.59048" lon="6.43107">
        <ele>323.14</ele>
        <time>2018-09-23T10:29:39Z</time>
      </trkpt>
      <trkpt lat="43.59049" lon="6.43104">
        <ele>322.66</ele>
        <time>2018-09-23T10:29:58Z</time>
      </trkpt>
      <trkpt lat="43.59047" lon="6.43105">
        <ele>322.66</ele>
        <time>2018-09-23T10:30:25Z</time>
      </trkpt>
      <trkpt lat="43.59054" lon="6.43109">
        <ele>322.18</ele>
        <time>2018-09-23T10:30:50Z</time>
      </trkpt>
      <trkpt lat="43.59049" lon="6.43113">
        <ele>322.18</ele>
        <time>2018-09-23T10:31:09Z</time>
      </trkpt>
      <trkpt lat="43.59045" lon="6.43123">
        <ele>321.7</ele>
        <time>2018-09-23T10:31:26Z</time>
      </trkpt>
      <trkpt lat="43.59046" lon="6.43118">
        <ele>322.66</ele>
        <time>2018-09-23T10:31:50Z</time>
      </trkpt>
      <trkpt lat="43.59047" lon="6.43117">
        <ele>322.66</ele>
        <time>2018-09-23T10:32:14Z</time>
      </trkpt>
      <trkpt lat="43.59052" lon="6.43121">
        <ele>322.18</ele>
        <time>2018-09-23T10:32:40Z</time>
      </trkpt>
      <trkpt lat="43.59047" lon="6.43121">
        <ele>321.7</ele>
        <time>2018-09-23T10:33:11Z</time>
      </trkpt>
      <trkpt lat="43.59049" lon="6.43116">
        <ele>322.66</ele>
        <time>2018-09-23T10:33:31Z</time>
      </trkpt>
      <trkpt lat="43.59043" lon="6.43117">
        <ele>322.18</ele>
        <time>2018-09-23T10:33:59Z</time>
      </trkpt>
      <trkpt lat="43.59041" lon="6.43116">
        <ele>321.7</ele>
        <time>2018-09-23T10:34:28Z</time>
      </trkpt>
      <trkpt lat="43.5905" lon="6.43118">
        <ele>321.22</ele>
        <time>2018-09-23T10:34:59Z</time>
      </trkpt>
      <trkpt lat="43.5906" lon="6.43118">
        <ele>321.7</ele>
        <time>2018-09-23T10:35:22Z</time>
      </trkpt>
      <trkpt lat="43.59059" lon="6.43119">
        <ele>321.7</ele>
        <time>2018-09-23T10:35:44Z</time>
      </trkpt>
      <trkpt lat="43.59065" lon="6.43127">
        <ele>321.22</ele>
        <time>2018-09-23T10:36:00Z</time>
      </trkpt>
      <trkpt lat="43.59071" lon="6.43141">
        <ele>320.26</ele>
        <time>2018-09-23T10:36:14Z</time>
      </trkpt>
      <trkpt lat="43.59073" lon="6.43156">
        <ele>319.78</ele>
        <time>2018-09-23T10:36:25Z</time>
      </trkpt>
      <trkpt lat="43.59073" lon="6.4316">
        <ele>319.78</ele>
        <time>2018-09-23T10:36:28Z</time>
      </trkpt>
      <trkpt lat="43.59077" lon="6.43181">
        <ele>318.33</ele>
        <time>2018-09-23T10:36:46Z</time>
      </trkpt>
      <trkpt lat="43.59079" lon="6.43191">
        <ele>317.85</ele>
        <time>2018-09-23T10:36:59Z</time>
      </trkpt>
      <trkpt lat="43.59083" lon="6.43206">
        <ele>317.37</ele>
        <time>2018-09-23T10:37:11Z</time>
      </trkpt>
      <trkpt lat="43.59086" lon="6.43222">
        <ele>315.93</ele>
        <time>2018-09-23T10:37:24Z</time>
      </trkpt>
      <trkpt lat="43.59091" lon="6.43229">
        <ele>314.97</ele>
        <time>2018-09-23T10:37:31Z</time>
      </trkpt>
      <trkpt lat="43.591" lon="6.43245">
        <ele>313.53</ele>
        <time>2018-09-23T10:37:46Z</time>
      </trkpt>
      <trkpt lat="43.59101" lon="6.43248">
        <ele>313.53</ele>
        <time>2018-09-23T10:37:49Z</time>
      </trkpt>
      <trkpt lat="43.59101" lon="6.43253">
        <ele>313.05</ele>
        <time>2018-09-23T10:37:52Z</time>
      </trkpt>
      <trkpt lat="43.59105" lon="6.43265">
        <ele>312.57</ele>
        <time>2018-09-23T10:38:01Z</time>
      </trkpt>
      <trkpt lat="43.59106" lon="6.43277">
        <ele>312.09</ele>
        <time>2018-09-23T10:38:15Z</time>
      </trkpt>
      <trkpt lat="43.59108" lon="6.43288">
        <ele>311.12</ele>
        <time>2018-09-23T10:38:26Z</time>
      </trkpt>
      <trkpt lat="43.59119" lon="6.43296">
        <ele>310.64</ele>
        <time>2018-09-23T10:38:42Z</time>
      </trkpt>
      <trkpt lat="43.59122" lon="6.43298">
        <ele>310.64</ele>
        <time>2018-09-23T10:38:53Z</time>
      </trkpt>
      <trkpt lat="43.59122" lon="6.433">
        <ele>311.12</ele>
        <time>2018-09-23T10:39:13Z</time>
      </trkpt>
      <trkpt lat="43.59124" lon="6.43298">
        <ele>310.64</ele>
        <time>2018-09-23T10:39:27Z</time>
      </trkpt>
      <trkpt lat="43.59131" lon="6.43296">
        <ele>310.64</ele>
        <time>2018-09-23T10:39:50Z</time>
      </trkpt>
      <trkpt lat="43.59124" lon="6.43296">
        <ele>310.64</ele>
        <time>2018-09-23T10:40:12Z</time>
      </trkpt>
      <trkpt lat="43.5912" lon="6.43294">
        <ele>309.68</ele>
        <time>2018-09-23T10:40:32Z</time>
      </trkpt>
      <trkpt lat="43.59124" lon="6.43297">
        <ele>310.16</ele>
        <time>2018-09-23T10:40:42Z</time>
      </trkpt>
      <trkpt lat="43.59129" lon="6.43294">
        <ele>310.16</ele>
        <time>2018-09-23T10:40:46Z</time>
      </trkpt>
      <trkpt lat="43.59135" lon="6.43289">
        <ele>310.16</ele>
        <time>2018-09-23T10:41:02Z</time>
      </trkpt>
      <trkpt lat="43.5914" lon="6.43285">
        <ele>310.64</ele>
        <time>2018-09-23T10:41:22Z</time>
      </trkpt>
      <trkpt lat="43.59144" lon="6.43286">
        <ele>310.64</ele>
        <time>2018-09-23T10:41:37Z</time>
      </trkpt>
      <trkpt lat="43.59145" lon="6.43287">
        <ele>310.64</ele>
        <time>2018-09-23T10:41:59Z</time>
      </trkpt>
      <trkpt lat="43.59143" lon="6.43286">
        <ele>310.64</ele>
        <time>2018-09-23T10:42:12Z</time>
      </trkpt>
      <trkpt lat="43.59138" lon="6.4326">
        <ele>310.64</ele>
        <time>2018-09-23T10:42:31Z</time>
      </trkpt>
      <trkpt lat="43.59134" lon="6.43236">
        <ele>311.12</ele>
        <time>2018-09-23T10:42:48Z</time>
      </trkpt>
      <trkpt lat="43.59132" lon="6.43221">
        <ele>312.09</ele>
        <time>2018-09-23T10:43:01Z</time>
      </trkpt>
      <trkpt lat="43.59129" lon="6.43205">
        <ele>312.57</ele>
        <time>2018-09-23T10:43:15Z</time>
      </trkpt>
      <trkpt lat="43.59124" lon="6.43182">
        <ele>313.53</ele>
        <time>2018-09-23T10:43:31Z</time>
      </trkpt>
      <trkpt lat="43.59121" lon="6.43155">
        <ele>314.97</ele>
        <time>2018-09-23T10:43:49Z</time>
      </trkpt>
      <trkpt lat="43.59121" lon="6.43126">
        <ele>316.89</ele>
        <time>2018-09-23T10:44:09Z</time>
      </trkpt>
      <trkpt lat="43.59121" lon="6.43112">
        <ele>316.89</ele>
        <time>2018-09-23T10:44:27Z</time>
      </trkpt>
      <trkpt lat="43.59119" lon="6.43083">
        <ele>318.33</ele>
        <time>2018-09-23T10:44:48Z</time>
      </trkpt>
      <trkpt lat="43.59118" lon="6.43074">
        <ele>318.81</ele>
        <time>2018-09-23T10:45:05Z</time>
      </trkpt>
      <trkpt lat="43.59114" lon="6.43058">
        <ele>320.26</ele>
        <time>2018-09-23T10:45:21Z</time>
      </trkpt>
      <trkpt lat="43.59113" lon="6.43036">
        <ele>321.22</ele>
        <time>2018-09-23T10:45:37Z</time>
      </trkpt>
      <trkpt lat="43.59112" lon="6.43009">
        <ele>322.18</ele>
        <time>2018-09-23T10:45:57Z</time>
      </trkpt>
      <trkpt lat="43.59112" lon="6.43006">
        <ele>322.66</ele>
        <time>2018-09-23T10:45:59Z</time>
      </trkpt>
      <trkpt lat="43.59122" lon="6.42982">
        <ele>322.66</ele>
        <time>2018-09-23T10:46:17Z</time>
      </trkpt>
      <trkpt lat="43.59135" lon="6.42969">
        <ele>323.14</ele>
        <time>2018-09-23T10:46:33Z</time>
      </trkpt>
      <trkpt lat="43.59144" lon="6.42958">
        <ele>325.06</ele>
        <time>2018-09-23T10:46:47Z</time>
      </trkpt>
      <trkpt lat="43.59145" lon="6.42941">
        <ele>325.54</ele>
        <time>2018-09-23T10:47:02Z</time>
      </trkpt>
      <trkpt lat="43.59141" lon="6.42924">
        <ele>326.5</ele>
        <time>2018-09-23T10:47:16Z</time>
      </trkpt>
      <trkpt lat="43.59137" lon="6.4291">
        <ele>327.47</ele>
        <time>2018-09-23T10:47:30Z</time>
      </trkpt>
      <trkpt lat="43.59138" lon="6.42896">
        <ele>327.95</ele>
        <time>2018-09-23T10:47:51Z</time>
      </trkpt>
      <trkpt lat="43.59134" lon="6.42894">
        <ele>327.95</ele>
        <time>2018-09-23T10:48:18Z</time>
      </trkpt>
      <trkpt lat="43.59136" lon="6.4289">
        <ele>327.95</ele>
        <time>2018-09-23T10:48:36Z</time>
      </trkpt>
      <trkpt lat="43.59138" lon="6.42872">
        <ele>329.87</ele>
        <time>2018-09-23T10:48:51Z</time>
      </trkpt>
      <trkpt lat="43.59139" lon="6.42853">
        <ele>330.35</ele>
        <time>2018-09-23T10:49:07Z</time>
      </trkpt>
      <trkpt lat="43.59139" lon="6.42831">
        <ele>332.27</ele>
        <time>2018-09-23T10:49:26Z</time>
      </trkpt>
      <trkpt lat="43.59136" lon="6.42815">
        <ele>332.75</ele>
        <time>2018-09-23T10:49:38Z</time>
      </trkpt>
      <trkpt lat="43.59136" lon="6.42813">
        <ele>332.27</ele>
        <time>2018-09-23T10:49:40Z</time>
      </trkpt>
      <trkpt lat="43.59135" lon="6.42789">
        <ele>333.71</ele>
        <time>2018-09-23T10:49:58Z</time>
      </trkpt>
      <trkpt lat="43.59134" lon="6.42766">
        <ele>334.68</ele>
        <time>2018-09-23T10:50:15Z</time>
      </trkpt>
      <trkpt lat="43.59129" lon="6.42746">
        <ele>336.12</ele>
        <time>2018-09-23T10:50:32Z</time>
      </trkpt>
      <trkpt lat="43.59119" lon="6.42732">
        <ele>337.08</ele>
        <time>2018-09-23T10:50:48Z</time>
      </trkpt>
      <trkpt lat="43.59112" lon="6.42714">
        <ele>338.04</ele>
        <time>2018-09-23T10:51:06Z</time>
      </trkpt>
      <trkpt lat="43.5911" lon="6.42711">
        <ele>338.04</ele>
        <time>2018-09-23T10:51:24Z</time>
      </trkpt>
      <trkpt lat="43.59114" lon="6.42708">
        <ele>338.52</ele>
        <time>2018-09-23T10:51:46Z</time>
      </trkpt>
      <trkpt lat="43.59114" lon="6.42708">
        <ele>338.52</ele>
        <time>2018-09-23T10:52:06Z</time>
      </trkpt>
      <trkpt lat="43.59115" lon="6.42708">
        <ele>338.52</ele>
        <time>2018-09-23T10:52:27Z</time>
      </trkpt>
      <trkpt lat="43.5912" lon="6.42708">
        <ele>338.52</ele>
        <time>2018-09-23T10:52:50Z</time>
      </trkpt>
      <trkpt lat="43.59118" lon="6.42701">
        <ele>338.52</ele>
        <time>2018-09-23T10:53:28Z</time>
      </trkpt>
      <trkpt lat="43.59117" lon="6.42704">
        <ele>339</ele>
        <time>2018-09-23T10:53:54Z</time>
      </trkpt>
      <trkpt lat="43.59112" lon="6.42706">
        <ele>339.48</ele>
        <time>2018-09-23T10:54:22Z</time>
      </trkpt>
      <trkpt lat="43.5911" lon="6.42702">
        <ele>339</ele>
        <time>2018-09-23T10:54:40Z</time>
      </trkpt>
      <trkpt lat="43.59111" lon="6.42704">
        <ele>339.48</ele>
        <time>2018-09-23T10:55:02Z</time>
      </trkpt>
      <trkpt lat="43.59111" lon="6.42709">
        <ele>338.52</ele>
        <time>2018-09-23T10:55:31Z</time>
      </trkpt>
      <trkpt lat="43.5911" lon="6.42709">
        <ele>339.96</ele>
        <time>2018-09-23T10:55:55Z</time>
      </trkpt>
      <trkpt lat="43.59112" lon="6.42712">
        <ele>340.44</ele>
        <time>2018-09-23T10:56:13Z</time>
      </trkpt>
      <trkpt lat="43.59116" lon="6.42715">
        <ele>339.96</ele>
        <time>2018-09-23T10:56:31Z</time>
      </trkpt>
      <trkpt lat="43.59119" lon="6.42715">
        <ele>340.44</ele>
        <time>2018-09-23T10:56:58Z</time>
      </trkpt>
      <trkpt lat="43.59123" lon="6.42721">
        <ele>340.92</ele>
        <time>2018-09-23T10:57:21Z</time>
      </trkpt>
      <trkpt lat="43.59134" lon="6.42733">
        <ele>342.37</ele>
        <time>2018-09-23T10:57:39Z</time>
      </trkpt>
      <trkpt lat="43.5914" lon="6.42744">
        <ele>341.89</ele>
        <time>2018-09-23T10:57:54Z</time>
      </trkpt>
      <trkpt lat="43.59146" lon="6.42773">
        <ele>343.33</ele>
        <time>2018-09-23T10:58:12Z</time>
      </trkpt>
      <trkpt lat="43.59149" lon="6.42791">
        <ele>344.77</ele>
        <time>2018-09-23T10:58:26Z</time>
      </trkpt>
      <trkpt lat="43.59154" lon="6.42807">
        <ele>345.25</ele>
        <time>2018-09-23T10:58:40Z</time>
      </trkpt>
      <trkpt lat="43.59159" lon="6.42828">
        <ele>346.69</ele>
        <time>2018-09-23T10:58:57Z</time>
      </trkpt>
      <trkpt lat="43.59161" lon="6.42844">
        <ele>347.65</ele>
        <time>2018-09-23T10:59:12Z</time>
      </trkpt>
      <trkpt lat="43.59163" lon="6.42864">
        <ele>349.1</ele>
        <time>2018-09-23T10:59:29Z</time>
      </trkpt>
      <trkpt lat="43.59166" lon="6.42884">
        <ele>350.54</ele>
        <time>2018-09-23T10:59:46Z</time>
      </trkpt>
      <trkpt lat="43.59171" lon="6.4289">
        <ele>351.02</ele>
        <time>2018-09-23T11:00:07Z</time>
      </trkpt>
      <trkpt lat="43.59173" lon="6.42892">
        <ele>350.06</ele>
        <time>2018-09-23T11:00:43Z</time>
      </trkpt>
      <trkpt lat="43.59175" lon="6.42894">
        <ele>351.02</ele>
        <time>2018-09-23T11:01:12Z</time>
      </trkpt>
      <trkpt lat="43.59178" lon="6.42905">
        <ele>350.54</ele>
        <time>2018-09-23T11:01:25Z</time>
      </trkpt>
      <trkpt lat="43.59186" lon="6.42923">
        <ele>352.46</ele>
        <time>2018-09-23T11:01:41Z</time>
      </trkpt>
      <trkpt lat="43.59192" lon="6.42939">
        <ele>351.98</ele>
        <time>2018-09-23T11:01:56Z</time>
      </trkpt>
      <trkpt lat="43.59193" lon="6.42959">
        <ele>353.42</ele>
        <time>2018-09-23T11:02:12Z</time>
      </trkpt>
      <trkpt lat="43.59189" lon="6.42977">
        <ele>353.9</ele>
        <time>2018-09-23T11:02:26Z</time>
      </trkpt>
      <trkpt lat="43.59192" lon="6.42978">
        <ele>353.42</ele>
        <time>2018-09-23T11:02:40Z</time>
      </trkpt>
      <trkpt lat="43.59192" lon="6.42975">
        <ele>353.42</ele>
        <time>2018-09-23T11:03:02Z</time>
      </trkpt>
      <trkpt lat="43.59189" lon="6.42973">
        <ele>352.46</ele>
        <time>2018-09-23T11:03:16Z</time>
      </trkpt>
      <trkpt lat="43.59188" lon="6.4297">
        <ele>352.94</ele>
        <time>2018-09-23T11:03:32Z</time>
      </trkpt>
      <trkpt lat="43.59188" lon="6.42968">
        <ele>352.94</ele>
        <time>2018-09-23T11:03:59Z</time>
      </trkpt>
      <trkpt lat="43.59193" lon="6.42968">
        <ele>352.94</ele>
        <time>2018-09-23T11:04:20Z</time>
      </trkpt>
      <trkpt lat="43.59192" lon="6.42963">
        <ele>352.94</ele>
        <time>2018-09-23T11:04:46Z</time>
      </trkpt>
      <trkpt lat="43.59194" lon="6.42971">
        <ele>352.94</ele>
        <time>2018-09-23T11:05:17Z</time>
      </trkpt>
      <trkpt lat="43.59193" lon="6.42969">
        <ele>352.94</ele>
        <time>2018-09-23T11:05:48Z</time>
      </trkpt>
      <trkpt lat="43.5919" lon="6.42967">
        <ele>352.94</ele>
        <time>2018-09-23T11:06:24Z</time>
      </trkpt>
      <trkpt lat="43.59189" lon="6.42962">
        <ele>352.46</ele>
        <time>2018-09-23T11:06:44Z</time>
      </trkpt>
      <trkpt lat="43.59188" lon="6.42962">
        <ele>353.42</ele>
        <time>2018-09-23T11:07:06Z</time>
      </trkpt>
      <trkpt lat="43.59186" lon="6.42965">
        <ele>353.42</ele>
        <time>2018-09-23T11:07:33Z</time>
      </trkpt>
      <trkpt lat="43.59187" lon="6.42963">
        <ele>353.42</ele>
        <time>2018-09-23T11:07:51Z</time>
      </trkpt>
      <trkpt lat="43.59191" lon="6.42961">
        <ele>353.42</ele>
        <time>2018-09-23T11:08:15Z</time>
      </trkpt>
      <trkpt lat="43.59193" lon="6.42969">
        <ele>353.9</ele>
        <time>2018-09-23T11:08:35Z</time>
      </trkpt>
      <trkpt lat="43.5919" lon="6.42972">
        <ele>353.9</ele>
        <time>2018-09-23T11:09:02Z</time>
      </trkpt>
      <trkpt lat="43.59186" lon="6.42974">
        <ele>353.9</ele>
        <time>2018-09-23T11:09:30Z</time>
      </trkpt>
      <trkpt lat="43.59191" lon="6.42978">
        <ele>354.38</ele>
        <time>2018-09-23T11:09:55Z</time>
      </trkpt>
      <trkpt lat="43.59185" lon="6.42976">
        <ele>353.9</ele>
        <time>2018-09-23T11:10:12Z</time>
      </trkpt>
      <trkpt lat="43.59186" lon="6.4298">
        <ele>354.38</ele>
        <time>2018-09-23T11:10:35Z</time>
      </trkpt>
      <trkpt lat="43.59179" lon="6.42988">
        <ele>354.38</ele>
        <time>2018-09-23T11:10:47Z</time>
      </trkpt>
      <trkpt lat="43.59168" lon="6.43003">
        <ele>353.9</ele>
        <time>2018-09-23T11:11:03Z</time>
      </trkpt>
      <trkpt lat="43.59164" lon="6.43022">
        <ele>355.34</ele>
        <time>2018-09-23T11:11:18Z</time>
      </trkpt>
      <trkpt lat="43.59168" lon="6.43041">
        <ele>356.79</ele>
        <time>2018-09-23T11:11:33Z</time>
      </trkpt>
      <trkpt lat="43.59174" lon="6.43061">
        <ele>356.79</ele>
        <time>2018-09-23T11:11:48Z</time>
      </trkpt>
      <trkpt lat="43.5918" lon="6.43079">
        <ele>357.27</ele>
        <time>2018-09-23T11:12:04Z</time>
      </trkpt>
      <trkpt lat="43.59187" lon="6.43101">
        <ele>357.75</ele>
        <time>2018-09-23T11:12:20Z</time>
      </trkpt>
      <trkpt lat="43.59192" lon="6.43124">
        <ele>358.23</ele>
        <time>2018-09-23T11:12:38Z</time>
      </trkpt>
      <trkpt lat="43.59199" lon="6.43145">
        <ele>359.67</ele>
        <time>2018-09-23T11:12:54Z</time>
      </trkpt>
      <trkpt lat="43.59208" lon="6.43164">
        <ele>360.63</ele>
        <time>2018-09-23T11:13:11Z</time>
      </trkpt>
      <trkpt lat="43.59217" lon="6.43184">
        <ele>360.63</ele>
        <time>2018-09-23T11:13:28Z</time>
      </trkpt>
      <trkpt lat="43.59215" lon="6.43179">
        <ele>361.11</ele>
        <time>2018-09-23T11:13:43Z</time>
      </trkpt>
      <trkpt lat="43.59217" lon="6.43187">
        <ele>360.15</ele>
        <time>2018-09-23T11:13:59Z</time>
      </trkpt>
      <trkpt lat="43.59217" lon="6.43195">
        <ele>360.63</ele>
        <time>2018-09-23T11:14:14Z</time>
      </trkpt>
      <trkpt lat="43.59218" lon="6.4319">
        <ele>361.11</ele>
        <time>2018-09-23T11:14:27Z</time>
      </trkpt>
      <trkpt lat="43.5922" lon="6.43187">
        <ele>361.11</ele>
        <time>2018-09-23T11:14:44Z</time>
      </trkpt>
      <trkpt lat="43.5922" lon="6.43191">
        <ele>361.11</ele>
        <time>2018-09-23T11:15:09Z</time>
      </trkpt>
      <trkpt lat="43.59225" lon="6.43192">
        <ele>360.63</ele>
        <time>2018-09-23T11:15:31Z</time>
      </trkpt>
      <trkpt lat="43.59221" lon="6.43192">
        <ele>360.63</ele>
        <time>2018-09-23T11:15:55Z</time>
      </trkpt>
      <trkpt lat="43.59219" lon="6.43188">
        <ele>360.63</ele>
        <time>2018-09-23T11:16:20Z</time>
      </trkpt>
      <trkpt lat="43.59221" lon="6.43187">
        <ele>361.59</ele>
        <time>2018-09-23T11:16:41Z</time>
      </trkpt>
      <trkpt lat="43.5922" lon="6.43184">
        <ele>361.11</ele>
        <time>2018-09-23T11:17:04Z</time>
      </trkpt>
      <trkpt lat="43.59219" lon="6.43195">
        <ele>360.63</ele>
        <time>2018-09-23T11:17:20Z</time>
      </trkpt>
      <trkpt lat="43.59217" lon="6.43202">
        <ele>360.63</ele>
        <time>2018-09-23T11:17:35Z</time>
      </trkpt>
      <trkpt lat="43.59212" lon="6.43225">
        <ele>361.59</ele>
        <time>2018-09-23T11:17:54Z</time>
      </trkpt>
      <trkpt lat="43.59211" lon="6.43231">
        <ele>362.07</ele>
        <time>2018-09-23T11:17:59Z</time>
      </trkpt>
      <trkpt lat="43.59212" lon="6.43254">
        <ele>363.04</ele>
        <time>2018-09-23T11:18:18Z</time>
      </trkpt>
      <trkpt lat="43.59214" lon="6.43276">
        <ele>364</ele>
        <time>2018-09-23T11:18:35Z</time>
      </trkpt>
      <trkpt lat="43.59217" lon="6.43301">
        <ele>364.48</ele>
        <time>2018-09-23T11:18:54Z</time>
      </trkpt>
      <trkpt lat="43.59219" lon="6.43305">
        <ele>364.48</ele>
        <time>2018-09-23T11:18:57Z</time>
      </trkpt>
      <trkpt lat="43.59234" lon="6.43325">
        <ele>364.48</ele>
        <time>2018-09-23T11:19:16Z</time>
      </trkpt>
      <trkpt lat="43.59245" lon="6.43344">
        <ele>365.44</ele>
        <time>2018-09-23T11:19:34Z</time>
      </trkpt>
      <trkpt lat="43.59259" lon="6.4336">
        <ele>365.44</ele>
        <time>2018-09-23T11:19:52Z</time>
      </trkpt>
      <trkpt lat="43.59271" lon="6.43366">
        <ele>366.4</ele>
        <time>2018-09-23T11:20:07Z</time>
      </trkpt>
      <trkpt lat="43.59282" lon="6.43378">
        <ele>366.4</ele>
        <time>2018-09-23T11:20:23Z</time>
      </trkpt>
      <trkpt lat="43.59291" lon="6.43396">
        <ele>367.84</ele>
        <time>2018-09-23T11:20:40Z</time>
      </trkpt>
      <trkpt lat="43.59302" lon="6.43417">
        <ele>368.8</ele>
        <time>2018-09-23T11:20:58Z</time>
      </trkpt>
      <trkpt lat="43.5931" lon="6.43433">
        <ele>369.28</ele>
        <time>2018-09-23T11:21:14Z</time>
      </trkpt>
      <trkpt lat="43.59317" lon="6.43443">
        <ele>369.28</ele>
        <time>2018-09-23T11:21:27Z</time>
      </trkpt>
      <trkpt lat="43.5932" lon="6.43448">
        <ele>369.28</ele>
        <time>2018-09-23T11:21:45Z</time>
      </trkpt>
      <trkpt lat="43.59319" lon="6.43446">
        <ele>369.76</ele>
        <time>2018-09-23T11:22:04Z</time>
      </trkpt>
      <trkpt lat="43.59315" lon="6.43446">
        <ele>369.28</ele>
        <time>2018-09-23T11:22:28Z</time>
      </trkpt>
      <trkpt lat="43.59316" lon="6.43444">
        <ele>369.28</ele>
        <time>2018-09-23T11:22:57Z</time>
      </trkpt>
      <trkpt lat="43.59315" lon="6.43439">
        <ele>369.76</ele>
        <time>2018-09-23T11:23:06Z</time>
      </trkpt>
      <trkpt lat="43.59313" lon="6.43436">
        <ele>369.76</ele>
        <time>2018-09-23T11:23:20Z</time>
      </trkpt>
      <trkpt lat="43.59316" lon="6.43446">
        <ele>369.28</ele>
        <time>2018-09-23T11:23:35Z</time>
      </trkpt>
      <trkpt lat="43.59316" lon="6.43443">
        <ele>369.76</ele>
        <time>2018-09-23T11:23:51Z</time>
      </trkpt>
      <trkpt lat="43.59315" lon="6.43446">
        <ele>369.28</ele>
        <time>2018-09-23T11:24:16Z</time>
      </trkpt>
      <trkpt lat="43.59317" lon="6.43447">
        <ele>369.76</ele>
        <time>2018-09-23T11:24:29Z</time>
      </trkpt>
      <trkpt lat="43.5931" lon="6.43437">
        <ele>369.28</ele>
        <time>2018-09-23T11:24:50Z</time>
      </trkpt>
      <trkpt lat="43.59312" lon="6.43433">
        <ele>368.8</ele>
        <time>2018-09-23T11:25:05Z</time>
      </trkpt>
      <trkpt lat="43.59316" lon="6.43433">
        <ele>369.28</ele>
        <time>2018-09-23T11:25:26Z</time>
      </trkpt>
      <trkpt lat="43.59313" lon="6.43433">
        <ele>368.32</ele>
        <time>2018-09-23T11:25:58Z</time>
      </trkpt>
      <trkpt lat="43.59313" lon="6.43437">
        <ele>369.28</ele>
        <time>2018-09-23T11:26:23Z</time>
      </trkpt>
      <trkpt lat="43.59312" lon="6.43442">
        <ele>368.8</ele>
        <time>2018-09-23T11:26:50Z</time>
      </trkpt>
      <trkpt lat="43.59311" lon="6.43437">
        <ele>368.8</ele>
        <time>2018-09-23T11:27:06Z</time>
      </trkpt>
      <trkpt lat="43.59312" lon="6.43436">
        <ele>368.8</ele>
        <time>2018-09-23T11:27:26Z</time>
      </trkpt>
      <trkpt lat="43.59314" lon="6.43437">
        <ele>368.8</ele>
        <time>2018-09-23T11:27:49Z</time>
      </trkpt>
      <trkpt lat="43.59317" lon="6.43441">
        <ele>369.28</ele>
        <time>2018-09-23T11:28:12Z</time>
      </trkpt>
      <trkpt lat="43.5932" lon="6.43446">
        <ele>369.76</ele>
        <time>2018-09-23T11:28:28Z</time>
      </trkpt>
      <trkpt lat="43.59319" lon="6.43449">
        <ele>369.28</ele>
        <time>2018-09-23T11:28:51Z</time>
      </trkpt>
      <trkpt lat="43.59318" lon="6.43453">
        <ele>370.24</ele>
        <time>2018-09-23T11:29:22Z</time>
      </trkpt>
      <trkpt lat="43.59319" lon="6.43452">
        <ele>369.76</ele>
        <time>2018-09-23T11:29:47Z</time>
      </trkpt>
      <trkpt lat="43.59318" lon="6.43446">
        <ele>369.28</ele>
        <time>2018-09-23T11:30:05Z</time>
      </trkpt>
      <trkpt lat="43.59315" lon="6.43445">
        <ele>369.28</ele>
        <time>2018-09-23T11:30:26Z</time>
      </trkpt>
      <trkpt lat="43.59319" lon="6.43446">
        <ele>369.76</ele>
        <time>2018-09-23T11:30:42Z</time>
      </trkpt>
      <trkpt lat="43.59317" lon="6.43446">
        <ele>369.28</ele>
        <time>2018-09-23T11:31:05Z</time>
      </trkpt>
      <trkpt lat="43.59325" lon="6.43455">
        <ele>369.76</ele>
        <time>2018-09-23T11:31:21Z</time>
      </trkpt>
      <trkpt lat="43.59342" lon="6.43474">
        <ele>370.73</ele>
        <time>2018-09-23T11:31:43Z</time>
      </trkpt>
      <trkpt lat="43.59348" lon="6.43482">
        <ele>370.73</ele>
        <time>2018-09-23T11:31:51Z</time>
      </trkpt>
      <trkpt lat="43.59365" lon="6.43504">
        <ele>373.13</ele>
        <time>2018-09-23T11:32:13Z</time>
      </trkpt>
      <trkpt lat="43.59383" lon="6.43525">
        <ele>372.65</ele>
        <time>2018-09-23T11:32:36Z</time>
      </trkpt>
      <trkpt lat="43.59395" lon="6.43546">
        <ele>373.61</ele>
        <time>2018-09-23T11:32:54Z</time>
      </trkpt>
      <trkpt lat="43.59403" lon="6.4356">
        <ele>374.09</ele>
        <time>2018-09-23T11:33:08Z</time>
      </trkpt>
      <trkpt lat="43.59413" lon="6.43578">
        <ele>375.05</ele>
        <time>2018-09-23T11:33:31Z</time>
      </trkpt>
      <trkpt lat="43.59411" lon="6.43575">
        <ele>374.57</ele>
        <time>2018-09-23T11:33:46Z</time>
      </trkpt>
      <trkpt lat="43.59409" lon="6.43575">
        <ele>374.57</ele>
        <time>2018-09-23T11:34:05Z</time>
      </trkpt>
      <trkpt lat="43.59411" lon="6.43579">
        <ele>374.57</ele>
        <time>2018-09-23T11:34:17Z</time>
      </trkpt>
      <trkpt lat="43.59421" lon="6.43586">
        <ele>375.53</ele>
        <time>2018-09-23T11:34:34Z</time>
      </trkpt>
      <trkpt lat="43.59418" lon="6.43589">
        <ele>375.05</ele>
        <time>2018-09-23T11:34:55Z</time>
      </trkpt>
      <trkpt lat="43.59417" lon="6.43589">
        <ele>376.97</ele>
        <time>2018-09-23T11:35:09Z</time>
      </trkpt>
      <trkpt lat="43.59416" lon="6.43586">
        <ele>375.53</ele>
        <time>2018-09-23T11:35:37Z</time>
      </trkpt>
      <trkpt lat="43.59419" lon="6.43585">
        <ele>376.01</ele>
        <time>2018-09-23T11:35:56Z</time>
      </trkpt>
      <trkpt lat="43.59419" lon="6.43582">
        <ele>376.49</ele>
        <time>2018-09-23T11:36:11Z</time>
      </trkpt>
      <trkpt lat="43.59422" lon="6.43586">
        <ele>376.01</ele>
        <time>2018-09-23T11:36:41Z</time>
      </trkpt>
      <trkpt lat="43.5942" lon="6.43584">
        <ele>376.01</ele>
        <time>2018-09-23T11:37:19Z</time>
      </trkpt>
      <trkpt lat="43.59423" lon="6.43584">
        <ele>375.53</ele>
        <time>2018-09-23T11:37:48Z</time>
      </trkpt>
      <trkpt lat="43.5942" lon="6.43585">
        <ele>376.01</ele>
        <time>2018-09-23T11:38:16Z</time>
      </trkpt>
      <trkpt lat="43.59419" lon="6.43586">
        <ele>375.05</ele>
        <time>2018-09-23T11:38:28Z</time>
      </trkpt>
      <trkpt lat="43.59419" lon="6.43586">
        <ele>376.49</ele>
        <time>2018-09-23T11:38:30Z</time>
      </trkpt>
      <trkpt lat="43.5942" lon="6.4359">
        <ele>376.01</ele>
        <time>2018-09-23T11:38:55Z</time>
      </trkpt>
      <trkpt lat="43.59421" lon="6.43587">
        <ele>376.01</ele>
        <time>2018-09-23T11:39:18Z</time>
      </trkpt>
      <trkpt lat="43.59421" lon="6.43588">
        <ele>376.01</ele>
        <time>2018-09-23T11:39:37Z</time>
      </trkpt>
      <trkpt lat="43.59425" lon="6.43591">
        <ele>376.01</ele>
        <time>2018-09-23T11:39:54Z</time>
      </trkpt>
      <trkpt lat="43.59429" lon="6.43596">
        <ele>376.01</ele>
        <time>2018-09-23T11:40:10Z</time>
      </trkpt>
      <trkpt lat="43.59442" lon="6.43602">
        <ele>376.97</ele>
        <time>2018-09-23T11:40:28Z</time>
      </trkpt>
      <trkpt lat="43.59451" lon="6.43604">
        <ele>377.94</ele>
        <time>2018-09-23T11:40:46Z</time>
      </trkpt>
      <trkpt lat="43.5947" lon="6.43611">
        <ele>378.42</ele>
        <time>2018-09-23T11:41:02Z</time>
      </trkpt>
      <trkpt lat="43.5948" lon="6.43619">
        <ele>378.42</ele>
        <time>2018-09-23T11:41:19Z</time>
      </trkpt>
      <trkpt lat="43.59484" lon="6.43627">
        <ele>378.42</ele>
        <time>2018-09-23T11:41:33Z</time>
      </trkpt>
      <trkpt lat="43.59483" lon="6.43654">
        <ele>379.86</ele>
        <time>2018-09-23T11:41:53Z</time>
      </trkpt>
      <trkpt lat="43.59481" lon="6.43677">
        <ele>380.82</ele>
        <time>2018-09-23T11:42:10Z</time>
      </trkpt>
      <trkpt lat="43.59481" lon="6.43694">
        <ele>382.26</ele>
        <time>2018-09-23T11:42:27Z</time>
      </trkpt>
      <trkpt lat="43.59482" lon="6.43702">
        <ele>382.74</ele>
        <time>2018-09-23T11:42:39Z</time>
      </trkpt>
      <trkpt lat="43.59487" lon="6.4373">
        <ele>384.66</ele>
        <time>2018-09-23T11:42:58Z</time>
      </trkpt>
      <trkpt lat="43.59494" lon="6.43754">
        <ele>386.11</ele>
        <time>2018-09-23T11:43:17Z</time>
      </trkpt>
      <trkpt lat="43.59501" lon="6.43774">
        <ele>386.59</ele>
        <time>2018-09-23T11:43:33Z</time>
      </trkpt>
      <trkpt lat="43.59507" lon="6.43798">
        <ele>388.51</ele>
        <time>2018-09-23T11:43:52Z</time>
      </trkpt>
      <trkpt lat="43.59512" lon="6.43816">
        <ele>389.47</ele>
        <time>2018-09-23T11:44:09Z</time>
      </trkpt>
      <trkpt lat="43.59519" lon="6.43827">
        <ele>389.95</ele>
        <time>2018-09-23T11:44:28Z</time>
      </trkpt>
      <trkpt lat="43.5952" lon="6.43831">
        <ele>389.95</ele>
        <time>2018-09-23T11:44:43Z</time>
      </trkpt>
      <trkpt lat="43.59517" lon="6.4383">
        <ele>388.99</ele>
        <time>2018-09-23T11:45:03Z</time>
      </trkpt>
      <trkpt lat="43.59518" lon="6.43831">
        <ele>390.43</ele>
        <time>2018-09-23T11:45:07Z</time>
      </trkpt>
      <trkpt lat="43.59521" lon="6.43832">
        <ele>389.95</ele>
        <time>2018-09-23T11:45:40Z</time>
      </trkpt>
      <trkpt lat="43.5952" lon="6.43829">
        <ele>389.95</ele>
        <time>2018-09-23T11:46:11Z</time>
      </trkpt>
      <trkpt lat="43.59519" lon="6.43829">
        <ele>389.95</ele>
        <time>2018-09-23T11:46:37Z</time>
      </trkpt>
      <trkpt lat="43.59517" lon="6.43834">
        <ele>389.95</ele>
        <time>2018-09-23T11:47:01Z</time>
      </trkpt>
      <trkpt lat="43.59517" lon="6.43832">
        <ele>389.95</ele>
        <time>2018-09-23T11:47:38Z</time>
      </trkpt>
      <trkpt lat="43.59518" lon="6.43832">
        <ele>389.95</ele>
        <time>2018-09-23T11:48:02Z</time>
      </trkpt>
      <trkpt lat="43.59517" lon="6.43831">
        <ele>389.47</ele>
        <time>2018-09-23T11:48:30Z</time>
      </trkpt>
      <trkpt lat="43.59519" lon="6.43832">
        <ele>389.95</ele>
        <time>2018-09-23T11:48:59Z</time>
      </trkpt>
      <trkpt lat="43.59521" lon="6.43833">
        <ele>389.95</ele>
        <time>2018-09-23T11:49:16Z</time>
      </trkpt>
      <trkpt lat="43.59529" lon="6.43848">
        <ele>390.91</ele>
        <time>2018-09-23T11:49:32Z</time>
      </trkpt>
      <trkpt lat="43.59544" lon="6.43861">
        <ele>391.87</ele>
        <time>2018-09-23T11:49:51Z</time>
      </trkpt>
      <trkpt lat="43.59554" lon="6.43875">
        <ele>393.8</ele>
        <time>2018-09-23T11:50:04Z</time>
      </trkpt>
      <trkpt lat="43.59566" lon="6.43892">
        <ele>394.76</ele>
        <time>2018-09-23T11:50:21Z</time>
      </trkpt>
      <trkpt lat="43.59572" lon="6.4391">
        <ele>395.24</ele>
        <time>2018-09-23T11:50:38Z</time>
      </trkpt>
      <trkpt lat="43.59581" lon="6.43935">
        <ele>397.16</ele>
        <time>2018-09-23T11:50:57Z</time>
      </trkpt>
      <trkpt lat="43.59592" lon="6.43953">
        <ele>398.12</ele>
        <time>2018-09-23T11:51:11Z</time>
      </trkpt>
      <trkpt lat="43.596" lon="6.43974">
        <ele>400.05</ele>
        <time>2018-09-23T11:51:27Z</time>
      </trkpt>
      <trkpt lat="43.59607" lon="6.43995">
        <ele>400.53</ele>
        <time>2018-09-23T11:51:43Z</time>
      </trkpt>
      <trkpt lat="43.59614" lon="6.4401">
        <ele>401.01</ele>
        <time>2018-09-23T11:51:59Z</time>
      </trkpt>
      <trkpt lat="43.59619" lon="6.44019">
        <ele>402.93</ele>
        <time>2018-09-23T11:52:10Z</time>
      </trkpt>
      <trkpt lat="43.59638" lon="6.44042">
        <ele>403.89</ele>
        <time>2018-09-23T11:52:31Z</time>
      </trkpt>
      <trkpt lat="43.5965" lon="6.44056">
        <ele>404.37</ele>
        <time>2018-09-23T11:52:49Z</time>
      </trkpt>
      <trkpt lat="43.59647" lon="6.44059">
        <ele>403.89</ele>
        <time>2018-09-23T11:53:13Z</time>
      </trkpt>
      <trkpt lat="43.59648" lon="6.44058">
        <ele>403.89</ele>
        <time>2018-09-23T11:53:31Z</time>
      </trkpt>
      <trkpt lat="43.59649" lon="6.44058">
        <ele>404.37</ele>
        <time>2018-09-23T11:53:53Z</time>
      </trkpt>
      <trkpt lat="43.59654" lon="6.44063">
        <ele>404.85</ele>
        <time>2018-09-23T11:54:12Z</time>
      </trkpt>
      <trkpt lat="43.59654" lon="6.44062">
        <ele>405.33</ele>
        <time>2018-09-23T11:54:32Z</time>
      </trkpt>
      <trkpt lat="43.59656" lon="6.44065">
        <ele>404.37</ele>
        <time>2018-09-23T11:54:54Z</time>
      </trkpt>
      <trkpt lat="43.59655" lon="6.44065">
        <ele>404.85</ele>
        <time>2018-09-23T11:55:23Z</time>
      </trkpt>
      <trkpt lat="43.59654" lon="6.44066">
        <ele>404.37</ele>
        <time>2018-09-23T11:55:47Z</time>
      </trkpt>
      <trkpt lat="43.59656" lon="6.44067">
        <ele>404.85</ele>
        <time>2018-09-23T11:56:09Z</time>
      </trkpt>
      <trkpt lat="43.59656" lon="6.44064">
        <ele>404.85</ele>
        <time>2018-09-23T11:56:34Z</time>
      </trkpt>
      <trkpt lat="43.59657" lon="6.4406">
        <ele>404.85</ele>
        <time>2018-09-23T11:56:57Z</time>
      </trkpt>
      <trkpt lat="43.59659" lon="6.44069">
        <ele>405.33</ele>
        <time>2018-09-23T11:57:14Z</time>
      </trkpt>
      <trkpt lat="43.59661" lon="6.44074">
        <ele>404.85</ele>
        <time>2018-09-23T11:57:18Z</time>
      </trkpt>
      <trkpt lat="43.59663" lon="6.44081">
        <ele>405.33</ele>
        <time>2018-09-23T11:57:35Z</time>
      </trkpt>
      <trkpt lat="43.59662" lon="6.44081">
        <ele>404.85</ele>
        <time>2018-09-23T11:57:51Z</time>
      </trkpt>
      <trkpt lat="43.59662" lon="6.4408">
        <ele>405.33</ele>
        <time>2018-09-23T11:58:15Z</time>
      </trkpt>
      <trkpt lat="43.59661" lon="6.44079">
        <ele>405.33</ele>
        <time>2018-09-23T11:58:40Z</time>
      </trkpt>
      <trkpt lat="43.5966" lon="6.44081">
        <ele>404.37</ele>
        <time>2018-09-23T11:58:49Z</time>
      </trkpt>
      <trkpt lat="43.5966" lon="6.44081">
        <ele>405.81</ele>
        <time>2018-09-23T11:58:51Z</time>
      </trkpt>
      <trkpt lat="43.59665" lon="6.44089">
        <ele>405.33</ele>
        <time>2018-09-23T11:59:06Z</time>
      </trkpt>
      <trkpt lat="43.59673" lon="6.44111">
        <ele>406.29</ele>
        <time>2018-09-23T11:59:24Z</time>
      </trkpt>
      <trkpt lat="43.59675" lon="6.4412">
        <ele>406.29</ele>
        <time>2018-09-23T11:59:37Z</time>
      </trkpt>
      <trkpt lat="43.59678" lon="6.44133">
        <ele>407.26</ele>
        <time>2018-09-23T11:59:53Z</time>
      </trkpt>
      <trkpt lat="43.59677" lon="6.44142">
        <ele>407.74</ele>
        <time>2018-09-23T12:00:09Z</time>
      </trkpt>
      <trkpt lat="43.59678" lon="6.44149">
        <ele>407.74</ele>
        <time>2018-09-23T12:00:32Z</time>
      </trkpt>
      <trkpt lat="43.59683" lon="6.44173">
        <ele>408.7</ele>
        <time>2018-09-23T12:00:51Z</time>
      </trkpt>
      <trkpt lat="43.59694" lon="6.44189">
        <ele>407.74</ele>
        <time>2018-09-23T12:01:08Z</time>
      </trkpt>
      <trkpt lat="43.59697" lon="6.44193">
        <ele>407.74</ele>
        <time>2018-09-23T12:01:12Z</time>
      </trkpt>
      <trkpt lat="43.5971" lon="6.44204">
        <ele>407.74</ele>
        <time>2018-09-23T12:01:27Z</time>
      </trkpt>
      <trkpt lat="43.59723" lon="6.44222">
        <ele>408.22</ele>
        <time>2018-09-23T12:01:45Z</time>
      </trkpt>
      <trkpt lat="43.59729" lon="6.4423">
        <ele>408.7</ele>
        <time>2018-09-23T12:01:54Z</time>
      </trkpt>
      <trkpt lat="43.59739" lon="6.44252">
        <ele>409.18</ele>
        <time>2018-09-23T12:02:12Z</time>
      </trkpt>
      <trkpt lat="43.59743" lon="6.44262">
        <ele>409.18</ele>
        <time>2018-09-23T12:02:28Z</time>
      </trkpt>
      <trkpt lat="43.59747" lon="6.44271">
        <ele>409.66</ele>
        <time>2018-09-23T12:02:44Z</time>
      </trkpt>
      <trkpt lat="43.59754" lon="6.44296">
        <ele>410.62</ele>
        <time>2018-09-23T12:03:03Z</time>
      </trkpt>
      <trkpt lat="43.59758" lon="6.44314">
        <ele>411.58</ele>
        <time>2018-09-23T12:03:18Z</time>
      </trkpt>
      <trkpt lat="43.5976" lon="6.44326">
        <ele>412.06</ele>
        <time>2018-09-23T12:03:35Z</time>
      </trkpt>
      <trkpt lat="43.59765" lon="6.4434">
        <ele>413.02</ele>
        <time>2018-09-23T12:03:52Z</time>
      </trkpt>
      <trkpt lat="43.59766" lon="6.44338">
        <ele>413.02</ele>
        <time>2018-09-23T12:04:05Z</time>
      </trkpt>
      <trkpt lat="43.59763" lon="6.44327">
        <ele>376.49</ele>
        <time>2018-09-23T12:04:34Z</time>
      </trkpt>
      <trkpt lat="43.59764" lon="6.44329">
        <ele>380.34</ele>
        <time>2018-09-23T12:04:50Z</time>
      </trkpt>
      <trkpt lat="43.59764" lon="6.44328">
        <ele>380.34</ele>
        <time>2018-09-23T12:04:51Z</time>
      </trkpt>
      <trkpt lat="43.59763" lon="6.44328">
        <ele>383.7</ele>
        <time>2018-09-23T12:04:55Z</time>
      </trkpt>
      <trkpt lat="43.59762" lon="6.44329">
        <ele>388.03</ele>
        <time>2018-09-23T12:05:01Z</time>
      </trkpt>
      <trkpt lat="43.59761" lon="6.4433">
        <ele>389.47</ele>
        <time>2018-09-23T12:05:06Z</time>
      </trkpt>
      <trkpt lat="43.59762" lon="6.4433">
        <ele>391.87</ele>
        <time>2018-09-23T12:05:11Z</time>
      </trkpt>
      <trkpt lat="43.59764" lon="6.44338">
        <ele>394.76</ele>
        <time>2018-09-23T12:05:21Z</time>
      </trkpt>
      <trkpt lat="43.59766" lon="6.44339">
        <ele>398.12</ele>
        <time>2018-09-23T12:05:30Z</time>
      </trkpt>
      <trkpt lat="43.59766" lon="6.44339">
        <ele>401.49</ele>
        <time>2018-09-23T12:05:41Z</time>
      </trkpt>
      <trkpt lat="43.59767" lon="6.44339">
        <ele>404.37</ele>
        <time>2018-09-23T12:05:52Z</time>
      </trkpt>
      <trkpt lat="43.59762" lon="6.44329">
        <ele>405.33</ele>
        <time>2018-09-23T12:06:05Z</time>
      </trkpt>
      <trkpt lat="43.59761" lon="6.44329">
        <ele>406.77</ele>
        <time>2018-09-23T12:06:29Z</time>
      </trkpt>
      <trkpt lat="43.59761" lon="6.44331">
        <ele>406.77</ele>
        <time>2018-09-23T12:06:52Z</time>
      </trkpt>
      <trkpt lat="43.59762" lon="6.44329">
        <ele>406.77</ele>
        <time>2018-09-23T12:07:11Z</time>
      </trkpt>
      <trkpt lat="43.59763" lon="6.44331">
        <ele>405.81</ele>
        <time>2018-09-23T12:07:29Z</time>
      </trkpt>
      <trkpt lat="43.59767" lon="6.44341">
        <ele>407.74</ele>
        <time>2018-09-23T12:07:43Z</time>
      </trkpt>
      <trkpt lat="43.59765" lon="6.4434">
        <ele>408.22</ele>
        <time>2018-09-23T12:08:07Z</time>
      </trkpt>
      <trkpt lat="43.59769" lon="6.4434">
        <ele>407.74</ele>
        <time>2018-09-23T12:08:34Z</time>
      </trkpt>
      <trkpt lat="43.59767" lon="6.44338">
        <ele>408.22</ele>
        <time>2018-09-23T12:08:40Z</time>
      </trkpt>
      <trkpt lat="43.59766" lon="6.44339">
        <ele>407.74</ele>
        <time>2018-09-23T12:09:00Z</time>
      </trkpt>
      <trkpt lat="43.59767" lon="6.44338">
        <ele>408.22</ele>
        <time>2018-09-23T12:09:15Z</time>
      </trkpt>
      <trkpt lat="43.59765" lon="6.44341">
        <ele>407.26</ele>
        <time>2018-09-23T12:09:40Z</time>
      </trkpt>
      <trkpt lat="43.59767" lon="6.44339">
        <ele>408.22</ele>
        <time>2018-09-23T12:10:06Z</time>
      </trkpt>
      <trkpt lat="43.59764" lon="6.4434">
        <ele>408.7</ele>
        <time>2018-09-23T12:10:28Z</time>
      </trkpt>
      <trkpt lat="43.59764" lon="6.44341">
        <ele>408.22</ele>
        <time>2018-09-23T12:10:47Z</time>
      </trkpt>
      <trkpt lat="43.59767" lon="6.4434">
        <ele>408.7</ele>
        <time>2018-09-23T12:11:10Z</time>
      </trkpt>
      <trkpt lat="43.59769" lon="6.44348">
        <ele>408.7</ele>
        <time>2018-09-23T12:11:34Z</time>
      </trkpt>
      <trkpt lat="43.59782" lon="6.44364">
        <ele>409.18</ele>
        <time>2018-09-23T12:11:52Z</time>
      </trkpt>
      <trkpt lat="43.59794" lon="6.44376">
        <ele>410.14</ele>
        <time>2018-09-23T12:12:07Z</time>
      </trkpt>
      <trkpt lat="43.59807" lon="6.44391">
        <ele>411.58</ele>
        <time>2018-09-23T12:12:25Z</time>
      </trkpt>
      <trkpt lat="43.59817" lon="6.44404">
        <ele>412.54</ele>
        <time>2018-09-23T12:12:39Z</time>
      </trkpt>
      <trkpt lat="43.59834" lon="6.44415">
        <ele>413.02</ele>
        <time>2018-09-23T12:12:56Z</time>
      </trkpt>
      <trkpt lat="43.59844" lon="6.44429">
        <ele>413.98</ele>
        <time>2018-09-23T12:13:10Z</time>
      </trkpt>
      <trkpt lat="43.59855" lon="6.44443">
        <ele>414.95</ele>
        <time>2018-09-23T12:13:24Z</time>
      </trkpt>
      <trkpt lat="43.59866" lon="6.4446">
        <ele>414.95</ele>
        <time>2018-09-23T12:13:40Z</time>
      </trkpt>
      <trkpt lat="43.59857" lon="6.4448">
        <ele>416.39</ele>
        <time>2018-09-23T12:13:57Z</time>
      </trkpt>
      <trkpt lat="43.59856" lon="6.44502">
        <ele>416.87</ele>
        <time>2018-09-23T12:14:14Z</time>
      </trkpt>
      <trkpt lat="43.59861" lon="6.4451">
        <ele>416.87</ele>
        <time>2018-09-23T12:14:27Z</time>
      </trkpt>
      <trkpt lat="43.59865" lon="6.44518">
        <ele>417.83</ele>
        <time>2018-09-23T12:14:42Z</time>
      </trkpt>
      <trkpt lat="43.59868" lon="6.4452">
        <ele>417.83</ele>
        <time>2018-09-23T12:14:45Z</time>
      </trkpt>
      <trkpt lat="43.59882" lon="6.44528">
        <ele>418.79</ele>
        <time>2018-09-23T12:14:59Z</time>
      </trkpt>
      <trkpt lat="43.59888" lon="6.44531">
        <ele>419.27</ele>
        <time>2018-09-23T12:15:06Z</time>
      </trkpt>
      <trkpt lat="43.59899" lon="6.44542">
        <ele>419.75</ele>
        <time>2018-09-23T12:15:19Z</time>
      </trkpt>
      <trkpt lat="43.59897" lon="6.44561">
        <ele>419.75</ele>
        <time>2018-09-23T12:15:35Z</time>
      </trkpt>
      <trkpt lat="43.59895" lon="6.44565">
        <ele>420.71</ele>
        <time>2018-09-23T12:15:38Z</time>
      </trkpt>
      <trkpt lat="43.59889" lon="6.44578">
        <ele>421.19</ele>
        <time>2018-09-23T12:15:53Z</time>
      </trkpt>
      <trkpt lat="43.59877" lon="6.44581">
        <ele>422.16</ele>
        <time>2018-09-23T12:16:07Z</time>
      </trkpt>
      <trkpt lat="43.59876" lon="6.44581">
        <ele>422.16</ele>
        <time>2018-09-23T12:16:08Z</time>
      </trkpt>
      <trkpt lat="43.59861" lon="6.44583">
        <ele>423.6</ele>
        <time>2018-09-23T12:16:23Z</time>
      </trkpt>
      <trkpt lat="43.59851" lon="6.44591">
        <ele>424.56</ele>
        <time>2018-09-23T12:16:38Z</time>
      </trkpt>
      <trkpt lat="43.59848" lon="6.44594">
        <ele>424.56</ele>
        <time>2018-09-23T12:16:55Z</time>
      </trkpt>
      <trkpt lat="43.59832" lon="6.44608">
        <ele>425.04</ele>
        <time>2018-09-23T12:17:12Z</time>
      </trkpt>
      <trkpt lat="43.59823" lon="6.44613">
        <ele>426.48</ele>
        <time>2018-09-23T12:17:20Z</time>
      </trkpt>
      <trkpt lat="43.59802" lon="6.44618">
        <ele>427.92</ele>
        <time>2018-09-23T12:17:39Z</time>
      </trkpt>
      <trkpt lat="43.59796" lon="6.44621">
        <ele>427.92</ele>
        <time>2018-09-23T12:17:54Z</time>
      </trkpt>
      <trkpt lat="43.5979" lon="6.44621">
        <ele>430.81</ele>
        <time>2018-09-23T12:18:10Z</time>
      </trkpt>
      <trkpt lat="43.5979" lon="6.44621">
        <ele>426.96</ele>
        <time>2018-09-23T12:18:12Z</time>
      </trkpt>
      <trkpt lat="43.59789" lon="6.4462">
        <ele>428.4</ele>
        <time>2018-09-23T12:18:35Z</time>
      </trkpt>
      <trkpt lat="43.59786" lon="6.44624">
        <ele>427.92</ele>
        <time>2018-09-23T12:18:50Z</time>
      </trkpt>
      <trkpt lat="43.5979" lon="6.44613">
        <ele>427.92</ele>
        <time>2018-09-23T12:19:07Z</time>
      </trkpt>
      <trkpt lat="43.59789" lon="6.44615">
        <ele>428.4</ele>
        <time>2018-09-23T12:19:24Z</time>
      </trkpt>
      <trkpt lat="43.59787" lon="6.44615">
        <ele>428.4</ele>
        <time>2018-09-23T12:19:47Z</time>
      </trkpt>
      <trkpt lat="43.59789" lon="6.44616">
        <ele>428.4</ele>
        <time>2018-09-23T12:20:16Z</time>
      </trkpt>
      <trkpt lat="43.59789" lon="6.44618">
        <ele>427.92</ele>
        <time>2018-09-23T12:20:41Z</time>
      </trkpt>
      <trkpt lat="43.59789" lon="6.44612">
        <ele>427.44</ele>
        <time>2018-09-23T12:21:03Z</time>
      </trkpt>
      <trkpt lat="43.59791" lon="6.4461">
        <ele>427.92</ele>
        <time>2018-09-23T12:21:26Z</time>
      </trkpt>
      <trkpt lat="43.59789" lon="6.44619">
        <ele>428.4</ele>
        <time>2018-09-23T12:21:53Z</time>
      </trkpt>
      <trkpt lat="43.59788" lon="6.44626">
        <ele>428.4</ele>
        <time>2018-09-23T12:22:20Z</time>
      </trkpt>
      <trkpt lat="43.59787" lon="6.44625">
        <ele>428.4</ele>
        <time>2018-09-23T12:22:48Z</time>
      </trkpt>
      <trkpt lat="43.59789" lon="6.44626">
        <ele>429.37</ele>
        <time>2018-09-23T12:23:04Z</time>
      </trkpt>
      <trkpt lat="43.59789" lon="6.44631">
        <ele>428.89</ele>
        <time>2018-09-23T12:23:28Z</time>
      </trkpt>
      <trkpt lat="43.59792" lon="6.44642">
        <ele>429.85</ele>
        <time>2018-09-23T12:23:47Z</time>
      </trkpt>
      <trkpt lat="43.59795" lon="6.44653">
        <ele>430.81</ele>
        <time>2018-09-23T12:23:56Z</time>
      </trkpt>
      <trkpt lat="43.59801" lon="6.4467">
        <ele>431.77</ele>
        <time>2018-09-23T12:24:12Z</time>
      </trkpt>
      <trkpt lat="43.59809" lon="6.44686">
        <ele>432.73</ele>
        <time>2018-09-23T12:24:27Z</time>
      </trkpt>
      <trkpt lat="43.59817" lon="6.44704">
        <ele>433.69</ele>
        <time>2018-09-23T12:24:43Z</time>
      </trkpt>
      <trkpt lat="43.59823" lon="6.44718">
        <ele>434.17</ele>
        <time>2018-09-23T12:24:57Z</time>
      </trkpt>
      <trkpt lat="43.59829" lon="6.44733">
        <ele>435.61</ele>
        <time>2018-09-23T12:25:11Z</time>
      </trkpt>
      <trkpt lat="43.59831" lon="6.44755">
        <ele>435.61</ele>
        <time>2018-09-23T12:25:24Z</time>
      </trkpt>
      <trkpt lat="43.59831" lon="6.44766">
        <ele>435.13</ele>
        <time>2018-09-23T12:25:30Z</time>
      </trkpt>
      <trkpt lat="43.59823" lon="6.44788">
        <ele>436.58</ele>
        <time>2018-09-23T12:25:47Z</time>
      </trkpt>
      <trkpt lat="43.59807" lon="6.44808">
        <ele>437.54</ele>
        <time>2018-09-23T12:26:07Z</time>
      </trkpt>
      <trkpt lat="43.59794" lon="6.44817">
        <ele>438.5</ele>
        <time>2018-09-23T12:26:24Z</time>
      </trkpt>
      <trkpt lat="43.59784" lon="6.44825">
        <ele>439.46</ele>
        <time>2018-09-23T12:26:39Z</time>
      </trkpt>
      <trkpt lat="43.59767" lon="6.4483">
        <ele>440.9</ele>
        <time>2018-09-23T12:26:55Z</time>
      </trkpt>
      <trkpt lat="43.59755" lon="6.44834">
        <ele>441.86</ele>
        <time>2018-09-23T12:27:08Z</time>
      </trkpt>
      <trkpt lat="43.59742" lon="6.44845">
        <ele>444.27</ele>
        <time>2018-09-23T12:27:27Z</time>
      </trkpt>
      <trkpt lat="43.59728" lon="6.44858">
        <ele>445.23</ele>
        <time>2018-09-23T12:27:45Z</time>
      </trkpt>
      <trkpt lat="43.59719" lon="6.4487">
        <ele>445.71</ele>
        <time>2018-09-23T12:28:00Z</time>
      </trkpt>
      <trkpt lat="43.59716" lon="6.44874">
        <ele>446.19</ele>
        <time>2018-09-23T12:28:16Z</time>
      </trkpt>
      <trkpt lat="43.59703" lon="6.44886">
        <ele>447.15</ele>
        <time>2018-09-23T12:28:31Z</time>
      </trkpt>
      <trkpt lat="43.59693" lon="6.44899">
        <ele>448.11</ele>
        <time>2018-09-23T12:28:45Z</time>
      </trkpt>
      <trkpt lat="43.59687" lon="6.44908">
        <ele>448.59</ele>
        <time>2018-09-23T12:28:59Z</time>
      </trkpt>
      <trkpt lat="43.59678" lon="6.44921">
        <ele>449.07</ele>
        <time>2018-09-23T12:29:13Z</time>
      </trkpt>
      <trkpt lat="43.59668" lon="6.44934">
        <ele>450.03</ele>
        <time>2018-09-23T12:29:29Z</time>
      </trkpt>
      <trkpt lat="43.59657" lon="6.44948">
        <ele>451.48</ele>
        <time>2018-09-23T12:29:45Z</time>
      </trkpt>
      <trkpt lat="43.59643" lon="6.44957">
        <ele>452.44</ele>
        <time>2018-09-23T12:30:02Z</time>
      </trkpt>
      <trkpt lat="43.59634" lon="6.44973">
        <ele>453.88</ele>
        <time>2018-09-23T12:30:18Z</time>
      </trkpt>
      <trkpt lat="43.59633" lon="6.4497">
        <ele>453.88</ele>
        <time>2018-09-23T12:30:34Z</time>
      </trkpt>
      <trkpt lat="43.59636" lon="6.44955">
        <ele>453.4</ele>
        <time>2018-09-23T12:30:50Z</time>
      </trkpt>
      <trkpt lat="43.59636" lon="6.44955">
        <ele>452.92</ele>
        <time>2018-09-23T12:31:08Z</time>
      </trkpt>
      <trkpt lat="43.59636" lon="6.44957">
        <ele>453.4</ele>
        <time>2018-09-23T12:31:31Z</time>
      </trkpt>
      <trkpt lat="43.59635" lon="6.44952">
        <ele>453.4</ele>
        <time>2018-09-23T12:31:50Z</time>
      </trkpt>
      <trkpt lat="43.59637" lon="6.4495">
        <ele>452.92</ele>
        <time>2018-09-23T12:32:05Z</time>
      </trkpt>
      <trkpt lat="43.59635" lon="6.44953">
        <ele>452.92</ele>
        <time>2018-09-23T12:32:24Z</time>
      </trkpt>
      <trkpt lat="43.59637" lon="6.44955">
        <ele>452.44</ele>
        <time>2018-09-23T12:32:44Z</time>
      </trkpt>
      <trkpt lat="43.59636" lon="6.44955">
        <ele>453.4</ele>
        <time>2018-09-23T12:33:27Z</time>
      </trkpt>
      <trkpt lat="43.59634" lon="6.44954">
        <ele>452.92</ele>
        <time>2018-09-23T12:33:52Z</time>
      </trkpt>
      <trkpt lat="43.59635" lon="6.44954">
        <ele>453.88</ele>
        <time>2018-09-23T12:34:12Z</time>
      </trkpt>
      <trkpt lat="43.59637" lon="6.44954">
        <ele>453.4</ele>
        <time>2018-09-23T12:34:42Z</time>
      </trkpt>
      <trkpt lat="43.59631" lon="6.44954">
        <ele>453.88</ele>
        <time>2018-09-23T12:35:16Z</time>
      </trkpt>
      <trkpt lat="43.59632" lon="6.44952">
        <ele>454.84</ele>
        <time>2018-09-23T12:35:41Z</time>
      </trkpt>
      <trkpt lat="43.59632" lon="6.44948">
        <ele>454.84</ele>
        <time>2018-09-23T12:36:11Z</time>
      </trkpt>
      <trkpt lat="43.59632" lon="6.44947">
        <ele>455.32</ele>
        <time>2018-09-23T12:36:34Z</time>
      </trkpt>
      <trkpt lat="43.59631" lon="6.44946">
        <ele>454.84</ele>
        <time>2018-09-23T12:37:03Z</time>
      </trkpt>
      <trkpt lat="43.59634" lon="6.44954">
        <ele>454.36</ele>
        <time>2018-09-23T12:37:21Z</time>
      </trkpt>
      <trkpt lat="43.59635" lon="6.44953">
        <ele>453.88</ele>
        <time>2018-09-23T12:37:35Z</time>
      </trkpt>
      <trkpt lat="43.59635" lon="6.44953">
        <ele>454.36</ele>
        <time>2018-09-23T12:38:08Z</time>
      </trkpt>
      <trkpt lat="43.59635" lon="6.44953">
        <ele>453.88</ele>
        <time>2018-09-23T12:38:24Z</time>
      </trkpt>
      <trkpt lat="43.59634" lon="6.44954">
        <ele>453.4</ele>
        <time>2018-09-23T12:38:41Z</time>
      </trkpt>
      <trkpt lat="43.59633" lon="6.44951">
        <ele>454.84</ele>
        <time>2018-09-23T12:38:58Z</time>
      </trkpt>
      <trkpt lat="43.59633" lon="6.4495">
        <ele>455.32</ele>
        <time>2018-09-23T12:39:13Z</time>
      </trkpt>
      <trkpt lat="43.59632" lon="6.44951">
        <ele>455.8</ele>
        <time>2018-09-23T12:39:46Z</time>
      </trkpt>
      <trkpt lat="43.59634" lon="6.44952">
        <ele>455.32</ele>
        <time>2018-09-23T12:40:12Z</time>
      </trkpt>
      <trkpt lat="43.59638" lon="6.44952">
        <ele>453.88</ele>
        <time>2018-09-23T12:40:32Z</time>
      </trkpt>
      <trkpt lat="43.59637" lon="6.44954">
        <ele>453.88</ele>
        <time>2018-09-23T12:40:54Z</time>
      </trkpt>
      <trkpt lat="43.59637" lon="6.44953">
        <ele>454.36</ele>
        <time>2018-09-23T12:41:14Z</time>
      </trkpt>
      <trkpt lat="43.59637" lon="6.44954">
        <ele>454.36</ele>
        <time>2018-09-23T12:41:39Z</time>
      </trkpt>
      <trkpt lat="43.59637" lon="6.44956">
        <ele>454.36</ele>
        <time>2018-09-23T12:42:07Z</time>
      </trkpt>
      <trkpt lat="43.59635" lon="6.44952">
        <ele>454.36</ele>
        <time>2018-09-23T12:42:32Z</time>
      </trkpt>
      <trkpt lat="43.59636" lon="6.44953">
        <ele>454.36</ele>
        <time>2018-09-23T12:42:50Z</time>
      </trkpt>
      <trkpt lat="43.59636" lon="6.44954">
        <ele>454.84</ele>
        <time>2018-09-23T12:43:21Z</time>
      </trkpt>
      <trkpt lat="43.59634" lon="6.44958">
        <ele>454.84</ele>
        <time>2018-09-23T12:43:35Z</time>
      </trkpt>
      <trkpt lat="43.59635" lon="6.44962">
        <ele>456.76</ele>
        <time>2018-09-23T12:43:37Z</time>
      </trkpt>
      <trkpt lat="43.59637" lon="6.44971">
        <ele>455.32</ele>
        <time>2018-09-23T12:43:47Z</time>
      </trkpt>
      <trkpt lat="43.5965" lon="6.44971">
        <ele>457.24</ele>
        <time>2018-09-23T12:44:04Z</time>
      </trkpt>
      <trkpt lat="43.59658" lon="6.4496">
        <ele>457.72</ele>
        <time>2018-09-23T12:44:20Z</time>
      </trkpt>
      <trkpt lat="43.59674" lon="6.44942">
        <ele>459.17</ele>
        <time>2018-09-23T12:44:41Z</time>
      </trkpt>
      <trkpt lat="43.59676" lon="6.4494">
        <ele>459.65</ele>
        <time>2018-09-23T12:44:43Z</time>
      </trkpt>
      <trkpt lat="43.59693" lon="6.44923">
        <ele>460.13</ele>
        <time>2018-09-23T12:45:03Z</time>
      </trkpt>
      <trkpt lat="43.59711" lon="6.44909">
        <ele>461.57</ele>
        <time>2018-09-23T12:45:22Z</time>
      </trkpt>
      <trkpt lat="43.59728" lon="6.44896">
        <ele>462.53</ele>
        <time>2018-09-23T12:45:41Z</time>
      </trkpt>
      <trkpt lat="43.59743" lon="6.44885">
        <ele>463.97</ele>
        <time>2018-09-23T12:45:58Z</time>
      </trkpt>
      <trkpt lat="43.59758" lon="6.44878">
        <ele>464.93</ele>
        <time>2018-09-23T12:46:14Z</time>
      </trkpt>
      <trkpt lat="43.59776" lon="6.44882">
        <ele>465.42</ele>
        <time>2018-09-23T12:46:30Z</time>
      </trkpt>
      <trkpt lat="43.59796" lon="6.44884">
        <ele>467.34</ele>
        <time>2018-09-23T12:46:48Z</time>
      </trkpt>
      <trkpt lat="43.59814" lon="6.44886">
        <ele>468.78</ele>
        <time>2018-09-23T12:47:05Z</time>
      </trkpt>
      <trkpt lat="43.5983" lon="6.4489">
        <ele>468.78</ele>
        <time>2018-09-23T12:47:19Z</time>
      </trkpt>
      <trkpt lat="43.59846" lon="6.44891">
        <ele>469.74</ele>
        <time>2018-09-23T12:47:34Z</time>
      </trkpt>
      <trkpt lat="43.59849" lon="6.4489">
        <ele>469.74</ele>
        <time>2018-09-23T12:47:50Z</time>
      </trkpt>
      <trkpt lat="43.59868" lon="6.44884">
        <ele>471.18</ele>
        <time>2018-09-23T12:48:09Z</time>
      </trkpt>
      <trkpt lat="43.59871" lon="6.44882">
        <ele>471.18</ele>
        <time>2018-09-23T12:48:12Z</time>
      </trkpt>
      <trkpt lat="43.59883" lon="6.44866">
        <ele>472.63</ele>
        <time>2018-09-23T12:48:28Z</time>
      </trkpt>
      <trkpt lat="43.59892" lon="6.44847">
        <ele>473.59</ele>
        <time>2018-09-23T12:48:45Z</time>
      </trkpt>
      <trkpt lat="43.59893" lon="6.4482">
        <ele>474.55</ele>
        <time>2018-09-23T12:49:09Z</time>
      </trkpt>
      <trkpt lat="43.59893" lon="6.44816">
        <ele>474.07</ele>
        <time>2018-09-23T12:49:25Z</time>
      </trkpt>
      <trkpt lat="43.59893" lon="6.44814">
        <ele>474.55</ele>
        <time>2018-09-23T12:49:39Z</time>
      </trkpt>
      <trkpt lat="43.59892" lon="6.44789">
        <ele>477.43</ele>
        <time>2018-09-23T12:49:58Z</time>
      </trkpt>
      <trkpt lat="43.59888" lon="6.44774">
        <ele>477.91</ele>
        <time>2018-09-23T12:50:15Z</time>
      </trkpt>
      <trkpt lat="43.59885" lon="6.44752">
        <ele>478.87</ele>
        <time>2018-09-23T12:50:32Z</time>
      </trkpt>
      <trkpt lat="43.59887" lon="6.4473">
        <ele>480.32</ele>
        <time>2018-09-23T12:50:49Z</time>
      </trkpt>
      <trkpt lat="43.59898" lon="6.44735">
        <ele>482.24</ele>
        <time>2018-09-23T12:51:03Z</time>
      </trkpt>
      <trkpt lat="43.599" lon="6.44749">
        <ele>483.2</ele>
        <time>2018-09-23T12:51:15Z</time>
      </trkpt>
      <trkpt lat="43.599" lon="6.44752">
        <ele>482.72</ele>
        <time>2018-09-23T12:51:17Z</time>
      </trkpt>
      <trkpt lat="43.59897" lon="6.44781">
        <ele>482.24</ele>
        <time>2018-09-23T12:51:36Z</time>
      </trkpt>
      <trkpt lat="43.59904" lon="6.44804">
        <ele>482.24</ele>
        <time>2018-09-23T12:51:53Z</time>
      </trkpt>
      <trkpt lat="43.5991" lon="6.44819">
        <ele>482.72</ele>
        <time>2018-09-23T12:52:08Z</time>
      </trkpt>
      <trkpt lat="43.59914" lon="6.44839">
        <ele>483.2</ele>
        <time>2018-09-23T12:52:22Z</time>
      </trkpt>
      <trkpt lat="43.59913" lon="6.44867">
        <ele>483.2</ele>
        <time>2018-09-23T12:52:41Z</time>
      </trkpt>
      <trkpt lat="43.59908" lon="6.44879">
        <ele>484.16</ele>
        <time>2018-09-23T12:52:59Z</time>
      </trkpt>
      <trkpt lat="43.59913" lon="6.44873">
        <ele>484.16</ele>
        <time>2018-09-23T12:53:20Z</time>
      </trkpt>
      <trkpt lat="43.5991" lon="6.44876">
        <ele>483.2</ele>
        <time>2018-09-23T12:53:38Z</time>
      </trkpt>
      <trkpt lat="43.59911" lon="6.44877">
        <ele>484.64</ele>
        <time>2018-09-23T12:54:04Z</time>
      </trkpt>
      <trkpt lat="43.59917" lon="6.44875">
        <ele>483.68</ele>
        <time>2018-09-23T12:54:29Z</time>
      </trkpt>
      <trkpt lat="43.59917" lon="6.44868">
        <ele>484.16</ele>
        <time>2018-09-23T12:54:56Z</time>
      </trkpt>
      <trkpt lat="43.59914" lon="6.4487">
        <ele>484.64</ele>
        <time>2018-09-23T12:55:10Z</time>
      </trkpt>
      <trkpt lat="43.59916" lon="6.44871">
        <ele>484.64</ele>
        <time>2018-09-23T12:55:29Z</time>
      </trkpt>
      <trkpt lat="43.59916" lon="6.44865">
        <ele>484.64</ele>
        <time>2018-09-23T12:55:51Z</time>
      </trkpt>
      <trkpt lat="43.5992" lon="6.44867">
        <ele>485.12</ele>
        <time>2018-09-23T12:56:12Z</time>
      </trkpt>
      <trkpt lat="43.59913" lon="6.44878">
        <ele>484.64</ele>
        <time>2018-09-23T12:56:29Z</time>
      </trkpt>
      <trkpt lat="43.59914" lon="6.44874">
        <ele>484.64</ele>
        <time>2018-09-23T12:56:47Z</time>
      </trkpt>
      <trkpt lat="43.59919" lon="6.44871">
        <ele>485.6</ele>
        <time>2018-09-23T12:57:03Z</time>
      </trkpt>
      <trkpt lat="43.59919" lon="6.44871">
        <ele>486.08</ele>
        <time>2018-09-23T12:57:26Z</time>
      </trkpt>
      <trkpt lat="43.59921" lon="6.44869">
        <ele>486.08</ele>
        <time>2018-09-23T12:57:57Z</time>
      </trkpt>
      <trkpt lat="43.59922" lon="6.44869">
        <ele>486.08</ele>
        <time>2018-09-23T12:58:30Z</time>
      </trkpt>
      <trkpt lat="43.59923" lon="6.4487">
        <ele>486.08</ele>
        <time>2018-09-23T12:58:49Z</time>
      </trkpt>
      <trkpt lat="43.59923" lon="6.4487">
        <ele>485.6</ele>
        <time>2018-09-23T12:59:11Z</time>
      </trkpt>
      <trkpt lat="43.59913" lon="6.44873">
        <ele>485.12</ele>
        <time>2018-09-23T12:59:29Z</time>
      </trkpt>
      <trkpt lat="43.5991" lon="6.44877">
        <ele>484.64</ele>
        <time>2018-09-23T12:59:45Z</time>
      </trkpt>
      <trkpt lat="43.59913" lon="6.4487">
        <ele>485.12</ele>
        <time>2018-09-23T13:00:10Z</time>
      </trkpt>
      <trkpt lat="43.59921" lon="6.44871">
        <ele>485.12</ele>
        <time>2018-09-23T13:00:37Z</time>
      </trkpt>
      <trkpt lat="43.59918" lon="6.44875">
        <ele>485.12</ele>
        <time>2018-09-23T13:01:04Z</time>
      </trkpt>
      <trkpt lat="43.59914" lon="6.44877">
        <ele>485.12</ele>
        <time>2018-09-23T13:01:26Z</time>
      </trkpt>
      <trkpt lat="43.59909" lon="6.4488">
        <ele>484.64</ele>
        <time>2018-09-23T13:01:45Z</time>
      </trkpt>
      <trkpt lat="43.59907" lon="6.44883">
        <ele>485.6</ele>
        <time>2018-09-23T13:02:00Z</time>
      </trkpt>
      <trkpt lat="43.59903" lon="6.449">
        <ele>486.56</ele>
        <time>2018-09-23T13:02:14Z</time>
      </trkpt>
      <trkpt lat="43.59893" lon="6.44915">
        <ele>488.49</ele>
        <time>2018-09-23T13:02:29Z</time>
      </trkpt>
      <trkpt lat="43.5988" lon="6.44926">
        <ele>488.97</ele>
        <time>2018-09-23T13:02:46Z</time>
      </trkpt>
      <trkpt lat="43.5988" lon="6.44926">
        <ele>489.93</ele>
        <time>2018-09-23T13:03:05Z</time>
      </trkpt>
      <trkpt lat="43.59878" lon="6.44923">
        <ele>489.45</ele>
        <time>2018-09-23T13:03:34Z</time>
      </trkpt>
      <trkpt lat="43.59866" lon="6.44933">
        <ele>489.93</ele>
        <time>2018-09-23T13:03:49Z</time>
      </trkpt>
      <trkpt lat="43.59851" lon="6.44936">
        <ele>490.89</ele>
        <time>2018-09-23T13:04:04Z</time>
      </trkpt>
      <trkpt lat="43.59835" lon="6.44933">
        <ele>491.37</ele>
        <time>2018-09-23T13:04:20Z</time>
      </trkpt>
      <trkpt lat="43.59818" lon="6.44939">
        <ele>493.29</ele>
        <time>2018-09-23T13:04:36Z</time>
      </trkpt>
      <trkpt lat="43.59802" lon="6.44945">
        <ele>494.26</ele>
        <time>2018-09-23T13:04:52Z</time>
      </trkpt>
      <trkpt lat="43.59793" lon="6.44948">
        <ele>495.22</ele>
        <time>2018-09-23T13:05:15Z</time>
      </trkpt>
      <trkpt lat="43.59778" lon="6.44954">
        <ele>497.14</ele>
        <time>2018-09-23T13:05:33Z</time>
      </trkpt>
      <trkpt lat="43.59771" lon="6.44958">
        <ele>497.14</ele>
        <time>2018-09-23T13:05:40Z</time>
      </trkpt>
      <trkpt lat="43.59753" lon="6.44976">
        <ele>498.1</ele>
        <time>2018-09-23T13:06:02Z</time>
      </trkpt>
      <trkpt lat="43.59739" lon="6.44998">
        <ele>499.06</ele>
        <time>2018-09-23T13:06:24Z</time>
      </trkpt>
      <trkpt lat="43.59735" lon="6.45">
        <ele>499.06</ele>
        <time>2018-09-23T13:06:46Z</time>
      </trkpt>
      <trkpt lat="43.59728" lon="6.45008">
        <ele>500.5</ele>
        <time>2018-09-23T13:07:12Z</time>
      </trkpt>
      <trkpt lat="43.59721" lon="6.45021">
        <ele>502.43</ele>
        <time>2018-09-23T13:07:28Z</time>
      </trkpt>
      <trkpt lat="43.59717" lon="6.4503">
        <ele>503.39</ele>
        <time>2018-09-23T13:07:46Z</time>
      </trkpt>
      <trkpt lat="43.59711" lon="6.45034">
        <ele>504.83</ele>
        <time>2018-09-23T13:07:59Z</time>
      </trkpt>
      <trkpt lat="43.59706" lon="6.45042">
        <ele>507.71</ele>
        <time>2018-09-23T13:08:13Z</time>
      </trkpt>
      <trkpt lat="43.59708" lon="6.45054">
        <ele>508.67</ele>
        <time>2018-09-23T13:08:29Z</time>
      </trkpt>
      <trkpt lat="43.59716" lon="6.45054">
        <ele>508.67</ele>
        <time>2018-09-23T13:08:39Z</time>
      </trkpt>
      <trkpt lat="43.59737" lon="6.45054">
        <ele>507.71</ele>
        <time>2018-09-23T13:08:58Z</time>
      </trkpt>
      <trkpt lat="43.59747" lon="6.45054">
        <ele>507.71</ele>
        <time>2018-09-23T13:09:15Z</time>
      </trkpt>
      <trkpt lat="43.59762" lon="6.45049">
        <ele>507.23</ele>
        <time>2018-09-23T13:09:32Z</time>
      </trkpt>
      <trkpt lat="43.59778" lon="6.45051">
        <ele>508.67</ele>
        <time>2018-09-23T13:09:49Z</time>
      </trkpt>
      <trkpt lat="43.59787" lon="6.45049">
        <ele>509.64</ele>
        <time>2018-09-23T13:10:08Z</time>
      </trkpt>
      <trkpt lat="43.59787" lon="6.4505">
        <ele>509.64</ele>
        <time>2018-09-23T13:10:31Z</time>
      </trkpt>
      <trkpt lat="43.59787" lon="6.45048">
        <ele>509.16</ele>
        <time>2018-09-23T13:10:53Z</time>
      </trkpt>
      <trkpt lat="43.59787" lon="6.4505">
        <ele>509.16</ele>
        <time>2018-09-23T13:11:25Z</time>
      </trkpt>
      <trkpt lat="43.59785" lon="6.45053">
        <ele>509.16</ele>
        <time>2018-09-23T13:11:49Z</time>
      </trkpt>
      <trkpt lat="43.59785" lon="6.45052">
        <ele>504.83</ele>
        <time>2018-09-23T13:11:56Z</time>
      </trkpt>
      <trkpt lat="43.59785" lon="6.45053">
        <ele>509.16</ele>
        <time>2018-09-23T13:11:58Z</time>
      </trkpt>
      <trkpt lat="43.59785" lon="6.45053">
        <ele>509.16</ele>
        <time>2018-09-23T13:11:59Z</time>
      </trkpt>
      <trkpt lat="43.59785" lon="6.45052">
        <ele>513</ele>
        <time>2018-09-23T13:12:07Z</time>
      </trkpt>
      <trkpt lat="43.59785" lon="6.45052">
        <ele>509.64</ele>
        <time>2018-09-23T13:12:08Z</time>
      </trkpt>
      <trkpt lat="43.59785" lon="6.45049">
        <ele>510.12</ele>
        <time>2018-09-23T13:12:31Z</time>
      </trkpt>
      <trkpt lat="43.59786" lon="6.45049">
        <ele>508.67</ele>
        <time>2018-09-23T13:12:46Z</time>
      </trkpt>
      <trkpt lat="43.59786" lon="6.4505">
        <ele>510.12</ele>
        <time>2018-09-23T13:12:48Z</time>
      </trkpt>
      <trkpt lat="43.59785" lon="6.45048">
        <ele>509.64</ele>
        <time>2018-09-23T13:13:07Z</time>
      </trkpt>
      <trkpt lat="43.59784" lon="6.45048">
        <ele>510.12</ele>
        <time>2018-09-23T13:13:42Z</time>
      </trkpt>
      <trkpt lat="43.59784" lon="6.45048">
        <ele>508.19</ele>
        <time>2018-09-23T13:13:44Z</time>
      </trkpt>
      <trkpt lat="43.59784" lon="6.45047">
        <ele>512.04</ele>
        <time>2018-09-23T13:13:48Z</time>
      </trkpt>
      <trkpt lat="43.59784" lon="6.45047">
        <ele>511.56</ele>
        <time>2018-09-23T13:13:49Z</time>
      </trkpt>
      <trkpt lat="43.59784" lon="6.45046">
        <ele>510.12</ele>
        <time>2018-09-23T13:13:51Z</time>
      </trkpt>
      <trkpt lat="43.59782" lon="6.45044">
        <ele>510.12</ele>
        <time>2018-09-23T13:14:04Z</time>
      </trkpt>
      <trkpt lat="43.59775" lon="6.45043">
        <ele>509.16</ele>
        <time>2018-09-23T13:14:24Z</time>
      </trkpt>
      <trkpt lat="43.59761" lon="6.45051">
        <ele>508.19</ele>
        <time>2018-09-23T13:14:38Z</time>
      </trkpt>
      <trkpt lat="43.59756" lon="6.45056">
        <ele>508.19</ele>
        <time>2018-09-23T13:14:51Z</time>
      </trkpt>
      <trkpt lat="43.59759" lon="6.45057">
        <ele>508.19</ele>
        <time>2018-09-23T13:15:06Z</time>
      </trkpt>
      <trkpt lat="43.59758" lon="6.45056">
        <ele>508.19</ele>
        <time>2018-09-23T13:15:09Z</time>
      </trkpt>
      <trkpt lat="43.59756" lon="6.45054">
        <ele>505.79</ele>
        <time>2018-09-23T13:15:12Z</time>
      </trkpt>
      <trkpt lat="43.59738" lon="6.45055">
        <ele>508.19</ele>
        <time>2018-09-23T13:15:31Z</time>
      </trkpt>
      <trkpt lat="43.59733" lon="6.45056">
        <ele>508.67</ele>
        <time>2018-09-23T13:15:36Z</time>
      </trkpt>
      <trkpt lat="43.59713" lon="6.45057">
        <ele>508.67</ele>
        <time>2018-09-23T13:15:57Z</time>
      </trkpt>
      <trkpt lat="43.59698" lon="6.45064">
        <ele>510.12</ele>
        <time>2018-09-23T13:16:12Z</time>
      </trkpt>
      <trkpt lat="43.59681" lon="6.45067">
        <ele>510.6</ele>
        <time>2018-09-23T13:16:27Z</time>
      </trkpt>
      <trkpt lat="43.59669" lon="6.45073">
        <ele>512.04</ele>
        <time>2018-09-23T13:16:41Z</time>
      </trkpt>
      <trkpt lat="43.59655" lon="6.45079">
        <ele>512.52</ele>
        <time>2018-09-23T13:16:56Z</time>
      </trkpt>
      <trkpt lat="43.59637" lon="6.45091">
        <ele>513.48</ele>
        <time>2018-09-23T13:17:15Z</time>
      </trkpt>
      <trkpt lat="43.59629" lon="6.45108">
        <ele>513.96</ele>
        <time>2018-09-23T13:17:29Z</time>
      </trkpt>
      <trkpt lat="43.59624" lon="6.45134">
        <ele>515.4</ele>
        <time>2018-09-23T13:17:47Z</time>
      </trkpt>
      <trkpt lat="43.59608" lon="6.4514">
        <ele>514.92</ele>
        <time>2018-09-23T13:18:03Z</time>
      </trkpt>
      <trkpt lat="43.59605" lon="6.45146">
        <ele>514.92</ele>
        <time>2018-09-23T13:18:19Z</time>
      </trkpt>
      <trkpt lat="43.59608" lon="6.45145">
        <ele>514.92</ele>
        <time>2018-09-23T13:18:35Z</time>
      </trkpt>
      <trkpt lat="43.59608" lon="6.45145">
        <ele>515.4</ele>
        <time>2018-09-23T13:18:59Z</time>
      </trkpt>
      <trkpt lat="43.59602" lon="6.45147">
        <ele>514.92</ele>
        <time>2018-09-23T13:19:23Z</time>
      </trkpt>
      <trkpt lat="43.59593" lon="6.45138">
        <ele>514.92</ele>
        <time>2018-09-23T13:19:40Z</time>
      </trkpt>
      <trkpt lat="43.59594" lon="6.45138">
        <ele>514.92</ele>
        <time>2018-09-23T13:19:57Z</time>
      </trkpt>
      <trkpt lat="43.59606" lon="6.45141">
        <ele>515.4</ele>
        <time>2018-09-23T13:20:13Z</time>
      </trkpt>
      <trkpt lat="43.59616" lon="6.45147">
        <ele>515.4</ele>
        <time>2018-09-23T13:20:30Z</time>
      </trkpt>
      <trkpt lat="43.59614" lon="6.45167">
        <ele>516.85</ele>
        <time>2018-09-23T13:20:48Z</time>
      </trkpt>
      <trkpt lat="43.59618" lon="6.45177">
        <ele>518.29</ele>
        <time>2018-09-23T13:21:01Z</time>
      </trkpt>
      <trkpt lat="43.59622" lon="6.45184">
        <ele>518.29</ele>
        <time>2018-09-23T13:21:18Z</time>
      </trkpt>
      <trkpt lat="43.59624" lon="6.45185">
        <ele>518.77</ele>
        <time>2018-09-23T13:21:27Z</time>
      </trkpt>
      <trkpt lat="43.59635" lon="6.45176">
        <ele>517.33</ele>
        <time>2018-09-23T13:21:40Z</time>
      </trkpt>
      <trkpt lat="43.59637" lon="6.45176">
        <ele>517.33</ele>
        <time>2018-09-23T13:21:41Z</time>
      </trkpt>
      <trkpt lat="43.59638" lon="6.45173">
        <ele>517.33</ele>
        <time>2018-09-23T13:21:43Z</time>
      </trkpt>
      <trkpt lat="43.59639" lon="6.45171">
        <ele>517.33</ele>
        <time>2018-09-23T13:21:44Z</time>
      </trkpt>
      <trkpt lat="43.5965" lon="6.45166">
        <ele>518.29</ele>
        <time>2018-09-23T13:21:59Z</time>
      </trkpt>
      <trkpt lat="43.59653" lon="6.4517">
        <ele>519.73</ele>
        <time>2018-09-23T13:22:22Z</time>
      </trkpt>
      <trkpt lat="43.59646" lon="6.45186">
        <ele>521.17</ele>
        <time>2018-09-23T13:22:35Z</time>
      </trkpt>
      <trkpt lat="43.5964" lon="6.45196">
        <ele>523.09</ele>
        <time>2018-09-23T13:22:50Z</time>
      </trkpt>
      <trkpt lat="43.59634" lon="6.45211">
        <ele>525.5</ele>
        <time>2018-09-23T13:23:06Z</time>
      </trkpt>
      <trkpt lat="43.59631" lon="6.45217">
        <ele>526.94</ele>
        <time>2018-09-23T13:23:18Z</time>
      </trkpt>
      <trkpt lat="43.59638" lon="6.45209">
        <ele>528.86</ele>
        <time>2018-09-23T13:23:35Z</time>
      </trkpt>
      <trkpt lat="43.59652" lon="6.45205">
        <ele>531.27</ele>
        <time>2018-09-23T13:23:55Z</time>
      </trkpt>
      <trkpt lat="43.59653" lon="6.45207">
        <ele>530.79</ele>
        <time>2018-09-23T13:24:11Z</time>
      </trkpt>
      <trkpt lat="43.59653" lon="6.45208">
        <ele>530.79</ele>
        <time>2018-09-23T13:24:40Z</time>
      </trkpt>
      <trkpt lat="43.59653" lon="6.45208">
        <ele>531.27</ele>
        <time>2018-09-23T13:25:06Z</time>
      </trkpt>
      <trkpt lat="43.59654" lon="6.45208">
        <ele>530.79</ele>
        <time>2018-09-23T13:25:11Z</time>
      </trkpt>
      <trkpt lat="43.59653" lon="6.45208">
        <ele>531.27</ele>
        <time>2018-09-23T13:25:25Z</time>
      </trkpt>
      <trkpt lat="43.59652" lon="6.45208">
        <ele>531.75</ele>
        <time>2018-09-23T13:25:56Z</time>
      </trkpt>
      <trkpt lat="43.59652" lon="6.45203">
        <ele>531.27</ele>
        <time>2018-09-23T13:26:24Z</time>
      </trkpt>
      <trkpt lat="43.59651" lon="6.45198">
        <ele>532.71</ele>
        <time>2018-09-23T13:26:51Z</time>
      </trkpt>
      <trkpt lat="43.59651" lon="6.45196">
        <ele>532.71</ele>
        <time>2018-09-23T13:27:18Z</time>
      </trkpt>
      <trkpt lat="43.59649" lon="6.45193">
        <ele>532.71</ele>
        <time>2018-09-23T13:27:51Z</time>
      </trkpt>
      <trkpt lat="43.5965" lon="6.45196">
        <ele>533.67</ele>
        <time>2018-09-23T13:28:26Z</time>
      </trkpt>
      <trkpt lat="43.5965" lon="6.45196">
        <ele>533.67</ele>
        <time>2018-09-23T13:29:05Z</time>
      </trkpt>
      <trkpt lat="43.5965" lon="6.45195">
        <ele>534.63</ele>
        <time>2018-09-23T13:29:41Z</time>
      </trkpt>
      <trkpt lat="43.59649" lon="6.45198">
        <ele>534.63</ele>
        <time>2018-09-23T13:30:12Z</time>
      </trkpt>
      <trkpt lat="43.59648" lon="6.45196">
        <ele>534.63</ele>
        <time>2018-09-23T13:30:45Z</time>
      </trkpt>
      <trkpt lat="43.59649" lon="6.45196">
        <ele>535.59</ele>
        <time>2018-09-23T13:31:19Z</time>
      </trkpt>
      <trkpt lat="43.59649" lon="6.45195">
        <ele>536.07</ele>
        <time>2018-09-23T13:31:52Z</time>
      </trkpt>
      <trkpt lat="43.59648" lon="6.45192">
        <ele>535.59</ele>
        <time>2018-09-23T13:32:22Z</time>
      </trkpt>
      <trkpt lat="43.59649" lon="6.45198">
        <ele>536.07</ele>
        <time>2018-09-23T13:33:03Z</time>
      </trkpt>
      <trkpt lat="43.59649" lon="6.45195">
        <ele>536.55</ele>
        <time>2018-09-23T13:33:34Z</time>
      </trkpt>
      <trkpt lat="43.59651" lon="6.45196">
        <ele>536.55</ele>
        <time>2018-09-23T13:34:07Z</time>
      </trkpt>
      <trkpt lat="43.59652" lon="6.45197">
        <ele>537.03</ele>
        <time>2018-09-23T13:34:48Z</time>
      </trkpt>
      <trkpt lat="43.59652" lon="6.45199">
        <ele>537.51</ele>
        <time>2018-09-23T13:35:17Z</time>
      </trkpt>
      <trkpt lat="43.59648" lon="6.45194">
        <ele>537.51</ele>
        <time>2018-09-23T13:35:45Z</time>
      </trkpt>
      <trkpt lat="43.59652" lon="6.45196">
        <ele>537.99</ele>
        <time>2018-09-23T13:36:04Z</time>
      </trkpt>
      <trkpt lat="43.59656" lon="6.45202">
        <ele>538.48</ele>
        <time>2018-09-23T13:36:18Z</time>
      </trkpt>
      <trkpt lat="43.59655" lon="6.45204">
        <ele>538.48</ele>
        <time>2018-09-23T13:36:38Z</time>
      </trkpt>
      <trkpt lat="43.59655" lon="6.45202">
        <ele>538.96</ele>
        <time>2018-09-23T13:36:50Z</time>
      </trkpt>
      <trkpt lat="43.59655" lon="6.45203">
        <ele>538.96</ele>
        <time>2018-09-23T13:37:11Z</time>
      </trkpt>
      <trkpt lat="43.59656" lon="6.45203">
        <ele>538.96</ele>
        <time>2018-09-23T13:37:43Z</time>
      </trkpt>
      <trkpt lat="43.59657" lon="6.45204">
        <ele>540.4</ele>
        <time>2018-09-23T13:37:52Z</time>
      </trkpt>
      <trkpt lat="43.59657" lon="6.45203">
        <ele>538.96</ele>
        <time>2018-09-23T13:38:14Z</time>
      </trkpt>
      <trkpt lat="43.59658" lon="6.45204">
        <ele>538.96</ele>
        <time>2018-09-23T13:38:34Z</time>
      </trkpt>
      <trkpt lat="43.59655" lon="6.45205">
        <ele>538.96</ele>
        <time>2018-09-23T13:38:56Z</time>
      </trkpt>
      <trkpt lat="43.5965" lon="6.45203">
        <ele>538.48</ele>
        <time>2018-09-23T13:39:09Z</time>
      </trkpt>
      <trkpt lat="43.5964" lon="6.45209">
        <ele>535.11</ele>
        <time>2018-09-23T13:39:24Z</time>
      </trkpt>
      <trkpt lat="43.5963" lon="6.45213">
        <ele>533.67</ele>
        <time>2018-09-23T13:39:39Z</time>
      </trkpt>
      <trkpt lat="43.59638" lon="6.45194">
        <ele>530.3</ele>
        <time>2018-09-23T13:39:57Z</time>
      </trkpt>
      <trkpt lat="43.59637" lon="6.45186">
        <ele>529.34</ele>
        <time>2018-09-23T13:40:13Z</time>
      </trkpt>
      <trkpt lat="43.59643" lon="6.45175">
        <ele>527.42</ele>
        <time>2018-09-23T13:40:26Z</time>
      </trkpt>
      <trkpt lat="43.59649" lon="6.45163">
        <ele>524.54</ele>
        <time>2018-09-23T13:40:44Z</time>
      </trkpt>
      <trkpt lat="43.5965" lon="6.45155">
        <ele>523.58</ele>
        <time>2018-09-23T13:40:53Z</time>
      </trkpt>
      <trkpt lat="43.59661" lon="6.45148">
        <ele>523.09</ele>
        <time>2018-09-23T13:41:06Z</time>
      </trkpt>
      <trkpt lat="43.59662" lon="6.45138">
        <ele>522.61</ele>
        <time>2018-09-23T13:41:21Z</time>
      </trkpt>
      <trkpt lat="43.59661" lon="6.45137">
        <ele>522.13</ele>
        <time>2018-09-23T13:41:22Z</time>
      </trkpt>
      <trkpt lat="43.59639" lon="6.45113">
        <ele>520.69</ele>
        <time>2018-09-23T13:41:43Z</time>
      </trkpt>
      <trkpt lat="43.59638" lon="6.45105">
        <ele>520.21</ele>
        <time>2018-09-23T13:41:49Z</time>
      </trkpt>
      <trkpt lat="43.59639" lon="6.451">
        <ele>519.73</ele>
        <time>2018-09-23T13:41:52Z</time>
      </trkpt>
      <trkpt lat="43.59642" lon="6.45093">
        <ele>519.73</ele>
        <time>2018-09-23T13:41:58Z</time>
      </trkpt>
      <trkpt lat="43.59649" lon="6.45086">
        <ele>519.73</ele>
        <time>2018-09-23T13:42:06Z</time>
      </trkpt>
      <trkpt lat="43.59662" lon="6.45074">
        <ele>518.77</ele>
        <time>2018-09-23T13:42:22Z</time>
      </trkpt>
      <trkpt lat="43.5966" lon="6.45074">
        <ele>518.77</ele>
        <time>2018-09-23T13:42:27Z</time>
      </trkpt>
      <trkpt lat="43.59644" lon="6.4509">
        <ele>519.73</ele>
        <time>2018-09-23T13:42:48Z</time>
      </trkpt>
      <trkpt lat="43.59642" lon="6.45093">
        <ele>519.73</ele>
        <time>2018-09-23T13:42:51Z</time>
      </trkpt>
      <trkpt lat="43.59629" lon="6.45113">
        <ele>520.21</ele>
        <time>2018-09-23T13:43:09Z</time>
      </trkpt>
      <trkpt lat="43.59629" lon="6.45116">
        <ele>519.73</ele>
        <time>2018-09-23T13:43:10Z</time>
      </trkpt>
      <trkpt lat="43.59618" lon="6.45133">
        <ele>521.17</ele>
        <time>2018-09-23T13:43:26Z</time>
      </trkpt>
      <trkpt lat="43.59606" lon="6.45145">
        <ele>520.69</ele>
        <time>2018-09-23T13:43:42Z</time>
      </trkpt>
      <trkpt lat="43.59606" lon="6.45143">
        <ele>521.17</ele>
        <time>2018-09-23T13:43:56Z</time>
      </trkpt>
      <trkpt lat="43.59607" lon="6.45142">
        <ele>520.69</ele>
        <time>2018-09-23T13:44:17Z</time>
      </trkpt>
      <trkpt lat="43.59607" lon="6.4514">
        <ele>521.65</ele>
        <time>2018-09-23T13:44:32Z</time>
      </trkpt>
      <trkpt lat="43.59606" lon="6.4514">
        <ele>521.65</ele>
        <time>2018-09-23T13:44:51Z</time>
      </trkpt>
      <trkpt lat="43.596" lon="6.45145">
        <ele>521.17</ele>
        <time>2018-09-23T13:45:11Z</time>
      </trkpt>
      <trkpt lat="43.59593" lon="6.4515">
        <ele>521.65</ele>
        <time>2018-09-23T13:45:24Z</time>
      </trkpt>
      <trkpt lat="43.59586" lon="6.45169">
        <ele>521.65</ele>
        <time>2018-09-23T13:45:44Z</time>
      </trkpt>
      <trkpt lat="43.59586" lon="6.45175">
        <ele>522.13</ele>
        <time>2018-09-23T13:45:59Z</time>
      </trkpt>
      <trkpt lat="43.59585" lon="6.45176">
        <ele>521.65</ele>
        <time>2018-09-23T13:46:14Z</time>
      </trkpt>
      <trkpt lat="43.59578" lon="6.45173">
        <ele>520.21</ele>
        <time>2018-09-23T13:46:26Z</time>
      </trkpt>
      <trkpt lat="43.5957" lon="6.4518">
        <ele>522.13</ele>
        <time>2018-09-23T13:46:39Z</time>
      </trkpt>
      <trkpt lat="43.59564" lon="6.45186">
        <ele>521.65</ele>
        <time>2018-09-23T13:46:53Z</time>
      </trkpt>
      <trkpt lat="43.59554" lon="6.45184">
        <ele>521.65</ele>
        <time>2018-09-23T13:47:13Z</time>
      </trkpt>
      <trkpt lat="43.59563" lon="6.4518">
        <ele>521.65</ele>
        <time>2018-09-23T13:47:26Z</time>
      </trkpt>
      <trkpt lat="43.59575" lon="6.45186">
        <ele>521.65</ele>
        <time>2018-09-23T13:47:42Z</time>
      </trkpt>
      <trkpt lat="43.59594" lon="6.45196">
        <ele>522.13</ele>
        <time>2018-09-23T13:48:02Z</time>
      </trkpt>
      <trkpt lat="43.59607" lon="6.45205">
        <ele>524.06</ele>
        <time>2018-09-23T13:48:21Z</time>
      </trkpt>
      <trkpt lat="43.59621" lon="6.45188">
        <ele>524.54</ele>
        <time>2018-09-23T13:48:35Z</time>
      </trkpt>
      <trkpt lat="43.59625" lon="6.45186">
        <ele>524.54</ele>
        <time>2018-09-23T13:48:42Z</time>
      </trkpt>
      <trkpt lat="43.59629" lon="6.4518">
        <ele>523.58</ele>
        <time>2018-09-23T13:48:47Z</time>
      </trkpt>
      <trkpt lat="43.59639" lon="6.45158">
        <ele>523.09</ele>
        <time>2018-09-23T13:49:01Z</time>
      </trkpt>
      <trkpt lat="43.59643" lon="6.45157">
        <ele>523.58</ele>
        <time>2018-09-23T13:49:04Z</time>
      </trkpt>
      <trkpt lat="43.59657" lon="6.45141">
        <ele>522.13</ele>
        <time>2018-09-23T13:49:19Z</time>
      </trkpt>
      <trkpt lat="43.59657" lon="6.45139">
        <ele>522.13</ele>
        <time>2018-09-23T13:49:21Z</time>
      </trkpt>
      <trkpt lat="43.59643" lon="6.45125">
        <ele>521.17</ele>
        <time>2018-09-23T13:49:38Z</time>
      </trkpt>
      <trkpt lat="43.59636" lon="6.45117">
        <ele>520.21</ele>
        <time>2018-09-23T13:49:54Z</time>
      </trkpt>
      <trkpt lat="43.59636" lon="6.45108">
        <ele>519.73</ele>
        <time>2018-09-23T13:50:13Z</time>
      </trkpt>
      <trkpt lat="43.59639" lon="6.45098">
        <ele>519.73</ele>
        <time>2018-09-23T13:50:18Z</time>
      </trkpt>
      <trkpt lat="43.59644" lon="6.4509">
        <ele>518.29</ele>
        <time>2018-09-23T13:50:26Z</time>
      </trkpt>
      <trkpt lat="43.59657" lon="6.45086">
        <ele>517.33</ele>
        <time>2018-09-23T13:50:39Z</time>
      </trkpt>
      <trkpt lat="43.59662" lon="6.45082">
        <ele>517.81</ele>
        <time>2018-09-23T13:50:57Z</time>
      </trkpt>
      <trkpt lat="43.5967" lon="6.45073">
        <ele>517.33</ele>
        <time>2018-09-23T13:51:07Z</time>
      </trkpt>
      <trkpt lat="43.5969" lon="6.45059">
        <ele>515.4</ele>
        <time>2018-09-23T13:51:27Z</time>
      </trkpt>
      <trkpt lat="43.59701" lon="6.45051">
        <ele>514.44</ele>
        <time>2018-09-23T13:51:37Z</time>
      </trkpt>
      <trkpt lat="43.59703" lon="6.45044">
        <ele>513.96</ele>
        <time>2018-09-23T13:51:47Z</time>
      </trkpt>
      <trkpt lat="43.59706" lon="6.45035">
        <ele>512.52</ele>
        <time>2018-09-23T13:51:56Z</time>
      </trkpt>
      <trkpt lat="43.59712" lon="6.45032">
        <ele>509.16</ele>
        <time>2018-09-23T13:52:09Z</time>
      </trkpt>
      <trkpt lat="43.59712" lon="6.45032">
        <ele>508.19</ele>
        <time>2018-09-23T13:52:10Z</time>
      </trkpt>
      <trkpt lat="43.59708" lon="6.45031">
        <ele>508.19</ele>
        <time>2018-09-23T13:52:14Z</time>
      </trkpt>
      <trkpt lat="43.59696" lon="6.45028">
        <ele>507.23</ele>
        <time>2018-09-23T13:52:24Z</time>
      </trkpt>
      <trkpt lat="43.59673" lon="6.45028">
        <ele>504.83</ele>
        <time>2018-09-23T13:52:43Z</time>
      </trkpt>
      <trkpt lat="43.59669" lon="6.45027">
        <ele>504.83</ele>
        <time>2018-09-23T13:52:49Z</time>
      </trkpt>
      <trkpt lat="43.59665" lon="6.45019">
        <ele>504.83</ele>
        <time>2018-09-23T13:53:08Z</time>
      </trkpt>
      <trkpt lat="43.59665" lon="6.45025">
        <ele>504.83</ele>
        <time>2018-09-23T13:53:20Z</time>
      </trkpt>
      <trkpt lat="43.59669" lon="6.45024">
        <ele>505.79</ele>
        <time>2018-09-23T13:53:34Z</time>
      </trkpt>
      <trkpt lat="43.59661" lon="6.45025">
        <ele>503.87</ele>
        <time>2018-09-23T13:53:52Z</time>
      </trkpt>
      <trkpt lat="43.59638" lon="6.45035">
        <ele>503.87</ele>
        <time>2018-09-23T13:54:10Z</time>
      </trkpt>
      <trkpt lat="43.59627" lon="6.45039">
        <ele>502.43</ele>
        <time>2018-09-23T13:54:21Z</time>
      </trkpt>
      <trkpt lat="43.59607" lon="6.45055">
        <ele>500.98</ele>
        <time>2018-09-23T13:54:38Z</time>
      </trkpt>
      <trkpt lat="43.59594" lon="6.4507">
        <ele>498.58</ele>
        <time>2018-09-23T13:54:51Z</time>
      </trkpt>
      <trkpt lat="43.59576" lon="6.45092">
        <ele>497.62</ele>
        <time>2018-09-23T13:55:11Z</time>
      </trkpt>
      <trkpt lat="43.59565" lon="6.45113">
        <ele>496.18</ele>
        <time>2018-09-23T13:55:27Z</time>
      </trkpt>
      <trkpt lat="43.59563" lon="6.45117">
        <ele>495.22</ele>
        <time>2018-09-23T13:55:30Z</time>
      </trkpt>
      <trkpt lat="43.59557" lon="6.45127">
        <ele>493.77</ele>
        <time>2018-09-23T13:55:43Z</time>
      </trkpt>
      <trkpt lat="43.59548" lon="6.45142">
        <ele>492.81</ele>
        <time>2018-09-23T13:55:56Z</time>
      </trkpt>
      <trkpt lat="43.59548" lon="6.4516">
        <ele>492.81</ele>
        <time>2018-09-23T13:56:01Z</time>
      </trkpt>
      <trkpt lat="43.5955" lon="6.45194">
        <ele>490.41</ele>
        <time>2018-09-23T13:56:17Z</time>
      </trkpt>
      <trkpt lat="43.5955" lon="6.45217">
        <ele>489.93</ele>
        <time>2018-09-23T13:56:33Z</time>
      </trkpt>
      <trkpt lat="43.59544" lon="6.45242">
        <ele>488.49</ele>
        <time>2018-09-23T13:56:48Z</time>
      </trkpt>
      <trkpt lat="43.59534" lon="6.45256">
        <ele>487.53</ele>
        <time>2018-09-23T13:57:01Z</time>
      </trkpt>
      <trkpt lat="43.59527" lon="6.45281">
        <ele>486.56</ele>
        <time>2018-09-23T13:57:18Z</time>
      </trkpt>
      <trkpt lat="43.59526" lon="6.45286">
        <ele>486.08</ele>
        <time>2018-09-23T13:57:22Z</time>
      </trkpt>
      <trkpt lat="43.59524" lon="6.45301">
        <ele>486.08</ele>
        <time>2018-09-23T13:57:31Z</time>
      </trkpt>
      <trkpt lat="43.59524" lon="6.4531">
        <ele>484.64</ele>
        <time>2018-09-23T13:57:37Z</time>
      </trkpt>
      <trkpt lat="43.59519" lon="6.45323">
        <ele>483.2</ele>
        <time>2018-09-23T13:57:51Z</time>
      </trkpt>
      <trkpt lat="43.59519" lon="6.45322">
        <ele>483.68</ele>
        <time>2018-09-23T13:57:53Z</time>
      </trkpt>
      <trkpt lat="43.59521" lon="6.45314">
        <ele>484.16</ele>
        <time>2018-09-23T13:57:59Z</time>
      </trkpt>
      <trkpt lat="43.59522" lon="6.45306">
        <ele>485.6</ele>
        <time>2018-09-23T13:58:05Z</time>
      </trkpt>
      <trkpt lat="43.59524" lon="6.45279">
        <ele>486.08</ele>
        <time>2018-09-23T13:58:22Z</time>
      </trkpt>
      <trkpt lat="43.59525" lon="6.45269">
        <ele>487.53</ele>
        <time>2018-09-23T13:58:36Z</time>
      </trkpt>
      <trkpt lat="43.59524" lon="6.45268">
        <ele>487.53</ele>
        <time>2018-09-23T13:58:51Z</time>
      </trkpt>
      <trkpt lat="43.59522" lon="6.45268">
        <ele>486.56</ele>
        <time>2018-09-23T13:59:17Z</time>
      </trkpt>
      <trkpt lat="43.59521" lon="6.45269">
        <ele>487.05</ele>
        <time>2018-09-23T13:59:39Z</time>
      </trkpt>
      <trkpt lat="43.5952" lon="6.4527">
        <ele>487.05</ele>
        <time>2018-09-23T14:00:07Z</time>
      </trkpt>
      <trkpt lat="43.59519" lon="6.45264">
        <ele>486.56</ele>
        <time>2018-09-23T14:00:40Z</time>
      </trkpt>
      <trkpt lat="43.5952" lon="6.45272">
        <ele>487.05</ele>
        <time>2018-09-23T14:01:07Z</time>
      </trkpt>
      <trkpt lat="43.59523" lon="6.45276">
        <ele>486.56</ele>
        <time>2018-09-23T14:01:24Z</time>
      </trkpt>
      <trkpt lat="43.5952" lon="6.45276">
        <ele>486.56</ele>
        <time>2018-09-23T14:01:47Z</time>
      </trkpt>
      <trkpt lat="43.59519" lon="6.45276">
        <ele>487.05</ele>
        <time>2018-09-23T14:01:54Z</time>
      </trkpt>
      <trkpt lat="43.59519" lon="6.45275">
        <ele>487.05</ele>
        <time>2018-09-23T14:02:14Z</time>
      </trkpt>
      <trkpt lat="43.59518" lon="6.45275">
        <ele>487.05</ele>
        <time>2018-09-23T14:02:42Z</time>
      </trkpt>
      <trkpt lat="43.59519" lon="6.45275">
        <ele>487.05</ele>
        <time>2018-09-23T14:03:05Z</time>
      </trkpt>
      <trkpt lat="43.59517" lon="6.45273">
        <ele>487.05</ele>
        <time>2018-09-23T14:03:30Z</time>
      </trkpt>
      <trkpt lat="43.59517" lon="6.45274">
        <ele>487.05</ele>
        <time>2018-09-23T14:04:00Z</time>
      </trkpt>
      <trkpt lat="43.59524" lon="6.45274">
        <ele>487.05</ele>
        <time>2018-09-23T14:04:19Z</time>
      </trkpt>
      <trkpt lat="43.59525" lon="6.45274">
        <ele>487.05</ele>
        <time>2018-09-23T14:04:37Z</time>
      </trkpt>
      <trkpt lat="43.59524" lon="6.45282">
        <ele>486.56</ele>
        <time>2018-09-23T14:04:45Z</time>
      </trkpt>
      <trkpt lat="43.59517" lon="6.45308">
        <ele>484.64</ele>
        <time>2018-09-23T14:05:02Z</time>
      </trkpt>
      <trkpt lat="43.59508" lon="6.45334">
        <ele>483.68</ele>
        <time>2018-09-23T14:05:19Z</time>
      </trkpt>
      <trkpt lat="43.59506" lon="6.45338">
        <ele>483.2</ele>
        <time>2018-09-23T14:05:38Z</time>
      </trkpt>
      <trkpt lat="43.59505" lon="6.45346">
        <ele>483.2</ele>
        <time>2018-09-23T14:06:02Z</time>
      </trkpt>
      <trkpt lat="43.59503" lon="6.45343">
        <ele>482.72</ele>
        <time>2018-09-23T14:06:30Z</time>
      </trkpt>
      <trkpt lat="43.59498" lon="6.45346">
        <ele>480.8</ele>
        <time>2018-09-23T14:06:44Z</time>
      </trkpt>
      <trkpt lat="43.59498" lon="6.45345">
        <ele>481.28</ele>
        <time>2018-09-23T14:06:49Z</time>
      </trkpt>
      <trkpt lat="43.59496" lon="6.45347">
        <ele>480.8</ele>
        <time>2018-09-23T14:07:04Z</time>
      </trkpt>
      <trkpt lat="43.59495" lon="6.45349">
        <ele>480.32</ele>
        <time>2018-09-23T14:07:33Z</time>
      </trkpt>
      <trkpt lat="43.59493" lon="6.45352">
        <ele>479.35</ele>
        <time>2018-09-23T14:07:49Z</time>
      </trkpt>
      <trkpt lat="43.59489" lon="6.45357">
        <ele>478.39</ele>
        <time>2018-09-23T14:08:09Z</time>
      </trkpt>
      <trkpt lat="43.59487" lon="6.4537">
        <ele>475.99</ele>
        <time>2018-09-23T14:08:23Z</time>
      </trkpt>
      <trkpt lat="43.59485" lon="6.45383">
        <ele>473.59</ele>
        <time>2018-09-23T14:08:38Z</time>
      </trkpt>
      <trkpt lat="43.59483" lon="6.45397">
        <ele>471.18</ele>
        <time>2018-09-23T14:08:53Z</time>
      </trkpt>
      <trkpt lat="43.59482" lon="6.45413">
        <ele>469.26</ele>
        <time>2018-09-23T14:09:08Z</time>
      </trkpt>
      <trkpt lat="43.59481" lon="6.45432">
        <ele>467.82</ele>
        <time>2018-09-23T14:09:23Z</time>
      </trkpt>
      <trkpt lat="43.59478" lon="6.4544">
        <ele>465.9</ele>
        <time>2018-09-23T14:09:34Z</time>
      </trkpt>
      <trkpt lat="43.5947" lon="6.45422">
        <ele>463.97</ele>
        <time>2018-09-23T14:09:51Z</time>
      </trkpt>
      <trkpt lat="43.59465" lon="6.45405">
        <ele>461.57</ele>
        <time>2018-09-23T14:10:09Z</time>
      </trkpt>
      <trkpt lat="43.5946" lon="6.45391">
        <ele>460.61</ele>
        <time>2018-09-23T14:10:22Z</time>
      </trkpt>
      <trkpt lat="43.59458" lon="6.45376">
        <ele>458.21</ele>
        <time>2018-09-23T14:10:35Z</time>
      </trkpt>
      <trkpt lat="43.59455" lon="6.45358">
        <ele>456.76</ele>
        <time>2018-09-23T14:10:53Z</time>
      </trkpt>
      <trkpt lat="43.59449" lon="6.45358">
        <ele>453.88</ele>
        <time>2018-09-23T14:11:09Z</time>
      </trkpt>
      <trkpt lat="43.59442" lon="6.45361">
        <ele>452.92</ele>
        <time>2018-09-23T14:11:24Z</time>
      </trkpt>
      <trkpt lat="43.59446" lon="6.45346">
        <ele>451</ele>
        <time>2018-09-23T14:11:39Z</time>
      </trkpt>
      <trkpt lat="43.59441" lon="6.45349">
        <ele>449.07</ele>
        <time>2018-09-23T14:11:52Z</time>
      </trkpt>
      <trkpt lat="43.59439" lon="6.4534">
        <ele>447.63</ele>
        <time>2018-09-23T14:12:07Z</time>
      </trkpt>
      <trkpt lat="43.59438" lon="6.45334">
        <ele>445.23</ele>
        <time>2018-09-23T14:12:25Z</time>
      </trkpt>
      <trkpt lat="43.59432" lon="6.45342">
        <ele>443.31</ele>
        <time>2018-09-23T14:12:41Z</time>
      </trkpt>
      <trkpt lat="43.59428" lon="6.45333">
        <ele>440.9</ele>
        <time>2018-09-23T14:12:58Z</time>
      </trkpt>
      <trkpt lat="43.5943" lon="6.45321">
        <ele>439.46</ele>
        <time>2018-09-23T14:13:13Z</time>
      </trkpt>
      <trkpt lat="43.59431" lon="6.4531">
        <ele>437.06</ele>
        <time>2018-09-23T14:13:27Z</time>
      </trkpt>
      <trkpt lat="43.59434" lon="6.45298">
        <ele>434.65</ele>
        <time>2018-09-23T14:13:42Z</time>
      </trkpt>
      <trkpt lat="43.59432" lon="6.45279">
        <ele>432.73</ele>
        <time>2018-09-23T14:13:59Z</time>
      </trkpt>
      <trkpt lat="43.59431" lon="6.45261">
        <ele>429.85</ele>
        <time>2018-09-23T14:14:17Z</time>
      </trkpt>
      <trkpt lat="43.59431" lon="6.45252">
        <ele>428.89</ele>
        <time>2018-09-23T14:14:33Z</time>
      </trkpt>
      <trkpt lat="43.59432" lon="6.45239">
        <ele>426.96</ele>
        <time>2018-09-23T14:14:49Z</time>
      </trkpt>
      <trkpt lat="43.59433" lon="6.45229">
        <ele>425.52</ele>
        <time>2018-09-23T14:15:05Z</time>
      </trkpt>
      <trkpt lat="43.59434" lon="6.45212">
        <ele>422.64</ele>
        <time>2018-09-23T14:15:22Z</time>
      </trkpt>
      <trkpt lat="43.5943" lon="6.452">
        <ele>421.68</ele>
        <time>2018-09-23T14:15:37Z</time>
      </trkpt>
      <trkpt lat="43.59432" lon="6.45189">
        <ele>420.71</ele>
        <time>2018-09-23T14:15:49Z</time>
      </trkpt>
      <trkpt lat="43.59435" lon="6.45179">
        <ele>420.23</ele>
        <time>2018-09-23T14:16:07Z</time>
      </trkpt>
      <trkpt lat="43.59438" lon="6.45177">
        <ele>419.75</ele>
        <time>2018-09-23T14:16:20Z</time>
      </trkpt>
      <trkpt lat="43.5944" lon="6.45175">
        <ele>418.79</ele>
        <time>2018-09-23T14:16:41Z</time>
      </trkpt>
      <trkpt lat="43.59442" lon="6.45179">
        <ele>419.27</ele>
        <time>2018-09-23T14:16:57Z</time>
      </trkpt>
      <trkpt lat="43.59441" lon="6.45175">
        <ele>417.83</ele>
        <time>2018-09-23T14:17:15Z</time>
      </trkpt>
      <trkpt lat="43.59439" lon="6.45173">
        <ele>416.39</ele>
        <time>2018-09-23T14:17:36Z</time>
      </trkpt>
      <trkpt lat="43.59435" lon="6.45169">
        <ele>414.95</ele>
        <time>2018-09-23T14:17:55Z</time>
      </trkpt>
      <trkpt lat="43.59435" lon="6.45166">
        <ele>413.5</ele>
        <time>2018-09-23T14:18:00Z</time>
      </trkpt>
      <trkpt lat="43.59431" lon="6.45168">
        <ele>413.5</ele>
        <time>2018-09-23T14:18:15Z</time>
      </trkpt>
      <trkpt lat="43.59429" lon="6.45168">
        <ele>413.5</ele>
        <time>2018-09-23T14:18:38Z</time>
      </trkpt>
      <trkpt lat="43.59426" lon="6.4517">
        <ele>413.02</ele>
        <time>2018-09-23T14:18:57Z</time>
      </trkpt>
      <trkpt lat="43.59425" lon="6.45176">
        <ele>413.5</ele>
        <time>2018-09-23T14:19:33Z</time>
      </trkpt>
      <trkpt lat="43.5942" lon="6.45176">
        <ele>413.02</ele>
        <time>2018-09-23T14:19:53Z</time>
      </trkpt>
      <trkpt lat="43.59418" lon="6.45175">
        <ele>413.02</ele>
        <time>2018-09-23T14:20:14Z</time>
      </trkpt>
      <trkpt lat="43.59416" lon="6.45173">
        <ele>413.02</ele>
        <time>2018-09-23T14:20:32Z</time>
      </trkpt>
      <trkpt lat="43.59417" lon="6.45172">
        <ele>413.02</ele>
        <time>2018-09-23T14:20:52Z</time>
      </trkpt>
      <trkpt lat="43.59415" lon="6.45174">
        <ele>413.98</ele>
        <time>2018-09-23T14:21:18Z</time>
      </trkpt>
      <trkpt lat="43.59414" lon="6.45177">
        <ele>414.47</ele>
        <time>2018-09-23T14:21:36Z</time>
      </trkpt>
      <trkpt lat="43.59413" lon="6.45182">
        <ele>414.47</ele>
        <time>2018-09-23T14:21:51Z</time>
      </trkpt>
      <trkpt lat="43.59413" lon="6.45182">
        <ele>413.98</ele>
        <time>2018-09-23T14:22:07Z</time>
      </trkpt>
      <trkpt lat="43.5941" lon="6.45182">
        <ele>414.47</ele>
        <time>2018-09-23T14:22:27Z</time>
      </trkpt>
      <trkpt lat="43.59407" lon="6.45187">
        <ele>414.47</ele>
        <time>2018-09-23T14:22:47Z</time>
      </trkpt>
      <trkpt lat="43.59406" lon="6.45192">
        <ele>415.43</ele>
        <time>2018-09-23T14:23:03Z</time>
      </trkpt>
      <trkpt lat="43.59405" lon="6.45193">
        <ele>415.43</ele>
        <time>2018-09-23T14:23:23Z</time>
      </trkpt>
      <trkpt lat="43.59403" lon="6.45192">
        <ele>416.39</ele>
        <time>2018-09-23T14:23:41Z</time>
      </trkpt>
      <trkpt lat="43.59402" lon="6.45188">
        <ele>416.39</ele>
        <time>2018-09-23T14:23:59Z</time>
      </trkpt>
      <trkpt lat="43.59401" lon="6.45186">
        <ele>417.83</ele>
        <time>2018-09-23T14:24:20Z</time>
      </trkpt>
      <trkpt lat="43.594" lon="6.45183">
        <ele>417.83</ele>
        <time>2018-09-23T14:24:34Z</time>
      </trkpt>
      <trkpt lat="43.59398" lon="6.45184">
        <ele>418.79</ele>
        <time>2018-09-23T14:24:55Z</time>
      </trkpt>
      <trkpt lat="43.59395" lon="6.45187">
        <ele>418.79</ele>
        <time>2018-09-23T14:25:22Z</time>
      </trkpt>
      <trkpt lat="43.59399" lon="6.45181">
        <ele>418.79</ele>
        <time>2018-09-23T14:25:42Z</time>
      </trkpt>
      <trkpt lat="43.594" lon="6.45177">
        <ele>418.31</ele>
        <time>2018-09-23T14:26:03Z</time>
      </trkpt>
      <trkpt lat="43.594" lon="6.45179">
        <ele>418.79</ele>
        <time>2018-09-23T14:26:29Z</time>
      </trkpt>
      <trkpt lat="43.59402" lon="6.45185">
        <ele>418.31</ele>
        <time>2018-09-23T14:26:51Z</time>
      </trkpt>
      <trkpt lat="43.59404" lon="6.45187">
        <ele>418.31</ele>
        <time>2018-09-23T14:27:13Z</time>
      </trkpt>
      <trkpt lat="43.59402" lon="6.45182">
        <ele>418.31</ele>
        <time>2018-09-23T14:27:35Z</time>
      </trkpt>
      <trkpt lat="43.59402" lon="6.45178">
        <ele>418.31</ele>
        <time>2018-09-23T14:28:03Z</time>
      </trkpt>
      <trkpt lat="43.594" lon="6.45179">
        <ele>417.83</ele>
        <time>2018-09-23T14:28:26Z</time>
      </trkpt>
      <trkpt lat="43.59403" lon="6.45179">
        <ele>418.31</ele>
        <time>2018-09-23T14:28:42Z</time>
      </trkpt>
      <trkpt lat="43.59405" lon="6.45178">
        <ele>417.83</ele>
        <time>2018-09-23T14:29:10Z</time>
      </trkpt>
      <trkpt lat="43.59401" lon="6.45176">
        <ele>417.83</ele>
        <time>2018-09-23T14:29:37Z</time>
      </trkpt>
      <trkpt lat="43.59401" lon="6.45176">
        <ele>417.83</ele>
        <time>2018-09-23T14:29:51Z</time>
      </trkpt>
      <trkpt lat="43.59408" lon="6.45165">
        <ele>417.35</ele>
        <time>2018-09-23T14:30:06Z</time>
      </trkpt>
      <trkpt lat="43.59409" lon="6.45163">
        <ele>417.35</ele>
        <time>2018-09-23T14:30:07Z</time>
      </trkpt>
      <trkpt lat="43.59415" lon="6.45153">
        <ele>417.35</ele>
        <time>2018-09-23T14:30:26Z</time>
      </trkpt>
      <trkpt lat="43.5942" lon="6.45146">
        <ele>417.35</ele>
        <time>2018-09-23T14:30:33Z</time>
      </trkpt>
      <trkpt lat="43.59429" lon="6.45131">
        <ele>418.31</ele>
        <time>2018-09-23T14:30:50Z</time>
      </trkpt>
      <trkpt lat="43.59439" lon="6.45115">
        <ele>417.35</ele>
        <time>2018-09-23T14:31:06Z</time>
      </trkpt>
      <trkpt lat="43.59442" lon="6.4511">
        <ele>417.83</ele>
        <time>2018-09-23T14:31:15Z</time>
      </trkpt>
      <trkpt lat="43.59443" lon="6.45096">
        <ele>417.35</ele>
        <time>2018-09-23T14:31:28Z</time>
      </trkpt>
      <trkpt lat="43.59443" lon="6.45095">
        <ele>417.35</ele>
        <time>2018-09-23T14:31:29Z</time>
      </trkpt>
      <trkpt lat="43.59446" lon="6.45085">
        <ele>417.35</ele>
        <time>2018-09-23T14:31:40Z</time>
      </trkpt>
      <trkpt lat="43.59444" lon="6.45065">
        <ele>416.39</ele>
        <time>2018-09-23T14:31:55Z</time>
      </trkpt>
      <trkpt lat="43.59446" lon="6.45048">
        <ele>415.43</ele>
        <time>2018-09-23T14:32:11Z</time>
      </trkpt>
      <trkpt lat="43.59448" lon="6.45034">
        <ele>415.43</ele>
        <time>2018-09-23T14:32:27Z</time>
      </trkpt>
      <trkpt lat="43.59449" lon="6.45029">
        <ele>415.43</ele>
        <time>2018-09-23T14:32:44Z</time>
      </trkpt>
      <trkpt lat="43.59442" lon="6.45003">
        <ele>413.02</ele>
        <time>2018-09-23T14:33:03Z</time>
      </trkpt>
      <trkpt lat="43.59432" lon="6.44981">
        <ele>411.58</ele>
        <time>2018-09-23T14:33:19Z</time>
      </trkpt>
      <trkpt lat="43.5943" lon="6.44955">
        <ele>411.1</ele>
        <time>2018-09-23T14:33:35Z</time>
      </trkpt>
      <trkpt lat="43.5943" lon="6.44941">
        <ele>412.54</ele>
        <time>2018-09-23T14:33:47Z</time>
      </trkpt>
      <trkpt lat="43.59429" lon="6.44923">
        <ele>409.66</ele>
        <time>2018-09-23T14:34:07Z</time>
      </trkpt>
      <trkpt lat="43.59428" lon="6.44922">
        <ele>409.66</ele>
        <time>2018-09-23T14:34:29Z</time>
      </trkpt>
      <trkpt lat="43.59427" lon="6.44924">
        <ele>410.14</ele>
        <time>2018-09-23T14:34:43Z</time>
      </trkpt>
      <trkpt lat="43.59427" lon="6.4493">
        <ele>409.66</ele>
        <time>2018-09-23T14:35:01Z</time>
      </trkpt>
      <trkpt lat="43.59428" lon="6.44933">
        <ele>409.66</ele>
        <time>2018-09-23T14:35:20Z</time>
      </trkpt>
      <trkpt lat="43.59428" lon="6.4493">
        <ele>409.66</ele>
        <time>2018-09-23T14:35:36Z</time>
      </trkpt>
      <trkpt lat="43.59429" lon="6.44929">
        <ele>409.66</ele>
        <time>2018-09-23T14:35:56Z</time>
      </trkpt>
      <trkpt lat="43.59428" lon="6.4493">
        <ele>408.7</ele>
        <time>2018-09-23T14:36:05Z</time>
      </trkpt>
      <trkpt lat="43.5943" lon="6.44933">
        <ele>409.66</ele>
        <time>2018-09-23T14:36:20Z</time>
      </trkpt>
      <trkpt lat="43.5943" lon="6.44933">
        <ele>411.58</ele>
        <time>2018-09-23T14:36:41Z</time>
      </trkpt>
      <trkpt lat="43.59427" lon="6.44928">
        <ele>408.22</ele>
        <time>2018-09-23T14:36:45Z</time>
      </trkpt>
      <trkpt lat="43.59427" lon="6.44927">
        <ele>409.18</ele>
        <time>2018-09-23T14:37:00Z</time>
      </trkpt>
      <trkpt lat="43.59428" lon="6.44926">
        <ele>405.81</ele>
        <time>2018-09-23T14:37:07Z</time>
      </trkpt>
      <trkpt lat="43.59428" lon="6.44927">
        <ele>408.7</ele>
        <time>2018-09-23T14:37:08Z</time>
      </trkpt>
      <trkpt lat="43.59428" lon="6.44922">
        <ele>409.18</ele>
        <time>2018-09-23T14:37:28Z</time>
      </trkpt>
      <trkpt lat="43.59428" lon="6.44921">
        <ele>408.7</ele>
        <time>2018-09-23T14:37:48Z</time>
      </trkpt>
      <trkpt lat="43.59426" lon="6.44927">
        <ele>409.18</ele>
        <time>2018-09-23T14:38:04Z</time>
      </trkpt>
      <trkpt lat="43.59427" lon="6.44933">
        <ele>409.66</ele>
        <time>2018-09-23T14:38:24Z</time>
      </trkpt>
      <trkpt lat="43.59429" lon="6.44922">
        <ele>409.66</ele>
        <time>2018-09-23T14:38:34Z</time>
      </trkpt>
      <trkpt lat="43.59429" lon="6.44918">
        <ele>408.7</ele>
        <time>2018-09-23T14:38:36Z</time>
      </trkpt>
      <trkpt lat="43.5943" lon="6.44904">
        <ele>408.22</ele>
        <time>2018-09-23T14:38:51Z</time>
      </trkpt>
      <trkpt lat="43.59435" lon="6.44903">
        <ele>408.22</ele>
        <time>2018-09-23T14:39:08Z</time>
      </trkpt>
      <trkpt lat="43.59436" lon="6.44901">
        <ele>407.74</ele>
        <time>2018-09-23T14:39:26Z</time>
      </trkpt>
      <trkpt lat="43.59436" lon="6.44905">
        <ele>408.22</ele>
        <time>2018-09-23T14:39:42Z</time>
      </trkpt>
      <trkpt lat="43.59429" lon="6.44898">
        <ele>407.26</ele>
        <time>2018-09-23T14:40:05Z</time>
      </trkpt>
      <trkpt lat="43.59431" lon="6.44901">
        <ele>407.74</ele>
        <time>2018-09-23T14:40:26Z</time>
      </trkpt>
      <trkpt lat="43.59429" lon="6.44896">
        <ele>408.22</ele>
        <time>2018-09-23T14:40:44Z</time>
      </trkpt>
      <trkpt lat="43.59429" lon="6.44884">
        <ele>410.62</ele>
        <time>2018-09-23T14:41:00Z</time>
      </trkpt>
      <trkpt lat="43.59432" lon="6.44874">
        <ele>412.54</ele>
        <time>2018-09-23T14:41:15Z</time>
      </trkpt>
      <trkpt lat="43.59432" lon="6.44873">
        <ele>413.5</ele>
        <time>2018-09-23T14:41:17Z</time>
      </trkpt>
      <trkpt lat="43.59433" lon="6.4486">
        <ele>415.43</ele>
        <time>2018-09-23T14:41:35Z</time>
      </trkpt>
      <trkpt lat="43.59435" lon="6.44851">
        <ele>416.39</ele>
        <time>2018-09-23T14:41:49Z</time>
      </trkpt>
      <trkpt lat="43.59442" lon="6.44842">
        <ele>417.83</ele>
        <time>2018-09-23T14:42:06Z</time>
      </trkpt>
      <trkpt lat="43.59451" lon="6.44838">
        <ele>418.31</ele>
        <time>2018-09-23T14:42:22Z</time>
      </trkpt>
      <trkpt lat="43.59458" lon="6.44832">
        <ele>418.79</ele>
        <time>2018-09-23T14:42:40Z</time>
      </trkpt>
      <trkpt lat="43.59463" lon="6.44824">
        <ele>418.79</ele>
        <time>2018-09-23T14:43:00Z</time>
      </trkpt>
      <trkpt lat="43.59463" lon="6.44821">
        <ele>418.79</ele>
        <time>2018-09-23T14:43:17Z</time>
      </trkpt>
      <trkpt lat="43.59468" lon="6.44817">
        <ele>416.87</ele>
        <time>2018-09-23T14:43:34Z</time>
      </trkpt>
      <trkpt lat="43.59476" lon="6.44815">
        <ele>415.91</ele>
        <time>2018-09-23T14:43:52Z</time>
      </trkpt>
      <trkpt lat="43.5948" lon="6.44814">
        <ele>414.47</ele>
        <time>2018-09-23T14:44:09Z</time>
      </trkpt>
      <trkpt lat="43.59485" lon="6.44813">
        <ele>412.54</ele>
        <time>2018-09-23T14:44:26Z</time>
      </trkpt>
      <trkpt lat="43.59491" lon="6.44813">
        <ele>411.1</ele>
        <time>2018-09-23T14:44:44Z</time>
      </trkpt>
      <trkpt lat="43.59493" lon="6.44814">
        <ele>411.1</ele>
        <time>2018-09-23T14:45:11Z</time>
      </trkpt>
      <trkpt lat="43.5949" lon="6.44816">
        <ele>411.1</ele>
        <time>2018-09-23T14:45:38Z</time>
      </trkpt>
      <trkpt lat="43.5949" lon="6.44818">
        <ele>410.62</ele>
        <time>2018-09-23T14:45:52Z</time>
      </trkpt>
      <trkpt lat="43.59488" lon="6.44827">
        <ele>408.7</ele>
        <time>2018-09-23T14:46:05Z</time>
      </trkpt>
      <trkpt lat="43.59485" lon="6.44831">
        <ele>407.74</ele>
        <time>2018-09-23T14:46:19Z</time>
      </trkpt>
      <trkpt lat="43.59484" lon="6.44838">
        <ele>407.26</ele>
        <time>2018-09-23T14:46:33Z</time>
      </trkpt>
      <trkpt lat="43.59488" lon="6.44833">
        <ele>406.77</ele>
        <time>2018-09-23T14:46:51Z</time>
      </trkpt>
      <trkpt lat="43.5949" lon="6.44827">
        <ele>404.37</ele>
        <time>2018-09-23T14:47:11Z</time>
      </trkpt>
      <trkpt lat="43.59494" lon="6.44826">
        <ele>403.41</ele>
        <time>2018-09-23T14:47:27Z</time>
      </trkpt>
      <trkpt lat="43.59499" lon="6.44828">
        <ele>401.97</ele>
        <time>2018-09-23T14:47:43Z</time>
      </trkpt>
      <trkpt lat="43.59505" lon="6.4483">
        <ele>401.01</ele>
        <time>2018-09-23T14:47:55Z</time>
      </trkpt>
      <trkpt lat="43.59511" lon="6.44823">
        <ele>401.49</ele>
        <time>2018-09-23T14:48:13Z</time>
      </trkpt>
      <trkpt lat="43.5952" lon="6.44816">
        <ele>400.53</ele>
        <time>2018-09-23T14:48:29Z</time>
      </trkpt>
      <trkpt lat="43.5953" lon="6.44794">
        <ele>399.08</ele>
        <time>2018-09-23T14:48:48Z</time>
      </trkpt>
      <trkpt lat="43.59537" lon="6.44771">
        <ele>398.6</ele>
        <time>2018-09-23T14:49:04Z</time>
      </trkpt>
      <trkpt lat="43.5954" lon="6.44755">
        <ele>398.12</ele>
        <time>2018-09-23T14:49:17Z</time>
      </trkpt>
      <trkpt lat="43.5954" lon="6.44744">
        <ele>397.16</ele>
        <time>2018-09-23T14:49:29Z</time>
      </trkpt>
      <trkpt lat="43.59546" lon="6.44732">
        <ele>396.68</ele>
        <time>2018-09-23T14:49:47Z</time>
      </trkpt>
      <trkpt lat="43.59546" lon="6.44718">
        <ele>395.72</ele>
        <time>2018-09-23T14:50:15Z</time>
      </trkpt>
      <trkpt lat="43.59557" lon="6.44704">
        <ele>394.76</ele>
        <time>2018-09-23T14:50:30Z</time>
      </trkpt>
      <trkpt lat="43.59561" lon="6.44695">
        <ele>394.28</ele>
        <time>2018-09-23T14:50:44Z</time>
      </trkpt>
      <trkpt lat="43.59563" lon="6.44693">
        <ele>394.28</ele>
        <time>2018-09-23T14:51:04Z</time>
      </trkpt>
      <trkpt lat="43.59562" lon="6.44692">
        <ele>393.8</ele>
        <time>2018-09-23T14:51:31Z</time>
      </trkpt>
      <trkpt lat="43.59567" lon="6.44684">
        <ele>393.32</ele>
        <time>2018-09-23T14:52:03Z</time>
      </trkpt>
      <trkpt lat="43.59569" lon="6.44675">
        <ele>393.32</ele>
        <time>2018-09-23T14:52:15Z</time>
      </trkpt>
      <trkpt lat="43.59576" lon="6.44665">
        <ele>392.36</ele>
        <time>2018-09-23T14:52:26Z</time>
      </trkpt>
      <trkpt lat="43.59584" lon="6.44647">
        <ele>390.43</ele>
        <time>2018-09-23T14:52:43Z</time>
      </trkpt>
      <trkpt lat="43.59592" lon="6.44643">
        <ele>390.91</ele>
        <time>2018-09-23T14:52:57Z</time>
      </trkpt>
      <trkpt lat="43.596" lon="6.44643">
        <ele>390.43</ele>
        <time>2018-09-23T14:53:15Z</time>
      </trkpt>
      <trkpt lat="43.59603" lon="6.44641">
        <ele>390.43</ele>
        <time>2018-09-23T14:53:43Z</time>
      </trkpt>
      <trkpt lat="43.596" lon="6.44637">
        <ele>391.39</ele>
        <time>2018-09-23T14:53:52Z</time>
      </trkpt>
      <trkpt lat="43.59602" lon="6.44628">
        <ele>390.43</ele>
        <time>2018-09-23T14:54:08Z</time>
      </trkpt>
      <trkpt lat="43.59601" lon="6.44619">
        <ele>389.47</ele>
        <time>2018-09-23T14:54:24Z</time>
      </trkpt>
      <trkpt lat="43.59624" lon="6.44591">
        <ele>395.24</ele>
        <time>2018-09-23T15:03:02Z</time>
      </trkpt>
      <trkpt lat="43.59617" lon="6.44591">
        <ele>394.76</ele>
        <time>2018-09-23T15:03:19Z</time>
      </trkpt>
      <trkpt lat="43.59613" lon="6.44596">
        <ele>394.28</ele>
        <time>2018-09-23T15:03:39Z</time>
      </trkpt>
      <trkpt lat="43.59608" lon="6.44591">
        <ele>394.76</ele>
        <time>2018-09-23T15:04:02Z</time>
      </trkpt>
      <trkpt lat="43.59609" lon="6.44594">
        <ele>394.76</ele>
        <time>2018-09-23T15:04:26Z</time>
      </trkpt>
      <trkpt lat="43.59613" lon="6.44589">
        <ele>394.28</ele>
        <time>2018-09-23T15:04:48Z</time>
      </trkpt>
      <trkpt lat="43.59614" lon="6.44588">
        <ele>394.28</ele>
        <time>2018-09-23T15:04:49Z</time>
      </trkpt>
      <trkpt lat="43.59615" lon="6.44581">
        <ele>393.32</ele>
        <time>2018-09-23T15:05:03Z</time>
      </trkpt>
      <trkpt lat="43.59621" lon="6.44563">
        <ele>393.8</ele>
        <time>2018-09-23T15:05:15Z</time>
      </trkpt>
      <trkpt lat="43.59625" lon="6.44528">
        <ele>393.32</ele>
        <time>2018-09-23T15:05:35Z</time>
      </trkpt>
      <trkpt lat="43.59629" lon="6.44504">
        <ele>393.8</ele>
        <time>2018-09-23T15:05:50Z</time>
      </trkpt>
      <trkpt lat="43.5963" lon="6.445">
        <ele>393.8</ele>
        <time>2018-09-23T15:05:53Z</time>
      </trkpt>
      <trkpt lat="43.5963" lon="6.44494">
        <ele>393.8</ele>
        <time>2018-09-23T15:05:57Z</time>
      </trkpt>
      <trkpt lat="43.59631" lon="6.44468">
        <ele>392.36</ele>
        <time>2018-09-23T15:06:13Z</time>
      </trkpt>
      <trkpt lat="43.59632" lon="6.44443">
        <ele>392.84</ele>
        <time>2018-09-23T15:06:31Z</time>
      </trkpt>
      <trkpt lat="43.59631" lon="6.44418">
        <ele>392.36</ele>
        <time>2018-09-23T15:06:46Z</time>
      </trkpt>
      <trkpt lat="43.5963" lon="6.44403">
        <ele>391.87</ele>
        <time>2018-09-23T15:07:02Z</time>
      </trkpt>
      <trkpt lat="43.59625" lon="6.4439">
        <ele>391.39</ele>
        <time>2018-09-23T15:07:19Z</time>
      </trkpt>
      <trkpt lat="43.59617" lon="6.44368">
        <ele>390.43</ele>
        <time>2018-09-23T15:07:37Z</time>
      </trkpt>
      <trkpt lat="43.59606" lon="6.44347">
        <ele>390.91</ele>
        <time>2018-09-23T15:07:55Z</time>
      </trkpt>
      <trkpt lat="43.59605" lon="6.44343">
        <ele>390.43</ele>
        <time>2018-09-23T15:07:58Z</time>
      </trkpt>
      <trkpt lat="43.59606" lon="6.44343">
        <ele>390.43</ele>
        <time>2018-09-23T15:08:06Z</time>
      </trkpt>
      <trkpt lat="43.59608" lon="6.44348">
        <ele>390.43</ele>
        <time>2018-09-23T15:08:10Z</time>
      </trkpt>
      <trkpt lat="43.59619" lon="6.44367">
        <ele>390.43</ele>
        <time>2018-09-23T15:08:29Z</time>
      </trkpt>
      <trkpt lat="43.59618" lon="6.44363">
        <ele>390.91</ele>
        <time>2018-09-23T15:08:42Z</time>
      </trkpt>
      <trkpt lat="43.59619" lon="6.44362">
        <ele>390.43</ele>
        <time>2018-09-23T15:09:00Z</time>
      </trkpt>
      <trkpt lat="43.59618" lon="6.44361">
        <ele>389.95</ele>
        <time>2018-09-23T15:09:17Z</time>
      </trkpt>
      <trkpt lat="43.59618" lon="6.44361">
        <ele>390.43</ele>
        <time>2018-09-23T15:09:31Z</time>
      </trkpt>
      <trkpt lat="43.59612" lon="6.44359">
        <ele>389.95</ele>
        <time>2018-09-23T15:09:44Z</time>
      </trkpt>
      <trkpt lat="43.59613" lon="6.44361">
        <ele>389.47</ele>
        <time>2018-09-23T15:10:05Z</time>
      </trkpt>
      <trkpt lat="43.59606" lon="6.44363">
        <ele>390.43</ele>
        <time>2018-09-23T15:10:25Z</time>
      </trkpt>
      <trkpt lat="43.59609" lon="6.4436">
        <ele>389.47</ele>
        <time>2018-09-23T15:10:40Z</time>
      </trkpt>
      <trkpt lat="43.5961" lon="6.44358">
        <ele>389.95</ele>
        <time>2018-09-23T15:10:54Z</time>
      </trkpt>
      <trkpt lat="43.59612" lon="6.44359">
        <ele>389.47</ele>
        <time>2018-09-23T15:11:17Z</time>
      </trkpt>
      <trkpt lat="43.59615" lon="6.44359">
        <ele>388.99</ele>
        <time>2018-09-23T15:11:33Z</time>
      </trkpt>
      <trkpt lat="43.59615" lon="6.44357">
        <ele>388.99</ele>
        <time>2018-09-23T15:11:50Z</time>
      </trkpt>
      <trkpt lat="43.59612" lon="6.44359">
        <ele>388.99</ele>
        <time>2018-09-23T15:12:02Z</time>
      </trkpt>
      <trkpt lat="43.59609" lon="6.44365">
        <ele>388.51</ele>
        <time>2018-09-23T15:12:25Z</time>
      </trkpt>
      <trkpt lat="43.5961" lon="6.44364">
        <ele>388.51</ele>
        <time>2018-09-23T15:12:39Z</time>
      </trkpt>
      <trkpt lat="43.59611" lon="6.44363">
        <ele>388.03</ele>
        <time>2018-09-23T15:13:04Z</time>
      </trkpt>
      <trkpt lat="43.59609" lon="6.44362">
        <ele>388.03</ele>
        <time>2018-09-23T15:13:23Z</time>
      </trkpt>
      <trkpt lat="43.59611" lon="6.4436">
        <ele>388.03</ele>
        <time>2018-09-23T15:13:44Z</time>
      </trkpt>
      <trkpt lat="43.59612" lon="6.44362">
        <ele>388.03</ele>
        <time>2018-09-23T15:14:02Z</time>
      </trkpt>
      <trkpt lat="43.59612" lon="6.44365">
        <ele>388.03</ele>
        <time>2018-09-23T15:14:20Z</time>
      </trkpt>
      <trkpt lat="43.59612" lon="6.44363">
        <ele>387.07</ele>
        <time>2018-09-23T15:14:37Z</time>
      </trkpt>
      <trkpt lat="43.59617" lon="6.44363">
        <ele>388.03</ele>
        <time>2018-09-23T15:15:00Z</time>
      </trkpt>
      <trkpt lat="43.59614" lon="6.44361">
        <ele>387.55</ele>
        <time>2018-09-23T15:15:20Z</time>
      </trkpt>
      <trkpt lat="43.59611" lon="6.44365">
        <ele>388.03</ele>
        <time>2018-09-23T15:15:40Z</time>
      </trkpt>
      <trkpt lat="43.59607" lon="6.44363">
        <ele>387.55</ele>
        <time>2018-09-23T15:16:09Z</time>
      </trkpt>
      <trkpt lat="43.59606" lon="6.44363">
        <ele>387.55</ele>
        <time>2018-09-23T15:16:37Z</time>
      </trkpt>
      <trkpt lat="43.59613" lon="6.44357">
        <ele>387.07</ele>
        <time>2018-09-23T15:16:56Z</time>
      </trkpt>
      <trkpt lat="43.59606" lon="6.44345">
        <ele>387.07</ele>
        <time>2018-09-23T15:17:06Z</time>
      </trkpt>
      <trkpt lat="43.59595" lon="6.44325">
        <ele>387.55</ele>
        <time>2018-09-23T15:17:22Z</time>
      </trkpt>
      <trkpt lat="43.59586" lon="6.44312">
        <ele>387.07</ele>
        <time>2018-09-23T15:17:35Z</time>
      </trkpt>
      <trkpt lat="43.59585" lon="6.44311">
        <ele>386.59</ele>
        <time>2018-09-23T15:17:36Z</time>
      </trkpt>
      <trkpt lat="43.59579" lon="6.44303">
        <ele>386.11</ele>
        <time>2018-09-23T15:17:43Z</time>
      </trkpt>
      <trkpt lat="43.59562" lon="6.4429">
        <ele>387.07</ele>
        <time>2018-09-23T15:18:00Z</time>
      </trkpt>
      <trkpt lat="43.59553" lon="6.44284">
        <ele>387.55</ele>
        <time>2018-09-23T15:18:09Z</time>
      </trkpt>
      <trkpt lat="43.5954" lon="6.44269">
        <ele>386.59</ele>
        <time>2018-09-23T15:18:23Z</time>
      </trkpt>
      <trkpt lat="43.59536" lon="6.44264">
        <ele>387.07</ele>
        <time>2018-09-23T15:18:36Z</time>
      </trkpt>
      <trkpt lat="43.59532" lon="6.44251">
        <ele>386.59</ele>
        <time>2018-09-23T15:18:51Z</time>
      </trkpt>
      <trkpt lat="43.59529" lon="6.44238">
        <ele>386.11</ele>
        <time>2018-09-23T15:19:03Z</time>
      </trkpt>
      <trkpt lat="43.59518" lon="6.44223">
        <ele>384.18</ele>
        <time>2018-09-23T15:19:19Z</time>
      </trkpt>
      <trkpt lat="43.59506" lon="6.44202">
        <ele>383.7</ele>
        <time>2018-09-23T15:19:35Z</time>
      </trkpt>
      <trkpt lat="43.59505" lon="6.44194">
        <ele>383.22</ele>
        <time>2018-09-23T15:19:42Z</time>
      </trkpt>
      <trkpt lat="43.59495" lon="6.4418">
        <ele>382.26</ele>
        <time>2018-09-23T15:19:58Z</time>
      </trkpt>
      <trkpt lat="43.59484" lon="6.44159">
        <ele>381.3</ele>
        <time>2018-09-23T15:20:12Z</time>
      </trkpt>
      <trkpt lat="43.59473" lon="6.44141">
        <ele>379.86</ele>
        <time>2018-09-23T15:20:29Z</time>
      </trkpt>
      <trkpt lat="43.59475" lon="6.44146">
        <ele>379.86</ele>
        <time>2018-09-23T15:20:41Z</time>
      </trkpt>
      <trkpt lat="43.59469" lon="6.44134">
        <ele>378.9</ele>
        <time>2018-09-23T15:20:59Z</time>
      </trkpt>
      <trkpt lat="43.59469" lon="6.44132">
        <ele>377.94</ele>
        <time>2018-09-23T15:21:12Z</time>
      </trkpt>
      <trkpt lat="43.5947" lon="6.44128">
        <ele>377.94</ele>
        <time>2018-09-23T15:21:31Z</time>
      </trkpt>
      <trkpt lat="43.59476" lon="6.44132">
        <ele>378.42</ele>
        <time>2018-09-23T15:21:49Z</time>
      </trkpt>
      <trkpt lat="43.59484" lon="6.44132">
        <ele>376.97</ele>
        <time>2018-09-23T15:22:14Z</time>
      </trkpt>
      <trkpt lat="43.59483" lon="6.44135">
        <ele>380.34</ele>
        <time>2018-09-23T15:22:20Z</time>
      </trkpt>
      <trkpt lat="43.59483" lon="6.44138">
        <ele>377.94</ele>
        <time>2018-09-23T15:22:40Z</time>
      </trkpt>
      <trkpt lat="43.59483" lon="6.44138">
        <ele>377.94</ele>
        <time>2018-09-23T15:23:03Z</time>
      </trkpt>
      <trkpt lat="43.59483" lon="6.44142">
        <ele>378.42</ele>
        <time>2018-09-23T15:23:22Z</time>
      </trkpt>
      <trkpt lat="43.5948" lon="6.44138">
        <ele>377.94</ele>
        <time>2018-09-23T15:23:38Z</time>
      </trkpt>
      <trkpt lat="43.5948" lon="6.44141">
        <ele>378.42</ele>
        <time>2018-09-23T15:24:07Z</time>
      </trkpt>
      <trkpt lat="43.59486" lon="6.44143">
        <ele>378.42</ele>
        <time>2018-09-23T15:24:29Z</time>
      </trkpt>
      <trkpt lat="43.59476" lon="6.44131">
        <ele>377.94</ele>
        <time>2018-09-23T15:24:51Z</time>
      </trkpt>
      <trkpt lat="43.59476" lon="6.44128">
        <ele>376.97</ele>
        <time>2018-09-23T15:25:04Z</time>
      </trkpt>
      <trkpt lat="43.59477" lon="6.44135">
        <ele>377.45</ele>
        <time>2018-09-23T15:25:20Z</time>
      </trkpt>
      <trkpt lat="43.59478" lon="6.44141">
        <ele>377.45</ele>
        <time>2018-09-23T15:25:34Z</time>
      </trkpt>
      <trkpt lat="43.5948" lon="6.44134">
        <ele>377.45</ele>
        <time>2018-09-23T15:25:49Z</time>
      </trkpt>
      <trkpt lat="43.59473" lon="6.44121">
        <ele>376.49</ele>
        <time>2018-09-23T15:26:03Z</time>
      </trkpt>
      <trkpt lat="43.59472" lon="6.44119">
        <ele>377.45</ele>
        <time>2018-09-23T15:26:05Z</time>
      </trkpt>
      <trkpt lat="43.59456" lon="6.44101">
        <ele>376.01</ele>
        <time>2018-09-23T15:26:22Z</time>
      </trkpt>
      <trkpt lat="43.59455" lon="6.44094">
        <ele>376.01</ele>
        <time>2018-09-23T15:26:36Z</time>
      </trkpt>
      <trkpt lat="43.59437" lon="6.44073">
        <ele>375.53</ele>
        <time>2018-09-23T15:26:56Z</time>
      </trkpt>
      <trkpt lat="43.59427" lon="6.44065">
        <ele>374.57</ele>
        <time>2018-09-23T15:27:06Z</time>
      </trkpt>
      <trkpt lat="43.5942" lon="6.44061">
        <ele>374.09</ele>
        <time>2018-09-23T15:27:12Z</time>
      </trkpt>
      <trkpt lat="43.59406" lon="6.44052">
        <ele>373.13</ele>
        <time>2018-09-23T15:27:27Z</time>
      </trkpt>
      <trkpt lat="43.59395" lon="6.44046">
        <ele>373.13</ele>
        <time>2018-09-23T15:27:40Z</time>
      </trkpt>
      <trkpt lat="43.59378" lon="6.44042">
        <ele>372.17</ele>
        <time>2018-09-23T15:27:53Z</time>
      </trkpt>
      <trkpt lat="43.59362" lon="6.44031">
        <ele>371.69</ele>
        <time>2018-09-23T15:28:09Z</time>
      </trkpt>
      <trkpt lat="43.59352" lon="6.44006">
        <ele>370.24</ele>
        <time>2018-09-23T15:28:26Z</time>
      </trkpt>
      <trkpt lat="43.59352" lon="6.44004">
        <ele>370.73</ele>
        <time>2018-09-23T15:28:40Z</time>
      </trkpt>
      <trkpt lat="43.59352" lon="6.44011">
        <ele>370.24</ele>
        <time>2018-09-23T15:28:58Z</time>
      </trkpt>
      <trkpt lat="43.59349" lon="6.44001">
        <ele>370.24</ele>
        <time>2018-09-23T15:29:14Z</time>
      </trkpt>
      <trkpt lat="43.59354" lon="6.44005">
        <ele>370.73</ele>
        <time>2018-09-23T15:29:25Z</time>
      </trkpt>
      <trkpt lat="43.59355" lon="6.4401">
        <ele>371.21</ele>
        <time>2018-09-23T15:29:40Z</time>
      </trkpt>
      <trkpt lat="43.59354" lon="6.44007">
        <ele>370.73</ele>
        <time>2018-09-23T15:29:56Z</time>
      </trkpt>
      <trkpt lat="43.59355" lon="6.44004">
        <ele>370.24</ele>
        <time>2018-09-23T15:30:09Z</time>
      </trkpt>
      <trkpt lat="43.59353" lon="6.44006">
        <ele>368.8</ele>
        <time>2018-09-23T15:30:26Z</time>
      </trkpt>
      <trkpt lat="43.59355" lon="6.44001">
        <ele>369.76</ele>
        <time>2018-09-23T15:30:43Z</time>
      </trkpt>
      <trkpt lat="43.59353" lon="6.44">
        <ele>370.24</ele>
        <time>2018-09-23T15:31:00Z</time>
      </trkpt>
      <trkpt lat="43.59359" lon="6.44005">
        <ele>369.76</ele>
        <time>2018-09-23T15:31:24Z</time>
      </trkpt>
      <trkpt lat="43.59359" lon="6.44008">
        <ele>369.28</ele>
        <time>2018-09-23T15:31:45Z</time>
      </trkpt>
      <trkpt lat="43.59363" lon="6.44006">
        <ele>369.28</ele>
        <time>2018-09-23T15:32:03Z</time>
      </trkpt>
      <trkpt lat="43.59359" lon="6.44007">
        <ele>369.28</ele>
        <time>2018-09-23T15:32:16Z</time>
      </trkpt>
      <trkpt lat="43.59356" lon="6.44011">
        <ele>369.76</ele>
        <time>2018-09-23T15:32:33Z</time>
      </trkpt>
      <trkpt lat="43.59356" lon="6.44009">
        <ele>369.28</ele>
        <time>2018-09-23T15:32:50Z</time>
      </trkpt>
      <trkpt lat="43.59357" lon="6.44011">
        <ele>369.28</ele>
        <time>2018-09-23T15:33:10Z</time>
      </trkpt>
      <trkpt lat="43.59354" lon="6.44006">
        <ele>369.28</ele>
        <time>2018-09-23T15:33:32Z</time>
      </trkpt>
      <trkpt lat="43.5935" lon="6.44007">
        <ele>369.76</ele>
        <time>2018-09-23T15:33:50Z</time>
      </trkpt>
      <trkpt lat="43.5935" lon="6.44008">
        <ele>369.28</ele>
        <time>2018-09-23T15:34:08Z</time>
      </trkpt>
      <trkpt lat="43.59353" lon="6.44006">
        <ele>369.28</ele>
        <time>2018-09-23T15:34:32Z</time>
      </trkpt>
      <trkpt lat="43.59352" lon="6.44009">
        <ele>368.8</ele>
        <time>2018-09-23T15:34:48Z</time>
      </trkpt>
      <trkpt lat="43.59355" lon="6.44009">
        <ele>368.8</ele>
        <time>2018-09-23T15:35:06Z</time>
      </trkpt>
      <trkpt lat="43.59361" lon="6.44012">
        <ele>368.8</ele>
        <time>2018-09-23T15:35:31Z</time>
      </trkpt>
      <trkpt lat="43.59357" lon="6.44003">
        <ele>368.8</ele>
        <time>2018-09-23T15:35:49Z</time>
      </trkpt>
      <trkpt lat="43.59352" lon="6.44004">
        <ele>368.8</ele>
        <time>2018-09-23T15:36:12Z</time>
      </trkpt>
      <trkpt lat="43.5935" lon="6.44003">
        <ele>368.8</ele>
        <time>2018-09-23T15:36:46Z</time>
      </trkpt>
      <trkpt lat="43.59352" lon="6.44">
        <ele>369.28</ele>
        <time>2018-09-23T15:37:11Z</time>
      </trkpt>
      <trkpt lat="43.59354" lon="6.44003">
        <ele>368.8</ele>
        <time>2018-09-23T15:37:33Z</time>
      </trkpt>
      <trkpt lat="43.59351" lon="6.44005">
        <ele>368.8</ele>
        <time>2018-09-23T15:37:59Z</time>
      </trkpt>
      <trkpt lat="43.59355" lon="6.44008">
        <ele>365.44</ele>
        <time>2018-09-23T15:38:11Z</time>
      </trkpt>
      <trkpt lat="43.59356" lon="6.44008">
        <ele>367.84</ele>
        <time>2018-09-23T15:38:12Z</time>
      </trkpt>
      <trkpt lat="43.59356" lon="6.44008">
        <ele>375.53</ele>
        <time>2018-09-23T15:38:13Z</time>
      </trkpt>
      <trkpt lat="43.59356" lon="6.44008">
        <ele>369.76</ele>
        <time>2018-09-23T15:38:14Z</time>
      </trkpt>
      <trkpt lat="43.59363" lon="6.44008">
        <ele>370.24</ele>
        <time>2018-09-23T15:38:47Z</time>
      </trkpt>
      <trkpt lat="43.59359" lon="6.44009">
        <ele>369.76</ele>
        <time>2018-09-23T15:39:02Z</time>
      </trkpt>
      <trkpt lat="43.59354" lon="6.44003">
        <ele>369.76</ele>
        <time>2018-09-23T15:39:19Z</time>
      </trkpt>
      <trkpt lat="43.59353" lon="6.43999">
        <ele>369.76</ele>
        <time>2018-09-23T15:39:41Z</time>
      </trkpt>
      <trkpt lat="43.59354" lon="6.44005">
        <ele>369.76</ele>
        <time>2018-09-23T15:39:58Z</time>
      </trkpt>
      <trkpt lat="43.59351" lon="6.44">
        <ele>369.76</ele>
        <time>2018-09-23T15:40:18Z</time>
      </trkpt>
      <trkpt lat="43.59354" lon="6.44002">
        <ele>369.76</ele>
        <time>2018-09-23T15:40:33Z</time>
      </trkpt>
      <trkpt lat="43.59356" lon="6.44004">
        <ele>369.76</ele>
        <time>2018-09-23T15:40:49Z</time>
      </trkpt>
      <trkpt lat="43.59355" lon="6.44003">
        <ele>369.76</ele>
        <time>2018-09-23T15:41:04Z</time>
      </trkpt>
      <trkpt lat="43.59355" lon="6.44006">
        <ele>370.24</ele>
        <time>2018-09-23T15:41:34Z</time>
      </trkpt>
      <trkpt lat="43.59355" lon="6.44013">
        <ele>369.28</ele>
        <time>2018-09-23T15:41:59Z</time>
      </trkpt>
      <trkpt lat="43.59354" lon="6.44012">
        <ele>369.76</ele>
        <time>2018-09-23T15:42:29Z</time>
      </trkpt>
      <trkpt lat="43.59356" lon="6.4401">
        <ele>370.24</ele>
        <time>2018-09-23T15:42:45Z</time>
      </trkpt>
      <trkpt lat="43.59359" lon="6.44009">
        <ele>370.24</ele>
        <time>2018-09-23T15:43:02Z</time>
      </trkpt>
      <trkpt lat="43.59358" lon="6.44009">
        <ele>369.76</ele>
        <time>2018-09-23T15:43:18Z</time>
      </trkpt>
      <trkpt lat="43.59354" lon="6.44002">
        <ele>369.76</ele>
        <time>2018-09-23T15:43:37Z</time>
      </trkpt>
      <trkpt lat="43.59349" lon="6.43985">
        <ele>369.28</ele>
        <time>2018-09-23T15:43:51Z</time>
      </trkpt>
      <trkpt lat="43.59346" lon="6.43967">
        <ele>368.8</ele>
        <time>2018-09-23T15:44:04Z</time>
      </trkpt>
      <trkpt lat="43.59342" lon="6.43947">
        <ele>369.28</ele>
        <time>2018-09-23T15:44:19Z</time>
      </trkpt>
      <trkpt lat="43.59337" lon="6.43924">
        <ele>367.84</ele>
        <time>2018-09-23T15:44:35Z</time>
      </trkpt>
      <trkpt lat="43.59336" lon="6.43904">
        <ele>368.32</ele>
        <time>2018-09-23T15:44:50Z</time>
      </trkpt>
      <trkpt lat="43.5933" lon="6.43884">
        <ele>368.32</ele>
        <time>2018-09-23T15:45:03Z</time>
      </trkpt>
      <trkpt lat="43.59322" lon="6.43872">
        <ele>369.28</ele>
        <time>2018-09-23T15:45:21Z</time>
      </trkpt>
      <trkpt lat="43.59321" lon="6.43872">
        <ele>368.8</ele>
        <time>2018-09-23T15:45:39Z</time>
      </trkpt>
      <trkpt lat="43.59321" lon="6.43871">
        <ele>368.32</ele>
        <time>2018-09-23T15:45:58Z</time>
      </trkpt>
      <trkpt lat="43.59321" lon="6.43871">
        <ele>368.8</ele>
        <time>2018-09-23T15:46:15Z</time>
      </trkpt>
      <trkpt lat="43.5932" lon="6.43871">
        <ele>368.32</ele>
        <time>2018-09-23T15:46:34Z</time>
      </trkpt>
      <trkpt lat="43.59321" lon="6.43873">
        <ele>368.32</ele>
        <time>2018-09-23T15:46:54Z</time>
      </trkpt>
      <trkpt lat="43.59318" lon="6.43866">
        <ele>368.8</ele>
        <time>2018-09-23T15:47:09Z</time>
      </trkpt>
      <trkpt lat="43.59323" lon="6.43863">
        <ele>367.84</ele>
        <time>2018-09-23T15:47:24Z</time>
      </trkpt>
      <trkpt lat="43.59319" lon="6.43853">
        <ele>368.32</ele>
        <time>2018-09-23T15:47:37Z</time>
      </trkpt>
      <trkpt lat="43.59324" lon="6.43849">
        <ele>368.32</ele>
        <time>2018-09-23T15:48:01Z</time>
      </trkpt>
      <trkpt lat="43.5932" lon="6.43853">
        <ele>368.8</ele>
        <time>2018-09-23T15:48:16Z</time>
      </trkpt>
      <trkpt lat="43.5932" lon="6.43863">
        <ele>367.84</ele>
        <time>2018-09-23T15:48:34Z</time>
      </trkpt>
      <trkpt lat="43.5933" lon="6.43878">
        <ele>368.32</ele>
        <time>2018-09-23T15:48:56Z</time>
      </trkpt>
      <trkpt lat="43.59326" lon="6.43874">
        <ele>368.8</ele>
        <time>2018-09-23T15:49:13Z</time>
      </trkpt>
      <trkpt lat="43.59326" lon="6.43873">
        <ele>368.8</ele>
        <time>2018-09-23T15:49:32Z</time>
      </trkpt>
      <trkpt lat="43.59332" lon="6.43868">
        <ele>369.28</ele>
        <time>2018-09-23T15:49:47Z</time>
      </trkpt>
      <trkpt lat="43.59327" lon="6.43869">
        <ele>369.28</ele>
        <time>2018-09-23T15:50:02Z</time>
      </trkpt>
      <trkpt lat="43.59327" lon="6.43871">
        <ele>369.76</ele>
        <time>2018-09-23T15:50:18Z</time>
      </trkpt>
      <trkpt lat="43.59326" lon="6.4387">
        <ele>369.28</ele>
        <time>2018-09-23T15:50:32Z</time>
      </trkpt>
      <trkpt lat="43.59327" lon="6.43871">
        <ele>369.76</ele>
        <time>2018-09-23T15:50:53Z</time>
      </trkpt>
      <trkpt lat="43.59324" lon="6.43871">
        <ele>369.76</ele>
        <time>2018-09-23T15:51:06Z</time>
      </trkpt>
      <trkpt lat="43.59324" lon="6.43869">
        <ele>369.28</ele>
        <time>2018-09-23T15:51:28Z</time>
      </trkpt>
      <trkpt lat="43.5932" lon="6.43861">
        <ele>369.28</ele>
        <time>2018-09-23T15:51:42Z</time>
      </trkpt>
      <trkpt lat="43.59322" lon="6.43862">
        <ele>369.76</ele>
        <time>2018-09-23T15:52:04Z</time>
      </trkpt>
      <trkpt lat="43.59322" lon="6.4386">
        <ele>369.28</ele>
        <time>2018-09-23T15:52:24Z</time>
      </trkpt>
      <trkpt lat="43.59318" lon="6.43858">
        <ele>369.28</ele>
        <time>2018-09-23T15:52:36Z</time>
      </trkpt>
      <trkpt lat="43.5931" lon="6.43846">
        <ele>368.8</ele>
        <time>2018-09-23T15:52:52Z</time>
      </trkpt>
      <trkpt lat="43.59306" lon="6.43838">
        <ele>369.28</ele>
        <time>2018-09-23T15:52:58Z</time>
      </trkpt>
      <trkpt lat="43.59295" lon="6.43812">
        <ele>369.28</ele>
        <time>2018-09-23T15:53:17Z</time>
      </trkpt>
      <trkpt lat="43.5929" lon="6.43801">
        <ele>369.76</ele>
        <time>2018-09-23T15:53:27Z</time>
      </trkpt>
      <trkpt lat="43.5928" lon="6.43793">
        <ele>369.28</ele>
        <time>2018-09-23T15:53:45Z</time>
      </trkpt>
      <trkpt lat="43.59275" lon="6.43797">
        <ele>369.28</ele>
        <time>2018-09-23T15:54:07Z</time>
      </trkpt>
      <trkpt lat="43.59276" lon="6.43795">
        <ele>369.28</ele>
        <time>2018-09-23T15:54:20Z</time>
      </trkpt>
      <trkpt lat="43.59276" lon="6.43801">
        <ele>368.8</ele>
        <time>2018-09-23T15:54:46Z</time>
      </trkpt>
      <trkpt lat="43.59277" lon="6.438">
        <ele>368.32</ele>
        <time>2018-09-23T15:55:06Z</time>
      </trkpt>
      <trkpt lat="43.59285" lon="6.43802">
        <ele>369.28</ele>
        <time>2018-09-23T15:55:36Z</time>
      </trkpt>
      <trkpt lat="43.59283" lon="6.43797">
        <ele>368.8</ele>
        <time>2018-09-23T15:55:59Z</time>
      </trkpt>
      <trkpt lat="43.59286" lon="6.43795">
        <ele>369.28</ele>
        <time>2018-09-23T15:56:20Z</time>
      </trkpt>
      <trkpt lat="43.59279" lon="6.43789">
        <ele>369.28</ele>
        <time>2018-09-23T15:56:39Z</time>
      </trkpt>
      <trkpt lat="43.59273" lon="6.43787">
        <ele>369.76</ele>
        <time>2018-09-23T15:56:59Z</time>
      </trkpt>
      <trkpt lat="43.59271" lon="6.43787">
        <ele>369.76</ele>
        <time>2018-09-23T15:57:21Z</time>
      </trkpt>
      <trkpt lat="43.59273" lon="6.43773">
        <ele>369.76</ele>
        <time>2018-09-23T15:57:41Z</time>
      </trkpt>
      <trkpt lat="43.59273" lon="6.43777">
        <ele>369.76</ele>
        <time>2018-09-23T15:57:59Z</time>
      </trkpt>
      <trkpt lat="43.59272" lon="6.43779">
        <ele>370.24</ele>
        <time>2018-09-23T15:58:21Z</time>
      </trkpt>
      <trkpt lat="43.59281" lon="6.43782">
        <ele>370.24</ele>
        <time>2018-09-23T15:58:37Z</time>
      </trkpt>
      <trkpt lat="43.59272" lon="6.43782">
        <ele>371.21</ele>
        <time>2018-09-23T15:58:59Z</time>
      </trkpt>
      <trkpt lat="43.59271" lon="6.43782">
        <ele>370.73</ele>
        <time>2018-09-23T15:59:20Z</time>
      </trkpt>
      <trkpt lat="43.59283" lon="6.43784">
        <ele>371.21</ele>
        <time>2018-09-23T15:59:37Z</time>
      </trkpt>
      <trkpt lat="43.59285" lon="6.43783">
        <ele>371.21</ele>
        <time>2018-09-23T16:00:02Z</time>
      </trkpt>
      <trkpt lat="43.59276" lon="6.43776">
        <ele>371.69</ele>
        <time>2018-09-23T16:00:22Z</time>
      </trkpt>
      <trkpt lat="43.59273" lon="6.43778">
        <ele>372.17</ele>
        <time>2018-09-23T16:00:40Z</time>
      </trkpt>
      <trkpt lat="43.59268" lon="6.43777">
        <ele>372.17</ele>
        <time>2018-09-23T16:01:03Z</time>
      </trkpt>
      <trkpt lat="43.5927" lon="6.43777">
        <ele>372.65</ele>
        <time>2018-09-23T16:01:30Z</time>
      </trkpt>
      <trkpt lat="43.59267" lon="6.43781">
        <ele>373.13</ele>
        <time>2018-09-23T16:02:06Z</time>
      </trkpt>
      <trkpt lat="43.59267" lon="6.43778">
        <ele>374.09</ele>
        <time>2018-09-23T16:02:13Z</time>
      </trkpt>
      <trkpt lat="43.59271" lon="6.43772">
        <ele>373.61</ele>
        <time>2018-09-23T16:02:29Z</time>
      </trkpt>
      <trkpt lat="43.59268" lon="6.43765">
        <ele>373.61</ele>
        <time>2018-09-23T16:02:38Z</time>
      </trkpt>
      <trkpt lat="43.59263" lon="6.43751">
        <ele>373.13</ele>
        <time>2018-09-23T16:02:51Z</time>
      </trkpt>
      <trkpt lat="43.59259" lon="6.4374">
        <ele>373.61</ele>
        <time>2018-09-23T16:03:06Z</time>
      </trkpt>
      <trkpt lat="43.59257" lon="6.43734">
        <ele>373.61</ele>
        <time>2018-09-23T16:03:12Z</time>
      </trkpt>
      <trkpt lat="43.59254" lon="6.4373">
        <ele>376.49</ele>
        <time>2018-09-23T16:03:16Z</time>
      </trkpt>
      <trkpt lat="43.59248" lon="6.43723">
        <ele>373.13</ele>
        <time>2018-09-23T16:03:24Z</time>
      </trkpt>
      <trkpt lat="43.5924" lon="6.43706">
        <ele>373.61</ele>
        <time>2018-09-23T16:03:37Z</time>
      </trkpt>
      <trkpt lat="43.59234" lon="6.43702">
        <ele>373.61</ele>
        <time>2018-09-23T16:03:43Z</time>
      </trkpt>
      <trkpt lat="43.59227" lon="6.43689">
        <ele>373.61</ele>
        <time>2018-09-23T16:03:54Z</time>
      </trkpt>
      <trkpt lat="43.59227" lon="6.43683">
        <ele>373.61</ele>
        <time>2018-09-23T16:03:59Z</time>
      </trkpt>
      <trkpt lat="43.59225" lon="6.43676">
        <ele>373.13</ele>
        <time>2018-09-23T16:04:03Z</time>
      </trkpt>
      <trkpt lat="43.59222" lon="6.4367">
        <ele>373.13</ele>
        <time>2018-09-23T16:04:07Z</time>
      </trkpt>
      <trkpt lat="43.59219" lon="6.43666">
        <ele>372.65</ele>
        <time>2018-09-23T16:04:10Z</time>
      </trkpt>
      <trkpt lat="43.59207" lon="6.43645">
        <ele>372.17</ele>
        <time>2018-09-23T16:04:27Z</time>
      </trkpt>
      <trkpt lat="43.59204" lon="6.43637">
        <ele>371.69</ele>
        <time>2018-09-23T16:04:37Z</time>
      </trkpt>
      <trkpt lat="43.59199" lon="6.4363">
        <ele>371.69</ele>
        <time>2018-09-23T16:04:44Z</time>
      </trkpt>
      <trkpt lat="43.59196" lon="6.43628">
        <ele>371.69</ele>
        <time>2018-09-23T16:04:47Z</time>
      </trkpt>
      <trkpt lat="43.59195" lon="6.43622">
        <ele>371.69</ele>
        <time>2018-09-23T16:04:51Z</time>
      </trkpt>
      <trkpt lat="43.59189" lon="6.43607">
        <ele>370.24</ele>
        <time>2018-09-23T16:05:02Z</time>
      </trkpt>
      <trkpt lat="43.59187" lon="6.43601">
        <ele>370.73</ele>
        <time>2018-09-23T16:05:06Z</time>
      </trkpt>
      <trkpt lat="43.59181" lon="6.43581">
        <ele>369.76</ele>
        <time>2018-09-23T16:05:19Z</time>
      </trkpt>
      <trkpt lat="43.59179" lon="6.43577">
        <ele>370.24</ele>
        <time>2018-09-23T16:05:22Z</time>
      </trkpt>
      <trkpt lat="43.59168" lon="6.43562">
        <ele>369.28</ele>
        <time>2018-09-23T16:05:35Z</time>
      </trkpt>
      <trkpt lat="43.59164" lon="6.43552">
        <ele>368.8</ele>
        <time>2018-09-23T16:05:47Z</time>
      </trkpt>
      <trkpt lat="43.59162" lon="6.43552">
        <ele>368.8</ele>
        <time>2018-09-23T16:06:02Z</time>
      </trkpt>
      <trkpt lat="43.59156" lon="6.43543">
        <ele>364.96</ele>
        <time>2018-09-23T16:06:18Z</time>
      </trkpt>
      <trkpt lat="43.59155" lon="6.43543">
        <ele>368.8</ele>
        <time>2018-09-23T16:06:19Z</time>
      </trkpt>
      <trkpt lat="43.5916" lon="6.4354">
        <ele>368.32</ele>
        <time>2018-09-23T16:06:36Z</time>
      </trkpt>
      <trkpt lat="43.59162" lon="6.43538">
        <ele>367.84</ele>
        <time>2018-09-23T16:06:50Z</time>
      </trkpt>
      <trkpt lat="43.59159" lon="6.43538">
        <ele>367.84</ele>
        <time>2018-09-23T16:07:10Z</time>
      </trkpt>
      <trkpt lat="43.59158" lon="6.43539">
        <ele>367.36</ele>
        <time>2018-09-23T16:07:24Z</time>
      </trkpt>
      <trkpt lat="43.5916" lon="6.43536">
        <ele>369.28</ele>
        <time>2018-09-23T16:07:40Z</time>
      </trkpt>
      <trkpt lat="43.59166" lon="6.4353">
        <ele>370.24</ele>
        <time>2018-09-23T16:08:03Z</time>
      </trkpt>
      <trkpt lat="43.59166" lon="6.4353">
        <ele>368.32</ele>
        <time>2018-09-23T16:08:04Z</time>
      </trkpt>
      <trkpt lat="43.59164" lon="6.43533">
        <ele>367.36</ele>
        <time>2018-09-23T16:08:21Z</time>
      </trkpt>
      <trkpt lat="43.59156" lon="6.43536">
        <ele>367.36</ele>
        <time>2018-09-23T16:08:37Z</time>
      </trkpt>
      <trkpt lat="43.59154" lon="6.43537">
        <ele>367.84</ele>
        <time>2018-09-23T16:09:07Z</time>
      </trkpt>
      <trkpt lat="43.59147" lon="6.43529">
        <ele>367.84</ele>
        <time>2018-09-23T16:09:22Z</time>
      </trkpt>
      <trkpt lat="43.59147" lon="6.43511">
        <ele>366.88</ele>
        <time>2018-09-23T16:09:37Z</time>
      </trkpt>
      <trkpt lat="43.59147" lon="6.43501">
        <ele>366.88</ele>
        <time>2018-09-23T16:09:43Z</time>
      </trkpt>
      <trkpt lat="43.59145" lon="6.43482">
        <ele>365.92</ele>
        <time>2018-09-23T16:09:54Z</time>
      </trkpt>
      <trkpt lat="43.59133" lon="6.43459">
        <ele>365.44</ele>
        <time>2018-09-23T16:10:10Z</time>
      </trkpt>
      <trkpt lat="43.59127" lon="6.4345">
        <ele>364.96</ele>
        <time>2018-09-23T16:10:17Z</time>
      </trkpt>
      <trkpt lat="43.59118" lon="6.43434">
        <ele>363.52</ele>
        <time>2018-09-23T16:10:31Z</time>
      </trkpt>
      <trkpt lat="43.59103" lon="6.43421">
        <ele>362.55</ele>
        <time>2018-09-23T16:10:45Z</time>
      </trkpt>
      <trkpt lat="43.59099" lon="6.43417">
        <ele>362.07</ele>
        <time>2018-09-23T16:10:49Z</time>
      </trkpt>
      <trkpt lat="43.59087" lon="6.43399">
        <ele>362.07</ele>
        <time>2018-09-23T16:11:03Z</time>
      </trkpt>
      <trkpt lat="43.59081" lon="6.43388">
        <ele>361.11</ele>
        <time>2018-09-23T16:11:11Z</time>
      </trkpt>
      <trkpt lat="43.59079" lon="6.43381">
        <ele>360.15</ele>
        <time>2018-09-23T16:11:16Z</time>
      </trkpt>
      <trkpt lat="43.59072" lon="6.43357">
        <ele>360.63</ele>
        <time>2018-09-23T16:11:31Z</time>
      </trkpt>
      <trkpt lat="43.59063" lon="6.43336">
        <ele>358.71</ele>
        <time>2018-09-23T16:11:45Z</time>
      </trkpt>
      <trkpt lat="43.59063" lon="6.43331">
        <ele>359.19</ele>
        <time>2018-09-23T16:11:48Z</time>
      </trkpt>
      <trkpt lat="43.59058" lon="6.43313">
        <ele>357.75</ele>
        <time>2018-09-23T16:12:00Z</time>
      </trkpt>
      <trkpt lat="43.59057" lon="6.43286">
        <ele>357.75</ele>
        <time>2018-09-23T16:12:17Z</time>
      </trkpt>
      <trkpt lat="43.59056" lon="6.43283">
        <ele>356.79</ele>
        <time>2018-09-23T16:12:19Z</time>
      </trkpt>
      <trkpt lat="43.59054" lon="6.43259">
        <ele>355.83</ele>
        <time>2018-09-23T16:12:33Z</time>
      </trkpt>
      <trkpt lat="43.59046" lon="6.43229">
        <ele>354.38</ele>
        <time>2018-09-23T16:12:53Z</time>
      </trkpt>
      <trkpt lat="43.59037" lon="6.43206">
        <ele>353.42</ele>
        <time>2018-09-23T16:13:09Z</time>
      </trkpt>
      <trkpt lat="43.59028" lon="6.43188">
        <ele>352.94</ele>
        <time>2018-09-23T16:13:22Z</time>
      </trkpt>
      <trkpt lat="43.59024" lon="6.43178">
        <ele>351.98</ele>
        <time>2018-09-23T16:13:29Z</time>
      </trkpt>
      <trkpt lat="43.59023" lon="6.43169">
        <ele>351.5</ele>
        <time>2018-09-23T16:13:35Z</time>
      </trkpt>
      <trkpt lat="43.59022" lon="6.43141">
        <ele>351.02</ele>
        <time>2018-09-23T16:13:51Z</time>
      </trkpt>
      <trkpt lat="43.5902" lon="6.43135">
        <ele>350.54</ele>
        <time>2018-09-23T16:13:55Z</time>
      </trkpt>
      <trkpt lat="43.59013" lon="6.43117">
        <ele>349.58</ele>
        <time>2018-09-23T16:14:08Z</time>
      </trkpt>
      <trkpt lat="43.59009" lon="6.43098">
        <ele>348.62</ele>
        <time>2018-09-23T16:14:20Z</time>
      </trkpt>
      <trkpt lat="43.59008" lon="6.43073">
        <ele>347.65</ele>
        <time>2018-09-23T16:14:35Z</time>
      </trkpt>
      <trkpt lat="43.59009" lon="6.43048">
        <ele>346.69</ele>
        <time>2018-09-23T16:14:49Z</time>
      </trkpt>
      <trkpt lat="43.59008" lon="6.43037">
        <ele>345.73</ele>
        <time>2018-09-23T16:14:56Z</time>
      </trkpt>
      <trkpt lat="43.59005" lon="6.43018">
        <ele>345.25</ele>
        <time>2018-09-23T16:15:08Z</time>
      </trkpt>
      <trkpt lat="43.59004" lon="6.43013">
        <ele>344.77</ele>
        <time>2018-09-23T16:15:12Z</time>
      </trkpt>
      <trkpt lat="43.59001" lon="6.4299">
        <ele>344.29</ele>
        <time>2018-09-23T16:15:26Z</time>
      </trkpt>
      <trkpt lat="43.59001" lon="6.42966">
        <ele>343.33</ele>
        <time>2018-09-23T16:15:41Z</time>
      </trkpt>
      <trkpt lat="43.59001" lon="6.42959">
        <ele>343.33</ele>
        <time>2018-09-23T16:15:46Z</time>
      </trkpt>
      <trkpt lat="43.59004" lon="6.42936">
        <ele>342.37</ele>
        <time>2018-09-23T16:16:00Z</time>
      </trkpt>
      <trkpt lat="43.59" lon="6.42913">
        <ele>340.92</ele>
        <time>2018-09-23T16:16:14Z</time>
      </trkpt>
      <trkpt lat="43.58993" lon="6.42886">
        <ele>339.96</ele>
        <time>2018-09-23T16:16:32Z</time>
      </trkpt>
      <trkpt lat="43.58991" lon="6.42872">
        <ele>339.96</ele>
        <time>2018-09-23T16:16:42Z</time>
      </trkpt>
      <trkpt lat="43.58989" lon="6.42865">
        <ele>339.96</ele>
        <time>2018-09-23T16:16:47Z</time>
      </trkpt>
      <trkpt lat="43.5898" lon="6.42851">
        <ele>339</ele>
        <time>2018-09-23T16:16:57Z</time>
      </trkpt>
      <trkpt lat="43.58977" lon="6.42846">
        <ele>339</ele>
        <time>2018-09-23T16:17:01Z</time>
      </trkpt>
      <trkpt lat="43.58976" lon="6.4284">
        <ele>338.04</ele>
        <time>2018-09-23T16:17:06Z</time>
      </trkpt>
      <trkpt lat="43.58956" lon="6.42833">
        <ele>338.04</ele>
        <time>2018-09-23T16:17:21Z</time>
      </trkpt>
      <trkpt lat="43.58954" lon="6.42831">
        <ele>337.56</ele>
        <time>2018-09-23T16:17:23Z</time>
      </trkpt>
      <trkpt lat="43.58953" lon="6.42831">
        <ele>337.56</ele>
        <time>2018-09-23T16:17:24Z</time>
      </trkpt>
      <trkpt lat="43.58951" lon="6.4283">
        <ele>337.56</ele>
        <time>2018-09-23T16:17:25Z</time>
      </trkpt>
      <trkpt lat="43.5894" lon="6.42809">
        <ele>336.6</ele>
        <time>2018-09-23T16:17:41Z</time>
      </trkpt>
      <trkpt lat="43.58937" lon="6.42789">
        <ele>335.16</ele>
        <time>2018-09-23T16:17:54Z</time>
      </trkpt>
      <trkpt lat="43.58937" lon="6.42777">
        <ele>334.68</ele>
        <time>2018-09-23T16:18:01Z</time>
      </trkpt>
      <trkpt lat="43.58937" lon="6.42775">
        <ele>335.16</ele>
        <time>2018-09-23T16:18:02Z</time>
      </trkpt>
      <trkpt lat="43.58937" lon="6.42774">
        <ele>334.68</ele>
        <time>2018-09-23T16:18:03Z</time>
      </trkpt>
      <trkpt lat="43.58937" lon="6.42772">
        <ele>335.16</ele>
        <time>2018-09-23T16:18:04Z</time>
      </trkpt>
      <trkpt lat="43.58936" lon="6.4277">
        <ele>335.16</ele>
        <time>2018-09-23T16:18:05Z</time>
      </trkpt>
      <trkpt lat="43.58935" lon="6.42768">
        <ele>335.16</ele>
        <time>2018-09-23T16:18:06Z</time>
      </trkpt>
      <trkpt lat="43.58935" lon="6.42767">
        <ele>335.16</ele>
        <time>2018-09-23T16:18:07Z</time>
      </trkpt>
      <trkpt lat="43.58934" lon="6.42765">
        <ele>334.68</ele>
        <time>2018-09-23T16:18:08Z</time>
      </trkpt>
      <trkpt lat="43.58934" lon="6.42764">
        <ele>334.68</ele>
        <time>2018-09-23T16:18:09Z</time>
      </trkpt>
      <trkpt lat="43.58924" lon="6.42744">
        <ele>334.2</ele>
        <time>2018-09-23T16:18:23Z</time>
      </trkpt>
      <trkpt lat="43.58913" lon="6.42729">
        <ele>333.71</ele>
        <time>2018-09-23T16:18:37Z</time>
      </trkpt>
      <trkpt lat="43.58912" lon="6.42726">
        <ele>333.71</ele>
        <time>2018-09-23T16:18:39Z</time>
      </trkpt>
      <trkpt lat="43.58902" lon="6.42711">
        <ele>333.23</ele>
        <time>2018-09-23T16:18:51Z</time>
      </trkpt>
      <trkpt lat="43.58899" lon="6.42692">
        <ele>332.75</ele>
        <time>2018-09-23T16:19:02Z</time>
      </trkpt>
      <trkpt lat="43.58899" lon="6.4269">
        <ele>332.75</ele>
        <time>2018-09-23T16:19:03Z</time>
      </trkpt>
      <trkpt lat="43.58898" lon="6.42689">
        <ele>332.27</ele>
        <time>2018-09-23T16:19:04Z</time>
      </trkpt>
      <trkpt lat="43.58897" lon="6.42687">
        <ele>332.75</ele>
        <time>2018-09-23T16:19:05Z</time>
      </trkpt>
      <trkpt lat="43.58897" lon="6.42686">
        <ele>332.75</ele>
        <time>2018-09-23T16:19:06Z</time>
      </trkpt>
      <trkpt lat="43.58896" lon="6.42685">
        <ele>332.27</ele>
        <time>2018-09-23T16:19:07Z</time>
      </trkpt>
      <trkpt lat="43.58895" lon="6.42684">
        <ele>332.27</ele>
        <time>2018-09-23T16:19:08Z</time>
      </trkpt>
      <trkpt lat="43.58894" lon="6.42683">
        <ele>332.75</ele>
        <time>2018-09-23T16:19:09Z</time>
      </trkpt>
      <trkpt lat="43.58893" lon="6.42682">
        <ele>332.27</ele>
        <time>2018-09-23T16:19:10Z</time>
      </trkpt>
      <trkpt lat="43.58879" lon="6.42663">
        <ele>330.83</ele>
        <time>2018-09-23T16:19:27Z</time>
      </trkpt>
      <trkpt lat="43.58873" lon="6.42656">
        <ele>330.83</ele>
        <time>2018-09-23T16:19:33Z</time>
      </trkpt>
      <trkpt lat="43.58873" lon="6.42655">
        <ele>330.83</ele>
        <time>2018-09-23T16:19:34Z</time>
      </trkpt>
      <trkpt lat="43.58872" lon="6.42654">
        <ele>330.83</ele>
        <time>2018-09-23T16:19:35Z</time>
      </trkpt>
      <trkpt lat="43.58871" lon="6.42653">
        <ele>330.83</ele>
        <time>2018-09-23T16:19:36Z</time>
      </trkpt>
      <trkpt lat="43.58867" lon="6.42647">
        <ele>330.83</ele>
        <time>2018-09-23T16:19:41Z</time>
      </trkpt>
      <trkpt lat="43.58865" lon="6.42645">
        <ele>330.35</ele>
        <time>2018-09-23T16:19:43Z</time>
      </trkpt>
      <trkpt lat="43.58855" lon="6.42625">
        <ele>329.39</ele>
        <time>2018-09-23T16:19:59Z</time>
      </trkpt>
      <trkpt lat="43.58853" lon="6.4261">
        <ele>329.39</ele>
        <time>2018-09-23T16:20:09Z</time>
      </trkpt>
      <trkpt lat="43.58851" lon="6.42584">
        <ele>327.95</ele>
        <time>2018-09-23T16:20:25Z</time>
      </trkpt>
      <trkpt lat="43.58847" lon="6.42566">
        <ele>326.5</ele>
        <time>2018-09-23T16:20:39Z</time>
      </trkpt>
      <trkpt lat="43.58839" lon="6.42558">
        <ele>327.47</ele>
        <time>2018-09-23T16:20:48Z</time>
      </trkpt>
      <trkpt lat="43.58838" lon="6.42557">
        <ele>326.99</ele>
        <time>2018-09-23T16:20:49Z</time>
      </trkpt>
      <trkpt lat="43.58837" lon="6.42556">
        <ele>326.99</ele>
        <time>2018-09-23T16:20:50Z</time>
      </trkpt>
      <trkpt lat="43.58826" lon="6.4254">
        <ele>326.5</ele>
        <time>2018-09-23T16:21:05Z</time>
      </trkpt>
      <trkpt lat="43.5881" lon="6.42521">
        <ele>326.02</ele>
        <time>2018-09-23T16:21:22Z</time>
      </trkpt>
      <trkpt lat="43.58796" lon="6.42503">
        <ele>325.54</ele>
        <time>2018-09-23T16:21:39Z</time>
      </trkpt>
      <trkpt lat="43.58786" lon="6.42482">
        <ele>325.06</ele>
        <time>2018-09-23T16:21:54Z</time>
      </trkpt>
      <trkpt lat="43.58778" lon="6.42463">
        <ele>325.06</ele>
        <time>2018-09-23T16:22:09Z</time>
      </trkpt>
      <trkpt lat="43.58769" lon="6.42451">
        <ele>325.06</ele>
        <time>2018-09-23T16:22:24Z</time>
      </trkpt>
      <trkpt lat="43.58765" lon="6.4245">
        <ele>324.58</ele>
        <time>2018-09-23T16:22:32Z</time>
      </trkpt>
      <trkpt lat="43.58756" lon="6.42449">
        <ele>324.1</ele>
        <time>2018-09-23T16:22:40Z</time>
      </trkpt>
      <trkpt lat="43.58755" lon="6.42449">
        <ele>324.1</ele>
        <time>2018-09-23T16:22:41Z</time>
      </trkpt>
      <trkpt lat="43.58754" lon="6.4245">
        <ele>323.62</ele>
        <time>2018-09-23T16:22:42Z</time>
      </trkpt>
      <trkpt lat="43.58753" lon="6.4245">
        <ele>324.58</ele>
        <time>2018-09-23T16:22:43Z</time>
      </trkpt>
      <trkpt lat="43.58752" lon="6.42451">
        <ele>323.62</ele>
        <time>2018-09-23T16:22:44Z</time>
      </trkpt>
      <trkpt lat="43.58751" lon="6.42451">
        <ele>323.62</ele>
        <time>2018-09-23T16:22:45Z</time>
      </trkpt>
      <trkpt lat="43.5875" lon="6.42452">
        <ele>323.62</ele>
        <time>2018-09-23T16:22:46Z</time>
      </trkpt>
      <trkpt lat="43.58732" lon="6.42455">
        <ele>322.18</ele>
        <time>2018-09-23T16:23:00Z</time>
      </trkpt>
      <trkpt lat="43.58728" lon="6.42456">
        <ele>321.7</ele>
        <time>2018-09-23T16:23:04Z</time>
      </trkpt>
      <trkpt lat="43.58727" lon="6.42455">
        <ele>322.18</ele>
        <time>2018-09-23T16:23:05Z</time>
      </trkpt>
      <trkpt lat="43.58726" lon="6.42455">
        <ele>321.7</ele>
        <time>2018-09-23T16:23:06Z</time>
      </trkpt>
      <trkpt lat="43.58709" lon="6.42454">
        <ele>320.74</ele>
        <time>2018-09-23T16:23:21Z</time>
      </trkpt>
      <trkpt lat="43.58693" lon="6.42455">
        <ele>319.3</ele>
        <time>2018-09-23T16:23:35Z</time>
      </trkpt>
      <trkpt lat="43.58676" lon="6.42456">
        <ele>318.33</ele>
        <time>2018-09-23T16:23:49Z</time>
      </trkpt>
      <trkpt lat="43.58658" lon="6.42456">
        <ele>316.89</ele>
        <time>2018-09-23T16:24:03Z</time>
      </trkpt>
      <trkpt lat="43.58655" lon="6.42456">
        <ele>316.89</ele>
        <time>2018-09-23T16:24:05Z</time>
      </trkpt>
      <trkpt lat="43.58654" lon="6.42456">
        <ele>317.37</ele>
        <time>2018-09-23T16:24:06Z</time>
      </trkpt>
      <trkpt lat="43.58638" lon="6.42453">
        <ele>316.41</ele>
        <time>2018-09-23T16:24:19Z</time>
      </trkpt>
      <trkpt lat="43.58636" lon="6.42452">
        <ele>315.93</ele>
        <time>2018-09-23T16:24:21Z</time>
      </trkpt>
      <trkpt lat="43.5862" lon="6.42446">
        <ele>314.49</ele>
        <time>2018-09-23T16:24:34Z</time>
      </trkpt>
      <trkpt lat="43.58607" lon="6.42443">
        <ele>313.53</ele>
        <time>2018-09-23T16:24:49Z</time>
      </trkpt>
      <trkpt lat="43.58605" lon="6.42445">
        <ele>313.53</ele>
        <time>2018-09-23T16:25:04Z</time>
      </trkpt>
      <trkpt lat="43.58601" lon="6.42447">
        <ele>312.57</ele>
        <time>2018-09-23T16:25:20Z</time>
      </trkpt>
      <trkpt lat="43.58599" lon="6.42444">
        <ele>312.57</ele>
        <time>2018-09-23T16:25:37Z</time>
      </trkpt>
      <trkpt lat="43.58599" lon="6.42446">
        <ele>313.05</ele>
        <time>2018-09-23T16:25:52Z</time>
      </trkpt>
      <trkpt lat="43.58604" lon="6.42447">
        <ele>313.05</ele>
        <time>2018-09-23T16:26:05Z</time>
      </trkpt>
      <trkpt lat="43.58606" lon="6.42445">
        <ele>313.53</ele>
        <time>2018-09-23T16:26:20Z</time>
      </trkpt>
      <trkpt lat="43.58607" lon="6.42445">
        <ele>313.53</ele>
        <time>2018-09-23T16:26:45Z</time>
      </trkpt>
      <trkpt lat="43.58607" lon="6.42448">
        <ele>313.05</ele>
        <time>2018-09-23T16:27:10Z</time>
      </trkpt>
      <trkpt lat="43.58606" lon="6.42449">
        <ele>313.53</ele>
        <time>2018-09-23T16:27:32Z</time>
      </trkpt>
      <trkpt lat="43.58606" lon="6.42444">
        <ele>313.53</ele>
        <time>2018-09-23T16:27:58Z</time>
      </trkpt>
      <trkpt lat="43.58599" lon="6.42439">
        <ele>313.05</ele>
        <time>2018-09-23T16:28:13Z</time>
      </trkpt>
      <trkpt lat="43.58595" lon="6.42438">
        <ele>314.01</ele>
        <time>2018-09-23T16:28:28Z</time>
      </trkpt>
      <trkpt lat="43.58598" lon="6.42435">
        <ele>313.53</ele>
        <time>2018-09-23T16:28:47Z</time>
      </trkpt>
      <trkpt lat="43.58595" lon="6.42442">
        <ele>313.05</ele>
        <time>2018-09-23T16:29:05Z</time>
      </trkpt>
      <trkpt lat="43.58601" lon="6.42443">
        <ele>313.05</ele>
        <time>2018-09-23T16:29:32Z</time>
      </trkpt>
      <trkpt lat="43.58598" lon="6.42441">
        <ele>313.05</ele>
        <time>2018-09-23T16:29:57Z</time>
      </trkpt>
      <trkpt lat="43.58607" lon="6.42445">
        <ele>314.49</ele>
        <time>2018-09-23T16:30:20Z</time>
      </trkpt>
      <trkpt lat="43.58607" lon="6.42443">
        <ele>313.53</ele>
        <time>2018-09-23T16:30:46Z</time>
      </trkpt>
      <trkpt lat="43.58605" lon="6.42449">
        <ele>314.01</ele>
        <time>2018-09-23T16:31:05Z</time>
      </trkpt>
      <trkpt lat="43.58603" lon="6.42448">
        <ele>314.49</ele>
        <time>2018-09-23T16:31:32Z</time>
      </trkpt>
      <trkpt lat="43.586" lon="6.42448">
        <ele>313.53</ele>
        <time>2018-09-23T16:32:02Z</time>
      </trkpt>
      <trkpt lat="43.58597" lon="6.42441">
        <ele>314.01</ele>
        <time>2018-09-23T16:32:18Z</time>
      </trkpt>
      <trkpt lat="43.586" lon="6.42443">
        <ele>314.01</ele>
        <time>2018-09-23T16:32:44Z</time>
      </trkpt>
      <trkpt lat="43.58601" lon="6.42444">
        <ele>314.49</ele>
        <time>2018-09-23T16:33:03Z</time>
      </trkpt>
      <trkpt lat="43.586" lon="6.42449">
        <ele>314.97</ele>
        <time>2018-09-23T16:33:35Z</time>
      </trkpt>
      <trkpt lat="43.58602" lon="6.42447">
        <ele>314.97</ele>
        <time>2018-09-23T16:34:05Z</time>
      </trkpt>
      <trkpt lat="43.58602" lon="6.42445">
        <ele>314.01</ele>
        <time>2018-09-23T16:34:18Z</time>
      </trkpt>
      <trkpt lat="43.58605" lon="6.42453">
        <ele>314.97</ele>
        <time>2018-09-23T16:34:40Z</time>
      </trkpt>
      <trkpt lat="43.58604" lon="6.42451">
        <ele>314.97</ele>
        <time>2018-09-23T16:35:06Z</time>
      </trkpt>
      <trkpt lat="43.58601" lon="6.42452">
        <ele>314.49</ele>
        <time>2018-09-23T16:35:30Z</time>
      </trkpt>
      <trkpt lat="43.58601" lon="6.42449">
        <ele>314.49</ele>
        <time>2018-09-23T16:35:51Z</time>
      </trkpt>
      <trkpt lat="43.58603" lon="6.42449">
        <ele>314.49</ele>
        <time>2018-09-23T16:36:08Z</time>
      </trkpt>
      <trkpt lat="43.58602" lon="6.42447">
        <ele>314.49</ele>
        <time>2018-09-23T16:36:22Z</time>
      </trkpt>
      <trkpt lat="43.586" lon="6.42448">
        <ele>314.01</ele>
        <time>2018-09-23T16:36:37Z</time>
      </trkpt>
      <trkpt lat="43.58601" lon="6.42448">
        <ele>314.01</ele>
        <time>2018-09-23T16:36:55Z</time>
      </trkpt>
      <trkpt lat="43.58607" lon="6.42444">
        <ele>314.49</ele>
        <time>2018-09-23T16:37:16Z</time>
      </trkpt>
      <trkpt lat="43.58602" lon="6.42445">
        <ele>314.49</ele>
        <time>2018-09-23T16:37:31Z</time>
      </trkpt>
      <trkpt lat="43.58596" lon="6.42445">
        <ele>314.49</ele>
        <time>2018-09-23T16:37:51Z</time>
      </trkpt>
      <trkpt lat="43.5859" lon="6.42447">
        <ele>314.01</ele>
        <time>2018-09-23T16:37:57Z</time>
      </trkpt>
      <trkpt lat="43.5858" lon="6.42453">
        <ele>313.05</ele>
        <time>2018-09-23T16:38:07Z</time>
      </trkpt>
      <trkpt lat="43.58577" lon="6.42457">
        <ele>313.05</ele>
        <time>2018-09-23T16:38:11Z</time>
      </trkpt>
      <trkpt lat="43.5856" lon="6.42469">
        <ele>311.6</ele>
        <time>2018-09-23T16:38:27Z</time>
      </trkpt>
      <trkpt lat="43.58545" lon="6.42479">
        <ele>310.64</ele>
        <time>2018-09-23T16:38:43Z</time>
      </trkpt>
      <trkpt lat="43.58532" lon="6.42491">
        <ele>309.2</ele>
        <time>2018-09-23T16:38:57Z</time>
      </trkpt>
      <trkpt lat="43.5853" lon="6.42494">
        <ele>309.2</ele>
        <time>2018-09-23T16:39:00Z</time>
      </trkpt>
      <trkpt lat="43.58528" lon="6.42496">
        <ele>309.2</ele>
        <time>2018-09-23T16:39:02Z</time>
      </trkpt>
      <trkpt lat="43.58513" lon="6.42512">
        <ele>307.76</ele>
        <time>2018-09-23T16:39:18Z</time>
      </trkpt>
      <trkpt lat="43.58499" lon="6.42528">
        <ele>306.32</ele>
        <time>2018-09-23T16:39:33Z</time>
      </trkpt>
      <trkpt lat="43.58492" lon="6.42534">
        <ele>306.8</ele>
        <time>2018-09-23T16:39:50Z</time>
      </trkpt>
      <trkpt lat="43.58487" lon="6.42538">
        <ele>305.84</ele>
        <time>2018-09-23T16:40:05Z</time>
      </trkpt>
      <trkpt lat="43.58479" lon="6.42543">
        <ele>305.36</ele>
        <time>2018-09-23T16:40:18Z</time>
      </trkpt>
      <trkpt lat="43.58479" lon="6.42551">
        <ele>304.88</ele>
        <time>2018-09-23T16:40:26Z</time>
      </trkpt>
      <trkpt lat="43.58478" lon="6.42552">
        <ele>304.39</ele>
        <time>2018-09-23T16:40:27Z</time>
      </trkpt>
      <trkpt lat="43.58477" lon="6.42553">
        <ele>304.39</ele>
        <time>2018-09-23T16:40:28Z</time>
      </trkpt>
      <trkpt lat="43.58466" lon="6.42566">
        <ele>303.43</ele>
        <time>2018-09-23T16:40:38Z</time>
      </trkpt>
      <trkpt lat="43.58461" lon="6.42572">
        <ele>303.43</ele>
        <time>2018-09-23T16:40:49Z</time>
      </trkpt>
      <trkpt lat="43.58456" lon="6.42567">
        <ele>302.95</ele>
        <time>2018-09-23T16:41:04Z</time>
      </trkpt>
      <trkpt lat="43.58453" lon="6.42563">
        <ele>302.95</ele>
        <time>2018-09-23T16:41:27Z</time>
      </trkpt>
      <trkpt lat="43.58449" lon="6.42569">
        <ele>301.03</ele>
        <time>2018-09-23T16:41:40Z</time>
      </trkpt>
      <trkpt lat="43.58449" lon="6.42568">
        <ele>302.95</ele>
        <time>2018-09-23T16:41:43Z</time>
      </trkpt>
      <trkpt lat="43.5844" lon="6.42578">
        <ele>302.47</ele>
        <time>2018-09-23T16:42:01Z</time>
      </trkpt>
      <trkpt lat="43.58437" lon="6.42584">
        <ele>301.99</ele>
        <time>2018-09-23T16:42:32Z</time>
      </trkpt>
      <trkpt lat="43.58434" lon="6.42585">
        <ele>301.51</ele>
        <time>2018-09-23T16:42:36Z</time>
      </trkpt>
      <trkpt lat="43.58427" lon="6.42593">
        <ele>302.47</ele>
        <time>2018-09-23T16:42:46Z</time>
      </trkpt>
      <trkpt lat="43.58422" lon="6.42596">
        <ele>301.03</ele>
        <time>2018-09-23T16:42:49Z</time>
      </trkpt>
      <trkpt lat="43.58404" lon="6.42602">
        <ele>300.07</ele>
        <time>2018-09-23T16:43:06Z</time>
      </trkpt>
      <trkpt lat="43.58393" lon="6.42605">
        <ele>299.59</ele>
        <time>2018-09-23T16:43:18Z</time>
      </trkpt>
      <trkpt lat="43.58388" lon="6.42603">
        <ele>299.59</ele>
        <time>2018-09-23T16:43:23Z</time>
      </trkpt>
      <trkpt lat="43.58381" lon="6.42598">
        <ele>299.11</ele>
        <time>2018-09-23T16:43:31Z</time>
      </trkpt>
      <trkpt lat="43.5836" lon="6.42588">
        <ele>298.63</ele>
        <time>2018-09-23T16:43:51Z</time>
      </trkpt>
      <trkpt lat="43.58349" lon="6.42587">
        <ele>299.11</ele>
        <time>2018-09-23T16:44:01Z</time>
      </trkpt>
      <trkpt lat="43.58348" lon="6.42588">
        <ele>298.15</ele>
        <time>2018-09-23T16:44:02Z</time>
      </trkpt>
      <trkpt lat="43.58347" lon="6.42588">
        <ele>298.63</ele>
        <time>2018-09-23T16:44:03Z</time>
      </trkpt>
      <trkpt lat="43.58325" lon="6.42591">
        <ele>298.63</ele>
        <time>2018-09-23T16:44:21Z</time>
      </trkpt>
      <trkpt lat="43.58308" lon="6.42594">
        <ele>298.63</ele>
        <time>2018-09-23T16:44:36Z</time>
      </trkpt>
      <trkpt lat="43.58305" lon="6.42594">
        <ele>298.63</ele>
        <time>2018-09-23T16:44:39Z</time>
      </trkpt>
      <trkpt lat="43.58294" lon="6.42595">
        <ele>298.15</ele>
        <time>2018-09-23T16:44:53Z</time>
      </trkpt>
      <trkpt lat="43.58294" lon="6.42596">
        <ele>298.15</ele>
        <time>2018-09-23T16:44:54Z</time>
      </trkpt>
      <trkpt lat="43.58287" lon="6.42606">
        <ele>299.11</ele>
        <time>2018-09-23T16:45:08Z</time>
      </trkpt>
      <trkpt lat="43.58284" lon="6.42609">
        <ele>300.55</ele>
        <time>2018-09-23T16:45:25Z</time>
      </trkpt>
      <trkpt lat="43.58279" lon="6.42606">
        <ele>301.03</ele>
        <time>2018-09-23T16:45:39Z</time>
      </trkpt>
      <trkpt lat="43.58275" lon="6.42603">
        <ele>301.03</ele>
        <time>2018-09-23T16:46:03Z</time>
      </trkpt>
      <trkpt lat="43.58278" lon="6.42604">
        <ele>299.59</ele>
        <time>2018-09-23T16:46:22Z</time>
      </trkpt>
      <trkpt lat="43.58276" lon="6.42591">
        <ele>298.15</ele>
        <time>2018-09-23T16:46:40Z</time>
      </trkpt>
      <trkpt lat="43.58269" lon="6.42587">
        <ele>297.67</ele>
        <time>2018-09-23T16:46:54Z</time>
      </trkpt>
      <trkpt lat="43.58263" lon="6.42577">
        <ele>297.67</ele>
        <time>2018-09-23T16:47:09Z</time>
      </trkpt>
      <trkpt lat="43.58262" lon="6.42583">
        <ele>296.7</ele>
        <time>2018-09-23T16:47:26Z</time>
      </trkpt>
      <trkpt lat="43.58263" lon="6.42583">
        <ele>297.18</ele>
        <time>2018-09-23T16:47:44Z</time>
      </trkpt>
      <trkpt lat="43.58264" lon="6.42581">
        <ele>297.67</ele>
        <time>2018-09-23T16:48:05Z</time>
      </trkpt>
      <trkpt lat="43.58264" lon="6.42579">
        <ele>297.67</ele>
        <time>2018-09-23T16:48:26Z</time>
      </trkpt>
      <trkpt lat="43.58265" lon="6.42575">
        <ele>297.18</ele>
        <time>2018-09-23T16:48:43Z</time>
      </trkpt>
      <trkpt lat="43.58265" lon="6.42571">
        <ele>297.67</ele>
        <time>2018-09-23T16:49:11Z</time>
      </trkpt>
      <trkpt lat="43.58266" lon="6.42575">
        <ele>297.67</ele>
        <time>2018-09-23T16:49:23Z</time>
      </trkpt>
    </trkseg>
  </trk>
</gpx>